Date StartTime U_cm/s V_cm/s W_cm/s Ustd_cm/s Vstd_cm/s Wstd_cm/s Uvar_(cm/s)^2 Vvar_(cm/s)^2 Wvar_(cm/s)^2 KE_(m/s)^2 TurbulentKE_(m/s)^2 HorizWindSpeed_cm/s FrictionSpeec_cm/s DragCoef SpeedOfSound_m/s SonicTemperature_C Pressure_mb 
10/19/2014  00:00:00      -67.389      -41.932        1.195       29.427       19.690       16.128      865.974      387.690      260.100        0.391        0.076       79.370       10.295        0.017      338.140       10.587      860.294
10/19/2014  00:01:00      -95.897      -53.846      -11.039       12.732       15.071       10.995      162.103      227.146      120.883        0.636        0.026      109.980        6.423        0.003      338.140       10.588      860.285
10/19/2014  00:02:00      -89.227      -35.704      -17.544       13.772       14.142        8.133      189.655      199.990       66.142        0.500        0.023       96.105        7.892        0.007      338.140       10.589      860.273
10/19/2014  00:03:00      -81.986      -50.404      -15.046       10.711       15.401       12.181      114.732      237.188      148.387        0.499        0.025       96.241        7.301        0.006      338.155       10.612      860.274
10/19/2014  00:04:00      -77.363      -21.020      -12.008       13.458       15.645        9.560      181.119      244.774       91.394        0.354        0.026       80.168        3.757        0.002      338.096       10.515      860.280
10/19/2014  00:05:00      -79.892      -15.480      -10.880       13.807       15.766        9.022      190.639      248.568       81.402        0.363        0.026       81.378        7.083        0.008      338.104       10.530      860.280
10/19/2014  00:06:00      -89.239      -28.250      -12.059       23.209       13.671       10.265      538.665      186.903      105.365        0.487        0.042       93.604        9.106        0.009      338.083       10.494      860.271
10/19/2014  00:07:00     -104.084      -30.373      -10.745       16.675       14.214       10.851      278.050      202.031      117.752        0.623        0.030      108.425        7.099        0.004      338.079       10.487      860.258
10/19/2014  00:08:00     -102.624      -38.617       -9.457       11.109       10.563        7.797      123.412      111.580       60.796        0.620        0.015      109.649        5.746        0.003      338.053       10.444      860.261
10/19/2014  00:09:00      -82.992      -49.390       -8.476       22.010       12.677       10.843      484.437      160.708      117.571        0.508        0.038       96.576        4.764        0.002      338.071       10.474      860.266
10/19/2014  00:10:00      -93.932      -49.028      -14.206       10.920        9.767       10.677      119.252       95.394      113.998        0.588        0.016      105.958        5.455        0.003      338.037       10.418      860.261
10/19/2014  00:11:00     -100.911      -52.184       -7.839       13.044       10.116       11.191      170.139      102.335      125.249        0.668        0.020      113.605        7.864        0.005      338.065       10.462      860.264
10/19/2014  00:12:00      -78.648      -60.942       -5.657       27.815       20.410       14.774      773.665      416.573      218.283        0.567        0.070       99.496        9.213        0.009      338.087       10.500      860.278
10/19/2014  00:13:00      -50.643      -51.865       -6.183       35.577       26.378       15.642     1265.720      695.813      244.673        0.375        0.110       72.489       14.866        0.042      338.066       10.465      860.295
10/19/2014  00:14:00      -67.150      -60.783       -3.076       26.575       21.945       15.060      706.204      481.587      226.810        0.481        0.071       90.574        8.165        0.008      338.074       10.477      860.297
10/19/2014  00:15:00      -67.715      -39.326        3.838       42.175       27.218       18.468     1778.769      740.795      341.072        0.450        0.143       78.306       21.446        0.075      338.016       10.381      860.298
10/19/2014  00:16:00      -60.486      -47.793       -3.225       22.469       24.250       13.882      504.847      588.058      192.701        0.362        0.064       77.089        7.338        0.009      337.979       10.320      860.303
10/19/2014  00:17:00      -38.374      -34.738        2.065       27.394       23.696       17.687      750.420      561.499      312.817        0.215        0.081       51.762       13.872        0.072      337.931       10.238      860.314
10/19/2014  00:18:00      -70.735      -33.976       -0.175       23.748       22.255       12.436      563.976      495.299      154.653        0.369        0.061       78.471        8.233        0.011      337.945       10.263      860.328
10/19/2014  00:19:00      -64.899      -33.690       -0.633       20.192       18.387       10.498      407.732      338.073      110.202        0.310        0.043       73.123        9.042        0.015      337.979       10.319      860.329
10/19/2014  00:20:00      -62.732      -29.450       -3.380       16.018       10.562        7.440      256.581      111.561       55.352        0.262        0.021       69.300        7.489        0.012      337.910       10.203      860.333
10/19/2014  00:21:00      -92.221      -27.263      -12.869        9.782       11.225        8.240       95.694      126.008       67.889        0.485        0.014       96.167        4.844        0.003      338.000       10.354      860.322
10/19/2014  00:22:00      -84.011      -17.887      -11.140       27.154       17.726       12.005      737.350      314.227      144.131        0.435        0.060       85.894       14.033        0.027      337.961       10.289      860.318
10/19/2014  00:23:00      -98.536      -38.461      -11.684       11.074       13.053        7.850      122.629      170.369       61.624        0.584        0.018      105.776        3.354        0.001      337.955       10.279      860.317
10/19/2014  00:24:00      -86.329      -28.758      -10.241       13.724       14.223       10.041      188.343      202.280      100.818        0.444        0.025       90.993        3.697        0.002      337.904       10.193      860.311
10/19/2014  00:25:00      -97.797      -34.812       -7.350       15.143       13.254        8.597      229.296      175.663       73.915        0.565        0.024      103.808        5.898        0.003      337.895       10.178      860.305
10/19/2014  00:26:00      -92.699      -48.447       -6.043       19.895       16.753       15.909      395.810      280.657      253.086        0.595        0.046      104.596       11.153        0.011      337.881       10.155      860.302
10/19/2014  00:27:00      -97.256      -49.783       -6.229       16.238       16.145       10.274      263.663      260.659      105.546        0.630        0.031      109.257        5.508        0.003      337.868       10.134      860.302
10/19/2014  00:28:00      -92.296      -35.817      -14.738       13.308       10.153        9.528      177.097      103.076       90.786        0.519        0.019       99.002        5.073        0.003      337.854       10.108      860.302
10/19/2014  00:29:00      -91.751      -39.886      -17.663        9.119        8.699        7.957       83.160       75.666       63.318        0.527        0.011      100.046        3.654        0.001      337.855       10.111      860.311
10/19/2014  00:30:00     -107.946      -30.537      -14.383       14.049       14.978       11.487      197.379      224.327      131.962        0.667        0.028      112.182        8.938        0.006      337.839       10.083      860.311
10/19/2014  00:31:00      -98.785      -52.765      -10.105        9.135       10.689        9.235       83.457      114.253       85.286        0.646        0.014      111.994        4.612        0.002      337.835       10.078      860.312
10/19/2014  00:32:00     -115.129      -38.498      -16.482       14.954       16.659       13.135      223.622      277.517      172.540        0.784        0.034      121.395        8.161        0.005      337.790       10.002      860.304
10/19/2014  00:33:00     -131.404      -37.887      -20.320       14.066       18.372       13.719      197.846      337.527      188.212        0.992        0.036      136.756       11.940        0.008      337.644        9.758      860.300
10/19/2014  00:34:00      -68.042       -4.678       -8.705       36.846       37.409       16.162     1357.631     1399.436      261.204        0.387        0.151       68.203       18.775        0.076      337.740        9.917      860.296
10/19/2014  00:35:00      -90.332        1.315       -3.374       62.255       54.337       31.884     3875.686     2952.455     1016.621        0.801        0.392       90.341       37.119        0.169      337.734        9.908      860.295
10/19/2014  00:36:00     -123.707      -11.786      -12.858       49.471       42.699       26.012     2447.371     1823.169      676.634        1.028        0.247      124.267       21.459        0.030      337.761        9.954      860.278
10/19/2014  00:37:00     -141.726       17.758      -16.985       42.134       37.792       26.185     1775.268     1428.201      685.651        1.229        0.194      142.834       11.601        0.007      337.729        9.900      860.267
10/19/2014  00:38:00      -86.946        5.764       -9.245       33.145       27.676       18.663     1098.611      765.963      348.324        0.495        0.111       87.136        3.470        0.002      337.754        9.941      860.278
10/19/2014  00:39:00     -115.222       15.777      -17.172       30.643       31.262       18.510      939.019      977.319      342.637        0.804        0.113      116.297       11.229        0.009      337.859       10.117      860.284
10/19/2014  00:40:00      -78.045        5.673       -6.015       51.452       29.748       24.096     2647.266      884.921      580.598        0.514        0.206       78.251       15.736        0.040      337.857       10.114      860.278
10/19/2014  00:41:00      -62.959      -13.801       -6.344       30.318       27.702       16.734      919.160      767.416      280.041        0.308        0.098       64.454       13.410        0.043      337.808       10.031      860.268
10/19/2014  00:42:00      -91.312      -36.146       -4.637       32.765       33.588       18.872     1073.569     1128.172      356.171        0.611        0.128       98.206       11.708        0.014      337.799       10.017      860.257
10/19/2014  00:43:00     -132.842      -53.063      -11.088       24.295       38.302       24.892      590.263     1467.081      619.617        1.163        0.134      143.048       16.396        0.013      337.733        9.906      860.246
10/19/2014  00:44:00     -136.979      -45.749      -10.258       35.521       37.081       22.442     1261.765     1374.987      503.627        1.205        0.157      144.417       12.477        0.007      337.739        9.916      860.253
10/19/2014  00:45:00     -117.752      -46.426       -8.020       26.907       36.589       19.833      724.011     1338.747      393.344        0.927        0.123      126.574       12.582        0.010      337.720        9.886      860.260
10/19/2014  00:46:00     -121.315      -40.708       -5.880       51.029       38.771       20.854     2603.987     1503.225      434.898        1.047        0.227      127.963       25.040        0.038      337.701        9.852      860.266
10/19/2014  00:47:00      -99.278      -36.146        0.885       50.944       24.423       21.733     2595.254      596.467      472.344        0.741        0.183      105.654       15.618        0.022      337.715        9.875      860.272
10/19/2014  00:48:00     -101.981      -89.552       -4.176       47.702       30.220       19.526     2275.442      913.270      381.250        1.100        0.178      135.719       20.691        0.023      337.902       10.189      860.283
10/19/2014  00:49:00     -104.733      -67.140       -1.315       35.066       31.783       19.890     1229.611     1010.175      395.623        0.906        0.132      124.406       16.433        0.017      337.873       10.143      860.278
10/19/2014  00:50:00      -79.731      -54.041       -4.147       31.100       22.239       16.862      967.211      494.552      284.316        0.552        0.087       96.319       15.698        0.027      337.748        9.931      860.269
10/19/2014  00:51:00      -29.859      -18.478        4.352       18.992       12.714       10.785      360.711      161.643      116.324        0.095        0.032       35.114        9.530        0.074      337.729        9.900      860.271
10/19/2014  00:52:00      -20.131      -16.050        0.944       24.180       15.283       13.971      584.694      233.572      195.193        0.084        0.051       25.746       16.514        0.411      337.882       10.155      860.276
10/19/2014  00:53:00        1.487      -27.870        4.825       23.128       16.506       15.200      534.923      272.454      231.049        0.092        0.052       27.910       15.823        0.321      337.901       10.188      860.257
10/19/2014  00:54:00      -58.966      -20.118       -4.865       27.077       16.203       11.639      733.173      262.523      135.463        0.252        0.057       62.304       13.210        0.045      337.877       10.149      860.252
10/19/2014  00:55:00      -59.787      -23.432       -7.739       17.293       14.339       11.684      299.053      205.612      136.518        0.241        0.032       64.215       11.291        0.031      337.901       10.186      860.250
10/19/2014  00:56:00      -79.904      -51.494       -4.691       16.878       13.516       11.546      284.877      182.670      133.303        0.483        0.030       95.059        8.045        0.007      337.889       10.168      860.266
10/19/2014  00:57:00      -31.684      -35.597       -5.743       47.714       13.094       13.537     2276.660      171.452      183.245        0.247        0.132       47.655       16.727        0.123      337.927       10.233      860.276
10/19/2014  00:58:00      -15.251      -23.012       -8.937       11.886       14.161        8.295      141.274      200.528       68.811        0.063        0.021       27.607        8.025        0.085      337.909       10.201      860.288
10/19/2014  00:59:00      -31.578        1.162       -0.225        7.047        5.744        7.872       49.665       32.990       61.967        0.057        0.007       31.600        3.771        0.014      337.992       10.341      860.299
10/19/2014  01:00:00      -38.210        5.162        7.919        6.037        7.766        7.441       36.443       60.303       55.365        0.085        0.008       38.558        3.459        0.008      337.974       10.311      860.305
10/19/2014  01:01:00      -24.163      -23.300        2.633       16.192       10.107        5.929      262.189      102.157       35.152        0.077        0.020       33.567        3.546        0.011      337.920       10.221      860.301
10/19/2014  01:02:00      -60.051      -22.816       -5.112        9.944        8.159        7.218       98.883       66.565       52.093        0.219        0.011       64.239        3.474        0.003      337.909       10.201      860.293
10/19/2014  01:03:00        4.324      -22.175        5.841       14.400       12.917       10.736      207.363      166.837      115.262        0.052        0.024       22.592        7.900        0.122      337.791       10.005      860.296
10/19/2014  01:04:00      -23.015      -36.146       10.311       32.947       30.963       13.841     1085.476      958.680      191.565        0.209        0.112       42.852       18.720        0.191      337.764        9.958      860.299
10/19/2014  01:05:00      -53.931      -54.108       -3.512       23.774       29.585       16.919      565.187      875.251      286.237        0.379        0.086       76.395       12.995        0.029      337.816       10.046      860.302
10/19/2014  01:06:00      -24.712      -66.787        1.547       33.303       34.656       23.981     1109.107     1201.071      575.108        0.398        0.144       71.213       12.268        0.030      337.744        9.924      860.312
10/19/2014  01:07:00      -43.382      -51.283       15.289       50.870       46.682       26.174     2587.733     2179.170      685.078        0.510        0.273       67.171       27.258        0.165      337.617        9.713      860.315
10/19/2014  01:08:00      -25.378      -58.848        2.333       35.472       32.766       25.111     1258.239     1073.609      630.587        0.354        0.148       64.087       12.772        0.040      337.688        9.833      860.324
10/19/2014  01:09:00     -106.394      -82.931       -9.782       65.644       43.584       28.563     4309.158     1899.594      815.838        1.266        0.351      134.897       21.399        0.025      337.586        9.659      860.327
10/19/2014  01:10:00      -66.925      -49.143       11.385       48.510       43.630       27.594     2353.259     1903.557      761.444        0.602        0.251       83.030       24.947        0.090      337.420        9.380      860.316
10/19/2014  01:11:00     -118.280      -66.827        2.865       62.976       46.532       27.372     3966.015     2165.191      749.217        1.267        0.344      135.853       28.390        0.044      337.355        9.273      860.298
10/19/2014  01:12:00     -113.750      -76.447       -5.650       38.294       24.597       19.585     1466.437      604.997      383.590        1.063        0.123      137.052       13.706        0.010      337.438        9.413      860.285
10/19/2014  01:13:00      -92.438      -79.066       -0.858       41.859       45.876       24.412     1752.145     2104.572      595.923        0.962        0.223      121.639       19.629        0.026      337.468        9.462      860.295
10/19/2014  01:14:00     -134.954     -128.561      -10.394       41.489       41.068       27.190     1721.342     1686.592      739.317        1.950        0.207      186.388       23.088        0.015      337.545        9.589      860.314
10/19/2014  01:15:00     -108.715      -60.664       -3.078       30.865       32.219       17.779      952.673     1038.054      316.092        0.891        0.115      124.496       16.585        0.018      337.570        9.633      860.310
10/19/2014  01:16:00      -91.065      -26.675       -9.035       26.349       26.684       12.788      694.285      712.054      163.545        0.533        0.078       94.891       13.371        0.020      337.623        9.722      860.292
10/19/2014  01:17:00      -63.017      -34.056        3.687       36.259       23.106       17.736     1314.693      533.869      314.550        0.365        0.108       71.631       10.906        0.023      337.555        9.608      860.304
10/19/2014  01:18:00      -33.850      -48.458        5.580       51.513       29.636       25.871     2653.634      878.285      669.292        0.386        0.210       59.110       29.889        0.256      337.617        9.712      860.328
10/19/2014  01:19:00     -101.756      -71.014        2.980       65.419       32.799       30.336     4279.655     1075.800      920.295        1.084        0.314      124.086       36.293        0.086      337.534        9.573      860.321
10/19/2014  01:20:00     -148.180      -71.537       -6.961       24.777       31.023       18.896      613.891      962.431      357.067        1.453        0.097      164.545        7.153        0.002      337.431        9.400      860.309
10/19/2014  01:21:00      -94.053      -74.502       -4.593       52.096       35.194       26.230     2713.943     1238.629      688.032        0.953        0.232      119.985       19.591        0.027      337.418        9.379      860.317
10/19/2014  01:22:00      -63.533      -34.244        5.874       33.328       24.381       17.869     1110.751      594.441      319.287        0.363        0.101       72.174       17.080        0.056      337.420        9.381      860.327
10/19/2014  01:23:00      -64.008       -4.593       -4.871       19.923       15.322       14.137      396.942      234.772      199.862        0.249        0.042       64.173        9.320        0.021      337.361        9.283      860.329
10/19/2014  01:24:00      -75.272       -0.162       -7.597       28.031       19.994       13.983      785.712      399.752      195.521        0.355        0.069       75.272       12.951        0.030      337.338        9.245      860.326
10/19/2014  01:25:00     -147.981        1.090      -13.966       39.210       22.718       19.464     1537.447      516.100      378.839        1.226        0.122      147.985       19.698        0.018      337.201        9.014      860.298
10/19/2014  01:26:00      -99.081      -17.063       -0.209       51.381       30.028       22.441     2639.989      901.686      503.617        0.708        0.202      100.539       22.681        0.051      337.134        8.902      860.303
10/19/2014  01:27:00      -85.760      -19.075       -6.756       25.523       18.202       15.020      651.403      331.307      225.596        0.449        0.060       87.856        9.932        0.013      337.234        9.071      860.332
10/19/2014  01:28:00     -132.166        7.501      -14.062       36.086       18.170       11.772     1302.167      330.138      138.581        0.975        0.089      132.379       14.199        0.012      337.234        9.071      860.339
10/19/2014  01:29:00     -164.963      -36.081      -12.728       32.053       35.227       16.166     1027.373     1240.945      261.336        1.560        0.126      168.863       17.950        0.011      337.176        8.974      860.325
10/19/2014  01:30:00     -103.782      -61.906        0.355       59.064       28.871       24.679     3488.547      833.523      609.047        0.977        0.247      120.843       29.687        0.060      337.258        9.111      860.327
10/19/2014  01:31:00      -58.986      -36.286        6.803       58.887       27.155       26.939     3467.721      737.392      725.721        0.489        0.247       69.253       31.825        0.211      337.217        9.043      860.331
10/19/2014  01:32:00     -123.138      -12.957      -13.415       30.527       23.896       14.972      931.925      571.033      224.154        0.862        0.086      123.817       10.806        0.008      337.200        9.016      860.335
10/19/2014  01:33:00     -128.631      -17.154      -11.107       28.102       23.651       18.353      789.723      559.348      336.830        0.932        0.084      129.770       12.779        0.010      337.131        8.897      860.339
10/19/2014  01:34:00     -141.383      -22.732      -14.257       30.775       30.820       21.073      947.070      949.874      444.057        1.152        0.117      143.198       16.448        0.013      337.203        9.018      860.339
10/19/2014  01:35:00      -64.947       -8.637        5.323       35.246       37.432       23.263     1242.253     1401.190      541.167        0.375        0.159       65.519       20.588        0.099      337.150        8.930      860.332
10/19/2014  01:36:00     -112.912      -23.637       -6.703       26.203       27.181       18.017      686.591      738.785      324.619        0.755        0.087      115.360       16.275        0.020      337.135        8.905      860.326
10/19/2014  01:37:00     -110.431      -17.853       -6.704       26.385       22.492       19.542      696.144      505.875      381.873        0.707        0.079      111.865       14.794        0.017      337.122        8.881      860.326
10/19/2014  01:38:00     -114.046      -47.040       -3.621       34.735       25.250       21.370     1206.550      637.559      456.658        0.877        0.115      123.366       18.864        0.023      337.135        8.905      860.321
10/19/2014  01:39:00     -144.326      -37.979      -12.394       28.052       26.492       16.158      786.933      701.816      261.067        1.209        0.087      149.240       12.016        0.006      337.153        8.936      860.297
10/19/2014  01:40:00     -109.732      -40.879       -5.621       22.456       29.139       18.442      504.277      849.056      340.118        0.772        0.085      117.099       13.247        0.013      337.139        8.912      860.281
10/19/2014  01:41:00     -110.455      -22.008      -10.486       21.867       20.633       12.972      478.161      425.721      168.265        0.693        0.054      112.626       11.511        0.010      337.065        8.788      860.281
10/19/2014  01:42:00      -70.691      -22.404       -4.713       26.016       18.036       14.156      676.814      325.280      200.404        0.336        0.060       74.156       15.115        0.042      337.030        8.729      860.280
10/19/2014  01:43:00      -22.925      -30.497        0.213       28.707       16.506       17.377      824.106      272.456      301.972        0.143        0.070       38.152       16.855        0.195      337.128        8.893      860.282
10/19/2014  01:44:00      -69.440      -14.051       -2.773       35.302       15.409       17.298     1246.249      237.433      299.233        0.340        0.089       70.847       19.406        0.075      337.046        8.755      860.274
10/19/2014  01:45:00     -106.788      -11.783      -14.794       20.768       13.299       13.582      431.304      176.868      184.475        0.628        0.040      107.436       11.773        0.012      337.017        8.706      860.267
10/19/2014  01:46:00     -112.268      -29.825      -18.897       19.639       20.851       15.856      385.672      434.772      251.428        0.746        0.054      116.163       10.596        0.008      336.983        8.649      860.266
10/19/2014  01:47:00     -100.098      -37.068      -19.147       12.245       11.020        8.943      149.942      121.442       79.983        0.606        0.018      106.741        5.929        0.003      337.003        8.683      860.267
10/19/2014  01:48:00     -100.489      -45.521      -13.380       17.359       12.863       11.653      301.343      165.468      135.799        0.648        0.030      110.319        6.315        0.003      337.035        8.737      860.262
10/19/2014  01:49:00     -120.177      -33.217      -16.680        9.386       10.703        8.180       88.104      114.555       66.907        0.805        0.013      124.683        5.456        0.002      337.022        8.714      860.259
10/19/2014  01:50:00      -91.410      -46.411       -4.041       31.531       21.877       17.260      994.215      478.585      297.916        0.615        0.089      102.518       16.121        0.025      337.128        8.892      860.259
10/19/2014  01:51:00      -73.344      -45.443       -6.625       42.696       24.717       17.289     1822.919      610.920      298.921        0.511        0.137       86.280       15.851        0.034      337.093        8.834      860.261
10/19/2014  01:52:00      -38.701      -43.063        4.070       42.202       32.117       18.691     1780.974     1031.497      349.335        0.326        0.158       57.898       18.546        0.103      337.070        8.795      860.266
10/19/2014  01:53:00      -55.940      -52.473       -2.004       23.054       19.140       16.409      531.478      366.355      269.247        0.353        0.058       76.699        7.149        0.009      337.153        8.934      860.270
10/19/2014  01:54:00      -66.578      -61.188       -6.709       34.588       27.518       18.177     1196.312      757.230      330.401        0.525        0.114       90.425       17.281        0.037      337.192        9.000      860.273
10/19/2014  01:55:00      -56.926      -47.573        2.485       32.109       17.493       17.191     1030.987      305.993      295.546        0.357        0.082       74.187       18.390        0.061      337.185        8.989      860.265
10/19/2014  01:56:00        0.668      -35.459       -1.275       12.424       13.747       16.458      154.344      188.976      270.879        0.094        0.031       35.465        5.879        0.027      337.219        9.047      860.264
10/19/2014  01:57:00       -9.374      -17.049        2.843       13.635       14.235       12.423      185.922      202.625      154.332        0.046        0.027       19.456        4.335        0.050      337.246        9.090      860.275
10/19/2014  01:58:00      -68.765      -49.324       -5.288       20.188       18.026       14.013      407.546      324.922      196.358        0.406        0.046       84.626        9.119        0.012      337.220        9.046      860.289
10/19/2014  01:59:00      -44.252      -31.275       -1.217       20.539       16.468       13.055      421.857      271.191      170.423        0.190        0.043       54.188       11.698        0.047      337.208        9.027      860.292
10/19/2014  02:00:00      -20.928      -17.677        3.631       21.915       12.577       13.504      480.260      158.187      182.351        0.079        0.041       27.395       12.137        0.196      337.145        8.922      860.286
10/19/2014  02:01:00      -43.526      -19.465        1.057       15.044        8.548        8.096      226.328       73.065       65.541        0.132        0.018       47.680        7.895        0.027      337.121        8.879      860.283
10/19/2014  02:02:00      -56.485      -14.445      -12.818        5.337        7.109        6.241       28.482       50.537       38.949        0.184        0.006       58.303        1.764        0.001      337.139        8.910      860.289
10/19/2014  02:03:00      -60.157      -17.635      -10.368        7.560        7.579        6.371       57.156       57.443       40.590        0.210        0.008       62.689        2.860        0.002      337.142        8.914      860.283
10/19/2014  02:04:00      -64.257       -4.734       -4.832       22.818       11.625        9.309      520.643      135.130       86.664        0.246        0.037       64.431        8.638        0.018      337.086        8.822      860.271
10/19/2014  02:05:00      -74.714      -14.352       -5.597       14.039        8.470        8.307      197.100       71.739       69.011        0.308        0.017       76.079        7.007        0.008      337.082        8.816      860.268
10/19/2014  02:06:00      -39.746      -20.922       -4.488       11.377        8.499        6.147      129.428       72.232       37.786        0.114        0.012       44.916        4.722        0.011      337.108        8.858      860.278
10/19/2014  02:07:00      -38.914      -25.225       -0.158       14.177       13.796        9.851      200.995      190.320       97.036        0.132        0.024       46.375        8.388        0.033      337.144        8.920      860.288
10/19/2014  02:08:00      -46.256      -26.339       -0.324       13.752        9.250        7.165      189.130       85.567       51.340        0.158        0.016       53.229        5.427        0.010      337.162        8.950      860.291
10/19/2014  02:09:00      -36.122      -18.306       -4.152       21.045       11.220        5.393      442.875      125.885       29.089        0.113        0.030       40.496        6.627        0.027      337.143        8.917      860.284
10/19/2014  02:10:00      -40.818      -19.878        0.980       21.824       16.509        9.204      476.273      272.563       84.715        0.145        0.042       45.401        5.748        0.016      337.055        8.770      860.279
10/19/2014  02:11:00      -46.012      -18.409        0.183       14.729        9.492        7.457      216.938       90.100       55.611        0.141        0.018       49.558        1.927        0.002      337.022        8.715      860.264
10/19/2014  02:12:00      -62.558      -12.139       -2.215       18.738       15.944       13.439      351.103      254.209      180.605        0.243        0.039       63.725        7.574        0.014      337.084        8.818      860.258
10/19/2014  02:13:00      -62.078      -15.683       -4.688       23.751       15.014       13.773      564.121      225.418      189.705        0.255        0.049       64.028        9.615        0.023      337.128        8.894      860.266
10/19/2014  02:14:00      -81.609      -23.451       -5.499       26.925       23.813       14.492      724.935      567.053      210.015        0.437        0.075       84.911        9.879        0.014      337.063        8.783      860.271
10/19/2014  02:15:00      -63.060      -39.001       -2.175       33.931       26.479       16.540     1151.301      701.164      273.577        0.381        0.106       74.146        6.008        0.007      337.079        8.809      860.271
10/19/2014  02:16:00      -77.005      -48.758      -10.377       29.894       26.704       15.239      893.633      713.109      232.213        0.513        0.092       91.144        6.060        0.004      337.138        8.911      860.284
10/19/2014  02:17:00      -67.395      -53.313        8.005       52.075       45.588       28.278     2711.824     2078.225      799.642        0.652        0.279       85.932       29.404        0.117      337.064        8.784      860.295
10/19/2014  02:18:00      -83.450      -71.885        2.908       57.187       45.991       28.622     3270.343     2115.192      819.210        0.917        0.310      110.142       23.392        0.045      337.093        8.832      860.306
10/19/2014  02:19:00     -125.827     -108.434       -3.954       48.021       35.811       28.852     2305.977     1282.398      832.444        1.601        0.221      166.104       22.613        0.019      337.067        8.790      860.330
10/19/2014  02:20:00     -154.672      -81.592       -5.421       39.414       28.095       22.985     1553.480      789.321      528.330        1.674        0.144      174.873       22.446        0.016      336.987        8.654      860.344
10/19/2014  02:21:00     -124.977      -52.664        0.610       48.921       42.546       24.967     2393.260     1810.180      623.376        1.161        0.241      135.619       24.726        0.033      336.878        8.475      860.367
10/19/2014  02:22:00     -150.557      -17.090       -4.605       69.211       60.521       33.894     4790.123     3662.742     1148.782        1.629        0.480      151.524       36.969        0.060      336.711        8.196      860.380
10/19/2014  02:23:00     -122.339      -32.742        0.197       64.629       46.153       35.214     4176.877     2130.117     1240.040        1.179        0.377      126.645       33.415        0.070      336.683        8.150      860.383
10/19/2014  02:24:00     -126.293      -45.812       -6.306       41.080       34.163       20.432     1687.563     1167.078      417.448        1.068        0.164      134.346       13.619        0.010      336.803        8.350      860.380
10/19/2014  02:25:00     -116.265       -9.589       -5.577       36.092       36.087       18.097     1302.664     1302.245      327.496        0.829        0.147      116.659       14.718        0.016      336.767        8.290      860.376
10/19/2014  02:26:00     -100.536      -17.538       -6.272       34.622       30.635       17.470     1198.664      938.507      305.195        0.645        0.122      102.054       10.161        0.010      336.851        8.429      860.375
10/19/2014  02:27:00      -76.411       -0.093       -4.998       35.259       22.152       18.689     1243.165      490.702      349.277        0.397        0.104       76.411       17.208        0.051      336.823        8.382      860.358
10/19/2014  02:28:00      -67.404       -1.313       -5.623       37.561       22.125       18.932     1410.855      489.536      358.437        0.342        0.113       67.417       16.890        0.063      337.014        8.702      860.345
10/19/2014  02:29:00      -83.417        5.161       -5.846       34.327       17.111       15.473     1178.318      292.775      239.425        0.436        0.086       83.577       12.639        0.023      337.173        8.968      860.324
10/19/2014  02:30:00      -46.868       -6.114       -8.827       23.288       21.186       15.321      542.353      448.847      234.737        0.177        0.061       47.265       10.815        0.052      337.255        9.105      860.317
10/19/2014  02:31:00      -34.580        6.876       -3.507       26.812       20.606       13.084      718.861      424.588      171.185        0.128        0.066       35.257       14.686        0.174      337.320        9.213      860.310
10/19/2014  02:32:00      -41.584       29.747       -3.987       19.989       21.409       17.563      399.547      458.327      308.465        0.190        0.058       51.129       12.244        0.057      337.590        9.666      860.303
10/19/2014  02:33:00      -55.392        2.920       -7.243       19.956       26.509       15.219      398.224      702.751      231.632        0.223        0.067       55.469        9.362        0.028      337.501        9.517      860.297
10/19/2014  02:34:00      -52.988      -25.204       -3.034       28.421       22.626       17.190      807.731      511.941      295.480        0.253        0.081       58.677       11.094        0.036      337.000        8.680      860.302
10/19/2014  02:35:00      -74.402      -53.228        2.163       61.727       43.531       34.251     3810.188     1894.917     1173.108        0.762        0.344       91.481       26.217        0.082      336.840        8.413      860.320
10/19/2014  02:36:00     -124.587      -50.896        0.281       55.541       41.402       30.970     3084.827     1714.119      959.149        1.193        0.288      134.582       21.922        0.027      336.755        8.271      860.329
10/19/2014  02:37:00     -123.061     -106.530       -6.520       46.330       57.086       34.063     2146.493     3258.855     1160.289        1.655        0.328      162.766       30.204        0.034      336.802        8.348      860.338
10/19/2014  02:38:00     -148.291      -77.319       -2.751       43.872       38.934       33.119     1924.713     1515.837     1096.865        1.626        0.227      167.238       30.632        0.034      336.814        8.368      860.340
10/19/2014  02:39:00     -124.002      -80.704       -7.235       51.142       39.036       24.160     2615.507     1523.774      583.695        1.333        0.236      147.951       21.328        0.021      336.859        8.445      860.342
10/19/2014  02:40:00     -117.006      -73.428        3.819       53.336       47.634       26.939     2844.706     2269.012      725.698        1.247        0.292      138.138       27.266        0.039      336.914        8.534      860.343
10/19/2014  02:41:00     -108.027      -52.072        0.977       37.203       36.660       23.428     1384.096     1343.942      548.869        0.883        0.164      119.922       20.867        0.030      336.915        8.538      860.345
10/19/2014  02:42:00      -95.389      -18.763       -2.064       26.545       21.307       16.408      704.621      453.991      269.211        0.544        0.071       97.217       10.202        0.011      337.013        8.699      860.345
10/19/2014  02:43:00      -96.029      -50.171       -2.608       42.135       31.225       20.113     1775.370      975.015      404.530        0.745        0.158      108.345       22.501        0.043      337.043        8.749      860.343
10/19/2014  02:44:00     -105.235      -40.612      -11.006       20.881       30.383       15.712      436.012      923.120      246.866        0.723        0.080      112.799       12.822        0.013      337.011        8.696      860.334
10/19/2014  02:45:00     -122.407      -16.584       -5.906       22.743       21.437       14.962      517.259      459.551      223.869        0.825        0.060      123.525       12.354        0.010      336.934        8.567      860.331
10/19/2014  02:46:00      -96.629      -18.349       -5.821       37.628       23.172       15.832     1415.841      536.946      250.637        0.596        0.110       98.356       19.214        0.038      336.915        8.537      860.316
10/19/2014  02:47:00      -94.516      -18.502        0.550       24.660       23.328       14.939      608.101      544.190      223.180        0.533        0.069       96.310       12.360        0.016      336.887        8.489      860.301
10/19/2014  02:48:00     -133.037      -12.748      -12.885       41.303       19.570       20.168     1705.974      382.979      406.763        1.026        0.125      133.647       22.889        0.029      336.773        8.300      860.288
10/19/2014  02:49:00     -148.546      -21.272      -12.711       31.106       28.381       15.109      967.559      805.471      228.268        1.234        0.100      150.061       13.618        0.008      336.866        8.456      860.275
10/19/2014  02:50:00     -137.436      -45.466      -16.337       17.208       16.408       12.773      296.104      269.212      163.142        1.098        0.036      144.761       11.944        0.007      336.737        8.242      860.271
10/19/2014  02:51:00      -89.832      -51.052      -17.113       23.688       21.785       16.873      561.100      474.567      284.689        0.614        0.066      103.325        7.678        0.006      336.750        8.264      860.255
10/19/2014  02:52:00      -34.065       -6.064       -5.080       27.657       19.607       17.925      764.907      384.436      321.306        0.135        0.074       34.600       11.268        0.106      336.717        8.209      860.250
10/19/2014  02:53:00        4.859      -13.709        4.763       13.892       15.646       12.562      192.980      244.793      157.812        0.041        0.030       14.544       10.544        0.526      336.704        8.186      860.251
10/19/2014  02:54:00      -40.798      -38.042        5.878       43.885       30.887       24.713     1925.900      953.978      610.730        0.332        0.175       55.782       26.312        0.222      336.687        8.158      860.252
10/19/2014  02:55:00      -43.748      -60.210       13.585       46.943       38.913       32.748     2203.673     1514.217     1072.438        0.526        0.240       74.425       33.425        0.202      336.688        8.158      860.252
10/19/2014  02:56:00     -100.794      -47.477       -3.666       29.745       18.265       19.423      884.782      333.620      377.251        0.701        0.080      111.416       18.188        0.027      336.631        8.064      860.241
10/19/2014  02:57:00     -121.307      -47.068       -6.438       14.174       19.610       10.424      200.899      384.570      108.661        0.883        0.035      130.118        8.075        0.004      336.785        8.322      860.226
10/19/2014  02:58:00      -73.297      -51.859        3.484       48.645       29.976       15.626     2366.381      898.568      244.169        0.579        0.175       89.788       20.779        0.054      336.734        8.236      860.213
10/19/2014  02:59:00      -82.206      -41.461       -4.745       45.336       32.436       19.286     2055.318     1052.084      371.966        0.599        0.174       92.070       18.653        0.041      336.774        8.303      860.206
10/19/2014  03:00:00     -104.869      -53.546        1.044       40.710       36.590       26.247     1657.321     1338.828      688.923        0.877        0.184      117.748       24.528        0.043      336.817        8.374      860.201
10/19/2014  03:01:00     -103.143      -77.932      -12.735       27.672       30.328       19.774      765.751      919.767      391.014        0.947        0.104      129.275        9.417        0.005      336.821        8.380      860.193
10/19/2014  03:02:00      -79.998      -36.439       -4.159       35.600       35.325       21.338     1267.342     1247.877      455.291        0.536        0.149       87.906       17.543        0.040      336.727        8.225      860.198
10/19/2014  03:03:00      -56.572      -40.856        1.994       56.869       40.111       15.336     3234.084     1608.893      235.207        0.498        0.254       69.783        8.618        0.015      336.789        8.328      860.196
10/19/2014  03:04:00      -55.185        4.248       -1.147       27.828       26.371       19.143      774.420      695.414      366.454        0.245        0.092       55.348       15.305        0.076      336.705        8.188      860.190
10/19/2014  03:05:00      -51.898      -32.258      -10.365       40.112       27.630       17.673     1609.008      763.390      312.340        0.326        0.134       61.107       12.281        0.040      336.736        8.240      860.177
10/19/2014  03:06:00      -36.643      -26.919        4.924       47.943       26.695       20.044     2298.544      712.638      401.764        0.275        0.171       45.468       22.755        0.250      336.681        8.146      860.169
10/19/2014  03:07:00      -91.907      -82.680        5.655       36.345       34.157       25.284     1320.964     1166.704      639.265        0.922        0.156      123.624       19.633        0.025      336.570        7.962      860.155
10/19/2014  03:08:00     -102.478      -88.101      -10.368       30.606       30.255       16.038      936.724      915.347      257.215        1.024        0.105      135.143       14.596        0.012      336.633        8.067      860.133
10/19/2014  03:09:00      -73.983      -68.348       -8.695       31.329       26.566       21.845      981.478      705.746      477.190        0.619        0.108      100.723       20.448        0.041      336.677        8.140      860.108
10/19/2014  03:10:00      -67.686      -56.127       -0.847       27.131       35.859       17.684      736.082     1285.864      312.708        0.503        0.117       87.930       14.908        0.029      336.635        8.070      860.098
10/19/2014  03:11:00      -85.390      -60.073        2.089       33.932       23.885       15.234     1151.388      570.486      232.077        0.643        0.098      104.404       13.052        0.016      336.642        8.083      860.101
10/19/2014  03:12:00      -78.264      -63.682        1.290       39.558       31.220       20.777     1564.848      974.680      431.698        0.658        0.149      100.900       20.920        0.043      336.565        7.952      860.093
10/19/2014  03:13:00      -83.464      -57.802       -1.360       39.070       29.355       22.732     1526.449      861.710      516.756        0.661        0.145      101.525       20.509        0.041      336.581        7.980      860.087
10/19/2014  03:14:00      -80.429      -50.106       -3.637       49.346       40.316       24.061     2435.030     1625.340      578.937        0.682        0.232       94.760       21.371        0.051      336.559        7.941      860.084
10/19/2014  03:15:00      -72.299      -59.553        1.187       40.815       44.698       19.359     1665.839     1997.948      374.788        0.641        0.202       93.668       26.599        0.081      336.657        8.107      860.093
10/19/2014  03:16:00      -54.791      -65.879        4.820       39.614       40.197       21.087     1569.255     1615.792      444.656        0.550        0.181       85.686       22.986        0.072      336.608        8.025      860.108
10/19/2014  03:17:00      -83.821      -58.636        3.707       46.695       33.072       25.472     2180.433     1093.732      648.844        0.720        0.196      102.294       19.913        0.038      336.578        7.976      860.120
10/19/2014  03:18:00     -127.805      -86.961       -7.534       40.190       39.219       23.839     1615.197     1538.113      568.290        1.384        0.186      154.584       21.863        0.020      336.562        7.949      860.117
10/19/2014  03:19:00     -118.583      -76.416        0.606       33.838       25.278       19.216     1144.989      638.959      369.255        1.103        0.108      141.073       16.297        0.013      336.546        7.921      860.118
10/19/2014  03:20:00      -67.668      -51.942        0.064       38.756       36.009       24.246     1502.055     1296.659      587.852        0.533        0.169       85.305       24.112        0.080      336.526        7.887      860.131
10/19/2014  03:21:00      -70.433      -60.191        3.707       42.065       32.356       20.200     1769.492     1046.916      408.046        0.591        0.161       92.648       18.537        0.040      336.522        7.880      860.144
10/19/2014  03:22:00      -98.807      -58.175       -8.176       32.915       20.145       21.000     1083.387      405.817      441.001        0.757        0.097      114.661       18.693        0.027      336.568        7.958      860.133
10/19/2014  03:23:00     -102.659      -40.395       -8.435       22.737       25.283       14.900      516.981      639.251      222.000        0.681        0.069      110.320       11.942        0.012      336.616        8.039      860.115
10/19/2014  03:24:00      -82.924      -41.911       -6.796       15.088       17.898       11.611      227.642      320.347      134.825        0.468        0.034       92.914        5.641        0.004      336.586        7.988      860.107
10/19/2014  03:25:00      -47.877      -33.338       -1.274       25.121       21.997       13.897      631.045      483.885      193.133        0.236        0.065       58.341       13.700        0.055      336.625        8.054      860.120
10/19/2014  03:26:00      -71.286      -34.866       -1.822       33.876       34.201       13.428     1147.599     1169.706      180.312        0.440        0.125       79.356       11.648        0.022      336.596        8.005      860.111
10/19/2014  03:27:00      -87.512      -21.546       -6.307       15.260       15.626        9.846      232.866      244.156       96.936        0.437        0.029       90.125        6.824        0.006      336.536        7.905      860.090
10/19/2014  03:28:00      -58.577      -31.117       -9.044       18.370        9.491        7.826      337.446       90.079       61.246        0.248        0.024       66.329        2.289        0.001      336.528        7.890      860.083
10/19/2014  03:29:00      -30.459      -21.107       -0.062       19.930       13.054       11.173      397.212      170.399      124.839        0.103        0.035       37.058       11.998        0.105      336.557        7.939      860.102
10/19/2014  03:30:00      -55.631      -39.053       -6.100       18.252       19.719       11.623      333.151      388.822      135.095        0.276        0.043       67.971        6.109        0.008      336.525        7.886      860.099
10/19/2014  03:31:00      -41.214      -37.752        5.708       18.255       15.162       12.335      333.260      229.893      152.153        0.194        0.036       55.891       11.752        0.044      336.603        8.017      860.095
10/19/2014  03:32:00       -8.190      -32.590       -4.059       11.548       10.326       13.402      133.359      106.632      179.617        0.078        0.021       33.603        6.118        0.033      336.691        8.166      860.083
10/19/2014  03:33:00      -21.205      -13.808        3.784       10.356       12.928       12.495      107.239      167.123      156.128        0.054        0.022       25.305       10.382        0.168      336.691        8.164      860.086
10/19/2014  03:34:00      -46.938       -2.011        0.260        9.451        6.855        8.123       89.318       46.996       65.988        0.120        0.010       46.981        5.291        0.013      336.714        8.202      860.081
10/19/2014  03:35:00      -21.476      -13.236        3.086       14.151        7.693        7.546      200.252       59.189       56.943        0.048        0.016       25.228        5.374        0.045      336.737        8.241      860.085
10/19/2014  03:36:00      -11.087      -28.304       -1.577       14.424       11.052       11.099      208.039      122.145      123.197        0.069        0.023       30.398        5.803        0.036      336.752        8.266      860.089
10/19/2014  03:37:00      -53.543      -29.804       -6.963       19.896       16.164       11.352      395.841      261.267      128.857        0.229        0.039       61.279        6.200        0.010      336.665        8.121      860.078
10/19/2014  03:38:00      -52.808      -23.494        0.589       29.153       19.796       11.743      849.876      391.895      137.901        0.236        0.069       57.799       10.615        0.034      336.557        7.938      860.067
10/19/2014  03:39:00       -1.190      -17.171      -12.918       16.311       12.654        8.177      266.046      160.135       66.864        0.048        0.025       17.212        5.130        0.089      336.568        7.959      860.063
10/19/2014  03:40:00      -39.603       -9.323      -10.964        8.571        7.664        7.458       73.462       58.734       55.626        0.098        0.009       40.685        4.092        0.010      336.619        8.044      860.055
10/19/2014  03:41:00      -69.140       -9.958       -8.956       13.180        8.793       10.349      173.716       77.322      107.095        0.266        0.018       69.853        5.657        0.007      336.588        7.991      860.044
10/19/2014  03:42:00      -48.473      -30.152       -4.026       29.286       14.837        9.007      857.677      220.124       81.120        0.222        0.058       57.085        9.282        0.026      336.522        7.880      860.047
10/19/2014  03:43:00      -57.459      -19.505       -8.972       18.332       15.395       11.019      336.058      237.014      121.423        0.223        0.035       60.679       10.775        0.032      336.445        7.753      860.054
10/19/2014  03:44:00      -74.977       -9.392       -6.663       16.347       13.055        9.533      267.233      170.440       90.882        0.314        0.026       75.563        7.357        0.009      336.392        7.663      860.059
10/19/2014  03:45:00      -88.972       -2.189      -11.884       11.890       11.260        7.265      141.378      126.792       52.773        0.419        0.016       88.999        4.255        0.002      336.388        7.657      860.071
10/19/2014  03:46:00      -63.632       -0.577      -10.063       11.392       12.604        9.652      129.775      158.852       93.169        0.227        0.019       63.635        7.412        0.014      336.402        7.677      860.069
10/19/2014  03:47:00      -43.138      -16.376       -6.689       12.842       10.119        7.222      164.907      102.385       52.161        0.125        0.016       46.142        6.156        0.018      336.358        7.606      860.063
10/19/2014  03:48:00      -33.853      -15.793       -7.549        6.859        7.222        5.711       47.046       52.164       32.611        0.079        0.007       37.355        3.921        0.011      336.512        7.862      860.057
10/19/2014  03:49:00      -34.915      -18.826       -1.784        4.260        4.382        3.389       18.150       19.202       11.487        0.081        0.002       39.667        1.995        0.003      336.751        8.265      860.059
10/19/2014  03:50:00      -45.727      -31.487      -10.079       14.576       10.356        9.750      212.471      107.240       95.069        0.180        0.021       55.520        7.570        0.019      336.538        7.909      860.059
10/19/2014  03:51:00      -60.633      -29.313       -8.550       14.994       12.646        9.811      224.807      159.920       96.250        0.254        0.024       67.347        3.980        0.003      336.323        7.547      860.051
10/19/2014  03:52:00      -71.573      -21.993       -7.086       10.883        9.974        8.213      118.446       99.486       67.452        0.297        0.014       74.876        4.170        0.003      336.264        7.450      860.035
10/19/2014  03:53:00      -72.119       -5.645      -12.874       14.319       11.033        8.377      205.025      121.728       70.175        0.290        0.020       72.340        4.458        0.004      336.257        7.437      860.016
10/19/2014  03:54:00      -64.762       17.450      -14.521       11.395        8.975        7.772      129.842       80.547       60.404        0.249        0.014       67.072        4.681        0.005      336.316        7.536      859.999
10/19/2014  03:55:00      -62.542       17.010      -11.356       14.267       10.350        7.781      203.545      107.120       60.542        0.235        0.019       64.814        7.153        0.012      336.444        7.750      859.983
10/19/2014  03:56:00      -19.453       12.327       -7.868       11.236       16.351        6.013      126.257      267.369       36.161        0.051        0.021       23.029        6.418        0.078      336.483        7.816      859.977
10/19/2014  03:57:00      -31.180      -18.307       -5.224       11.662       14.038        6.164      136.011      197.067       38.001        0.085        0.019       36.157        5.305        0.022      336.367        7.621      859.981
10/19/2014  03:58:00      -25.724      -27.009        0.481       17.807       16.225       15.696      317.089      263.235      246.355        0.111        0.041       37.299       12.509        0.112      336.189        7.323      859.998
10/19/2014  03:59:00      -82.745      -31.954      -12.580        9.749       13.616        6.771       95.044      185.406       45.849        0.418        0.016       88.700        6.411        0.005      336.121        7.207      860.020
10/19/2014  04:00:00      -87.301      -20.209      -12.700        9.405        8.283        5.982       88.457       68.608       35.782        0.419        0.010       89.609        2.876        0.001      336.159        7.273      860.037
10/19/2014  04:01:00      -81.214      -26.743       -9.134       17.641       11.811       11.373      311.222      139.501      129.336        0.399        0.029       85.504        8.262        0.009      336.192        7.327      860.042
10/19/2014  04:02:00      -76.442      -26.037       -8.066       15.294       13.375        8.678      233.895      178.896       75.308        0.354        0.024       80.755        6.003        0.006      336.290        7.492      860.051
10/19/2014  04:03:00      -89.096      -42.023       -7.134       15.836       20.744       10.730      250.794      430.323      115.140        0.528        0.040       98.510        7.151        0.005      336.306        7.519      860.049
10/19/2014  04:04:00      -93.776      -47.251       -2.709       19.825       13.380       12.064      393.050      179.019      145.543        0.588        0.036      105.008        9.278        0.008      336.325        7.551      860.055
10/19/2014  04:05:00     -105.032      -26.651       -5.935       17.047       17.633       10.967      290.601      310.914      120.271        0.625        0.036      108.360        8.338        0.006      336.287        7.486      860.045
10/19/2014  04:06:00     -120.780      -12.781      -10.332       19.247       14.182       12.271      370.466      201.136      150.578        0.779        0.036      121.454       10.083        0.007      336.114        7.197      860.025
10/19/2014  04:07:00     -104.518      -11.390       -7.156       31.837       19.365       16.612     1013.596      375.004      275.950        0.638        0.083      105.137       16.249        0.024      336.020        7.041      860.020
10/19/2014  04:08:00     -101.671      -14.522       -6.013       18.916       19.059       13.234      357.826      363.241      175.136        0.574        0.045      102.703        8.938        0.008      336.056        7.101      860.009
10/19/2014  04:09:00      -58.085       -7.531       -4.445       28.755       18.111       12.486      826.873      328.016      155.909        0.238        0.066       58.571       12.280        0.044      336.061        7.109      860.002
10/19/2014  04:10:00      -49.513       -1.651       -5.378       12.885       14.004        9.984      166.026      196.117       99.674        0.147        0.023       49.540        6.313        0.016      336.137        7.235      859.992
10/19/2014  04:11:00      -28.938      -13.212       -7.940       10.347       11.259        6.798      107.050      126.761       46.207        0.068        0.014       31.811        5.240        0.027      336.217        7.370      860.003
10/19/2014  04:12:00      -25.226      -14.099       -5.629       11.379       12.673        9.015      129.477      160.607       81.269        0.062        0.019       28.899        7.117        0.061      336.316        7.534      860.007
10/19/2014  04:13:00      -29.468      -28.336       -4.839       15.101       10.815       10.008      228.044      116.956      100.161        0.107        0.022       40.881        8.287        0.041      336.252        7.427      860.003
10/19/2014  04:14:00      -62.432      -18.782      -17.645       17.369       14.051       11.770      301.684      197.425      138.536        0.260        0.032       65.196        4.018        0.004      336.122        7.211      859.992
10/19/2014  04:15:00      -80.306      -24.405       -9.209       26.448       19.747       13.144      699.491      389.945      172.756        0.420        0.063       83.932        6.927        0.007      336.010        7.024      859.993
10/19/2014  04:16:00      -58.702      -12.998       -1.830       51.017       25.869       13.516     2602.742      669.187      182.670        0.354        0.173       60.124       16.355        0.074      335.894        6.831      859.997
10/19/2014  04:17:00      -26.837      -15.123        1.495       30.347       18.091       17.624      920.939      327.289      310.592        0.125        0.078       30.804       17.258        0.314      335.891        6.827      860.011
10/19/2014  04:18:00      -44.115      -12.704       -1.192       27.163       20.520       13.385      737.807      421.081      179.159        0.172        0.067       45.908       12.093        0.069      335.939        6.906      860.013
10/19/2014  04:19:00      -19.965       -6.298       -0.174       13.614       13.507       13.832      185.333      182.449      191.334        0.050        0.028       20.935        9.636        0.212      335.996        7.001      860.000
10/19/2014  04:20:00      -26.881      -16.692       -0.233       12.780       13.857       12.869      163.341      192.025      165.603        0.076        0.026       31.642        8.903        0.079      336.206        7.352      859.982
10/19/2014  04:21:00      -20.290      -29.273       -9.209       13.255       18.831       10.765      175.683      354.598      115.893        0.100        0.032       35.617        8.692        0.060      336.320        7.542      859.975
10/19/2014  04:22:00      -80.633      -36.681      -10.571       39.429       15.861       13.363     1554.626      251.562      178.582        0.497        0.099       88.584       16.199        0.033      336.089        7.155      859.991
10/19/2014  04:23:00      -88.173      -36.176      -15.527       28.733       22.770        9.614      825.564      518.493       92.432        0.538        0.072       95.306       10.673        0.013      335.909        6.857      860.004
10/19/2014  04:24:00      -89.005      -40.340      -12.231       18.144       16.067       13.221      329.209      258.135      174.795        0.523        0.038       97.720        4.903        0.003      336.011        7.028      860.006
10/19/2014  04:25:00      -82.418      -47.714       -9.544       18.544       20.480       11.125      343.886      419.418      123.768        0.502        0.044       95.233        5.891        0.004      335.990        6.992      860.002
10/19/2014  04:26:00      -71.433      -38.941      -10.960       24.050       18.650       17.902      578.405      347.840      320.489        0.399        0.062       81.358       17.293        0.045      335.958        6.939      860.009
10/19/2014  04:27:00      -92.390      -17.074       -8.538       28.162       22.431       16.240      793.080      503.143      263.721        0.523        0.078       93.954       16.087        0.029      335.906        6.851      860.020
10/19/2014  04:28:00      -90.671      -28.835      -11.442       27.388       18.338       13.399      750.079      336.276      179.530        0.522        0.063       95.146       10.463        0.012      335.924        6.881      860.027
10/19/2014  04:29:00      -84.118      -54.521      -11.959       31.209       21.360       17.109      974.029      456.245      292.708        0.596        0.086      100.241       14.264        0.020      335.915        6.866      860.020
10/19/2014  04:30:00      -85.242      -19.983       -5.701       35.908       25.448       18.525     1289.363      647.625      343.185        0.499        0.114       87.553       18.388        0.044      335.971        6.961      860.018
10/19/2014  04:31:00       -3.532       -5.614       15.063       36.062       24.254       15.431     1300.439      588.264      238.131        0.120        0.106        6.633        6.974        1.105      335.871        6.793      860.038
10/19/2014  04:32:00     -108.295        8.269       -6.825       49.138       28.709       21.679     2414.554      824.229      469.961        0.778        0.185      108.610       22.446        0.043      336.098        7.170      860.046
10/19/2014  04:33:00     -125.285        8.141      -13.561       31.715       25.135       16.582     1005.832      631.778      274.967        0.893        0.096      125.549       16.060        0.016      336.072        7.129      860.046
10/19/2014  04:34:00     -132.831       -2.045      -13.736       36.662       19.538       18.754     1344.111      381.736      351.714        0.996        0.104      132.846       19.673        0.022      336.052        7.095      860.040
10/19/2014  04:35:00     -142.936       16.271      -13.766       49.026       24.474       18.867     2403.580      598.994      355.953        1.212        0.168      143.860       20.316        0.020      336.008        7.020      860.044
10/19/2014  04:36:00     -169.128      -15.878      -28.913       31.110       30.724       18.735      967.805      943.952      350.995        1.598        0.113      169.871       17.978        0.011      336.129        7.224      860.047
10/19/2014  04:37:00     -114.257      -34.005       -6.184       34.834       33.525       25.986     1213.413     1123.899      675.269        0.863        0.151      119.210       20.174        0.029      336.015        7.034      860.056
10/19/2014  04:38:00     -150.395      -28.678      -12.346       38.425       22.795       20.088     1476.458      519.600      403.548        1.300        0.120      153.105       18.646        0.015      335.984        6.982      860.070
10/19/2014  04:39:00     -129.463      -20.024      -16.445       27.796       23.660       16.398      772.604      559.801      268.909        0.952        0.080      131.002       10.672        0.007      335.982        6.979      860.085
10/19/2014  04:40:00     -110.054      -19.521      -16.186       11.161       16.486        9.294      124.567      271.793       86.384        0.662        0.024      111.772        5.551        0.002      335.973        6.962      860.094
10/19/2014  04:41:00     -103.578        0.012      -13.878       11.515       10.733        8.798      132.591      115.198       77.412        0.562        0.016      103.578        5.101        0.002      336.057        7.102      860.084
10/19/2014  04:42:00     -107.369      -28.234      -13.232       11.965       14.026        9.690      143.167      196.732       93.901        0.647        0.022      111.019        4.812        0.002      336.133        7.230      860.076
10/19/2014  04:43:00      -90.901      -25.894       -2.092       14.018       14.243        9.212      196.493      202.875       84.864        0.471        0.024       94.517        6.625        0.005      336.062        7.112      860.077
10/19/2014  04:44:00      -94.212      -34.675       -8.784       11.518       14.481        8.613      132.672      209.703       74.186        0.529        0.021      100.391        7.231        0.005      336.093        7.163      860.081
10/19/2014  04:45:00     -105.073      -30.721      -10.604       13.732       13.045       11.886      188.557      170.173      141.269        0.630        0.025      109.472        6.925        0.004      336.093        7.164      860.073
10/19/2014  04:46:00     -120.212      -40.535      -12.925       10.215       11.123        9.928      104.337      123.731       98.574        0.829        0.016      126.862        5.633        0.002      336.058        7.103      860.078
10/19/2014  04:47:00      -80.635      -37.026       -1.434       34.962       28.146       17.085     1222.335      792.172      291.913        0.509        0.115       88.730       15.248        0.030      335.952        6.928      860.092
10/19/2014  04:48:00      -82.797      -62.315       -2.949       39.356       35.663       21.858     1548.908     1271.880      477.774        0.702        0.165      103.627       18.188        0.031      335.948        6.921      860.107
10/19/2014  04:49:00      -55.196      -53.298        0.541       38.642       33.040       22.813     1493.212     1091.636      520.444        0.450        0.155       76.729       19.925        0.067      336.011        7.027      860.113
10/19/2014  04:50:00      -60.796      -53.307       -2.334       22.655       23.982       15.141      513.265      575.125      229.238        0.393        0.066       80.856       15.806        0.038      336.161        7.276      860.105
10/19/2014  04:51:00      -53.330      -28.810       -1.637       26.498       16.857       14.081      702.160      284.171      198.285        0.243        0.059       60.615       12.857        0.045      336.100        7.174      860.088
10/19/2014  04:52:00      -75.086      -33.890       -0.835       41.139       17.286       12.210     1692.402      298.811      149.090        0.446        0.107       82.380       14.683        0.032      336.057        7.102      860.083
10/19/2014  04:53:00     -118.974      -46.382      -11.706       13.791       16.130        9.393      190.180      260.169       88.222        0.849        0.027      127.696        7.863        0.004      336.034        7.063      860.081
10/19/2014  04:54:00     -114.127      -41.622       -9.215       15.603       18.427       14.029      243.452      339.563      196.810        0.781        0.039      121.480       10.240        0.007      335.962        6.944      860.083
10/19/2014  04:55:00      -76.525      -24.387       -0.022       28.422       20.492       11.821      807.801      419.935      139.724        0.391        0.068       80.317       10.924        0.018      335.950        6.924      860.094
10/19/2014  04:56:00      -74.303      -33.326       -4.928       19.857       14.966        9.583      394.304      223.977       91.831        0.368        0.036       81.435        9.591        0.014      336.027        7.052      860.114
10/19/2014  04:57:00     -129.434      -27.415       -7.084       26.489       20.143       13.745      701.654      405.756      188.936        0.943        0.065      132.306        6.855        0.003      335.920        6.874      860.120
10/19/2014  04:58:00     -113.519      -38.188        2.397       42.628       26.273       20.827     1817.174      690.275      433.783        0.865        0.147      119.770       18.876        0.025      335.903        6.846      860.120
10/19/2014  04:59:00      -89.745      -22.043       -0.994       31.706       23.071       17.488     1005.264      532.258      305.839        0.519        0.092       92.412       14.248        0.024      335.877        6.804      860.122
10/19/2014  05:00:00     -112.039        2.495      -12.481       17.272       12.669       10.230      298.322      160.495      104.659        0.664        0.028      112.067        8.157        0.005      335.903        6.846      860.119
10/19/2014  05:01:00     -135.609      -30.766       -8.678       29.014       25.336       16.532      841.785      641.935      273.294        1.058        0.088      139.055       11.785        0.007      335.818        6.705      860.127
10/19/2014  05:02:00     -137.715      -59.600       -3.377       42.346       29.369       22.556     1793.153      862.567      508.774        1.285        0.158      150.059       19.992        0.018      335.802        6.679      860.156
10/19/2014  05:03:00     -108.219      -28.480       -0.676       44.421       42.846       25.638     1973.246     1835.779      657.291        0.849        0.223      111.904       22.300        0.040      335.896        6.835      860.170
10/19/2014  05:04:00      -72.030      -26.508       -0.989       23.891       21.641       15.104      570.784      468.348      228.122        0.358        0.063       76.753        8.445        0.012      335.908        6.854      860.161
10/19/2014  05:05:00     -127.915      -57.105      -11.814       23.909       35.308       13.397      571.645     1246.620      179.479        1.088        0.100      140.082        5.359        0.001      335.993        6.997      860.168
10/19/2014  05:06:00     -141.874      -90.318       -9.571       43.005       26.627       19.187     1849.433      708.995      368.135        1.565        0.146      168.183       10.546        0.004      335.961        6.942      860.202
10/19/2014  05:07:00     -108.870      -59.591        4.095       35.453       20.749       25.739     1256.904      430.517      662.483        0.888        0.117      124.111       24.361        0.039      335.964        6.948      860.222
10/19/2014  05:08:00      -67.769      -49.143        7.877       37.571       20.147       19.272     1411.617      405.918      371.393        0.463        0.109       83.712       18.231        0.047      336.006        7.018      860.229
10/19/2014  05:09:00      -47.326      -19.803        5.503       27.596       17.460       13.801      761.517      304.837      190.476        0.196        0.063       51.303       12.496        0.059      336.076        7.136      860.235
10/19/2014  05:10:00      -25.107      -22.885       -3.087       14.076        8.122       10.618      198.130       65.972      112.746        0.077        0.019       33.972        6.819        0.040      336.201        7.342      860.241
10/19/2014  05:11:00      -18.601      -30.504       -1.561       19.809       19.526       14.495      392.408      381.270      210.104        0.113        0.049       35.728        9.166        0.066      336.246        7.420      860.260
10/19/2014  05:12:00       17.429      -23.812        2.200       20.525       16.671       16.418      421.258      277.907      269.564        0.092        0.048       29.509       13.586        0.212      336.110        7.191      860.281
10/19/2014  05:13:00      -40.852       -4.138       -6.166        7.834        8.562        9.617       61.375       73.307       92.484        0.098        0.011       41.061        7.722        0.035      336.093        7.162      860.292
10/19/2014  05:14:00      -64.462      -26.795       -7.072       14.283       11.104       10.056      204.018      123.288      101.125        0.268        0.021       69.809        7.598        0.012      336.098        7.171      860.299
10/19/2014  05:15:00      -91.960      -33.229       -6.381       15.595       17.351       12.030      243.215      301.054      144.719        0.515        0.034       97.779        5.088        0.003      335.900        6.841      860.312
10/19/2014  05:16:00      -57.834      -40.821       -3.970       32.427       20.510       13.328     1051.526      420.657      177.624        0.334        0.082       70.789       12.146        0.029      335.881        6.809      860.340
10/19/2014  05:17:00      -84.727      -49.744       -6.313       19.368       13.904       14.071      375.125      193.330      198.000        0.523        0.038       98.250       12.685        0.017      335.803        6.682      860.361
10/19/2014  05:18:00      -51.062      -28.345        0.915       23.655       23.244       14.787      559.579      540.287      218.648        0.236        0.066       58.402       11.384        0.038      335.939        6.906      860.358
10/19/2014  05:19:00      -45.090        0.688       -1.208       20.450       14.040       16.866      418.202      197.123      284.468        0.147        0.045       45.095       11.983        0.071      335.987        6.987      860.345
10/19/2014  05:20:00      -42.185      -25.513       -9.433       13.241       11.375        9.272      175.321      129.395       85.966        0.146        0.020       49.300        9.158        0.035      336.136        7.235      860.341
10/19/2014  05:21:00       -6.454      -30.945       -3.366       10.376        8.663        7.348      107.669       75.043       54.000        0.062        0.012       31.611        3.932        0.015      336.165        7.285      860.354
10/19/2014  05:22:00      -24.137      -11.831       -0.566       19.835       11.592       10.156      393.422      134.378      103.137        0.068        0.032       26.881        7.144        0.071      336.074        7.131      860.368
10/19/2014  05:23:00      -31.897      -19.593       -2.637       34.956       26.152       14.563     1221.916      683.916      212.086        0.176        0.106       37.434       13.575        0.131      335.998        7.005      860.373
10/19/2014  05:24:00     -106.309      -67.040       -3.109       23.884       31.976       17.494      570.467     1022.443      306.049        0.885        0.095      125.682       14.296        0.013      336.053        7.095      860.363
10/19/2014  05:25:00      -96.880      -68.174        1.159       35.336       28.214       22.508     1248.602      796.020      506.615        0.829        0.128      118.462       19.199        0.026      335.966        6.952      860.349
10/19/2014  05:26:00      -79.627      -63.519        4.722       36.925       39.648       21.471     1363.438     1571.945      460.998        0.690        0.170      101.858       18.315        0.032      335.929        6.889      860.342
10/19/2014  05:27:00     -115.022      -82.616       -8.116       30.422       31.854       20.504      925.489     1014.676      420.404        1.124        0.118      141.618       14.733        0.011      335.974        6.965      860.343
10/19/2014  05:28:00      -76.532      -40.462       -5.321       18.230       18.883       11.472      332.333      356.574      131.615        0.417        0.041       86.570        7.638        0.008      336.069        7.121      860.336
10/19/2014  05:29:00      -74.688      -30.994      -11.781       19.852       18.335       11.305      394.084      336.183      127.796        0.377        0.043       80.863        9.645        0.014      336.032        7.060      860.339
10/19/2014  05:30:00      -34.758      -31.737       -2.306       31.897       19.287       15.295     1017.421      371.999      233.944        0.192        0.081       47.068       13.075        0.077      335.959        6.940      860.340
10/19/2014  05:31:00      -34.914      -43.277       -1.519       29.231       23.510       15.360      854.456      552.720      235.928        0.237        0.082       55.605       14.279        0.066      336.041        7.075      860.348
10/19/2014  05:32:00      -91.266      -50.068       -3.736       27.384       27.814       16.573      749.903      773.603      274.669        0.632        0.090      104.097       10.110        0.009      336.019        7.039      860.359
10/19/2014  05:33:00      -84.776      -56.823        1.668       27.518       21.540       16.370      757.268      463.978      267.989        0.595        0.074      102.058       13.828        0.018      336.015        7.033      860.358
10/19/2014  05:34:00      -99.870      -54.411       -6.086       20.097       19.558       14.428      403.902      382.531      208.163        0.698        0.050      113.731        8.712        0.006      336.004        7.013      860.362
10/19/2014  05:35:00      -36.706      -33.859        9.763       36.314       29.852       22.891     1318.727      891.144      523.989        0.266        0.137       49.938       15.406        0.095      335.916        6.868      860.372
10/19/2014  05:36:00      -78.426      -39.588       -2.779       23.637       22.415       13.528      558.700      502.454      183.005        0.448        0.062       87.852       10.864        0.015      335.895        6.833      860.372
10/19/2014  05:37:00      -54.159      -32.079       -0.607       26.893       22.060       12.876      723.234      486.628      165.796        0.267        0.069       62.947       12.584        0.040      335.912        6.861      860.358
10/19/2014  05:38:00      -40.991      -19.011        7.511       25.200       19.734       16.264      635.035      389.430      264.512        0.169        0.064       45.185       15.116        0.112      335.799        6.675      860.355
10/19/2014  05:39:00      -85.853      -21.011       -2.458       38.152       18.891       17.032     1455.562      356.859      290.083        0.496        0.105       88.386       19.111        0.047      335.609        6.358      860.355
10/19/2014  05:40:00      -76.963        2.655        0.830       35.301       22.816       19.293     1246.151      520.574      372.205        0.403        0.107       77.009       19.272        0.063      335.502        6.177      860.358
10/19/2014  05:41:00      -48.520       -1.995        4.540       37.197       19.131       14.445     1383.592      365.982      208.644        0.217        0.098       48.561       16.877        0.121      335.468        6.123      860.367
10/19/2014  05:42:00      -65.422      -12.119       -1.579       27.590       20.831       16.089      761.194      433.917      258.847        0.294        0.073       66.535       15.150        0.052      335.569        6.290      860.376
10/19/2014  05:43:00      -69.512        0.492      -10.002       30.951       19.517       14.610      957.962      380.920      213.451        0.324        0.078       69.513       17.341        0.062      335.541        6.245      860.386
10/19/2014  05:44:00      -56.889       27.798        0.667       13.766       15.497        9.249      189.495      240.143       85.551        0.226        0.026       63.318        4.673        0.005      335.773        6.631      860.374
10/19/2014  05:45:00        5.268       28.331       -3.455       28.496       21.761       10.805      812.001      473.544      116.754        0.112        0.070       28.816        6.777        0.055      335.863        6.781      860.354
10/19/2014  05:46:00        8.222       20.809        2.650        8.900       23.171       14.308       79.214      536.886      204.717        0.066        0.041       22.375       11.104        0.246      335.836        6.736      860.325
10/19/2014  05:47:00      -15.480       19.431       -7.451       20.589       15.286        5.659      423.923      233.665       32.029        0.068        0.034       24.844        7.024        0.080      335.846        6.752      860.321
10/19/2014  05:48:00      -54.381        2.598       -5.691       10.161        7.825        5.725      103.240       61.224       32.773        0.160        0.010       54.443        3.124        0.003      335.768        6.622      860.334
10/19/2014  05:49:00      -49.281       -3.983       -7.084       11.985        7.044        5.336      143.645       49.625       28.468        0.136        0.011       49.441        2.620        0.003      335.568        6.288      860.346
10/19/2014  05:50:00        1.252       17.480        0.779       19.278        8.801        6.094      371.652       77.459       37.136        0.040        0.024       17.525        7.910        0.204      335.603        6.346      860.356
10/19/2014  05:51:00       26.646       15.241        8.295        9.431        7.105       12.668       88.935       50.476      160.482        0.066        0.015       30.697        8.138        0.070      335.819        6.708      860.358
10/19/2014  05:52:00        8.070       -1.669       -0.261        6.254        4.236        7.810       39.115       17.941       60.997        0.009        0.006        8.241        5.508        0.447      335.899        6.838      860.364
10/19/2014  05:53:00      -18.334      -18.163       -1.876       12.400       11.379       10.225      153.760      129.473      104.553        0.053        0.019       25.808        5.741        0.049      335.832        6.729      860.370
10/19/2014  05:54:00      -48.054      -13.458       -5.809       14.703       12.052        7.641      216.180      145.247       58.380        0.147        0.021       49.903        5.703        0.013      335.713        6.531      860.376
10/19/2014  05:55:00       -6.386       15.298       -0.366       10.010        8.126        6.554      100.204       66.028       42.956        0.024        0.010       16.577        5.069        0.093      335.689        6.491      860.370
10/19/2014  05:56:00      -10.527        8.686       -0.227       11.298        5.406        8.653      127.634       29.225       74.872        0.021        0.012       13.648        6.467        0.225      335.812        6.693      860.366
10/19/2014  05:57:00      -31.138       -1.579       -3.828        7.399        5.000        7.195       54.741       25.001       51.767        0.056        0.007       31.178        4.433        0.020      335.891        6.827      860.366
10/19/2014  05:58:00      -38.361       -5.653       -4.912        7.404        6.910        5.083       54.817       47.747       25.841        0.083        0.006       38.775        2.139        0.003      335.874        6.798      860.362
10/19/2014  05:59:00      -31.799       -5.606       -6.110       13.301       10.196        7.793      176.926      103.960       60.738        0.071        0.017       32.289        5.689        0.031      335.836        6.736      860.347
10/19/2014  06:00:00      -11.460        2.509       -4.305        5.572        6.201        5.340       31.051       38.458       28.520        0.013        0.005       11.731        1.996        0.029      335.716        6.536      860.322
10/19/2014  06:01:00       -8.606        8.354       -0.327       11.230        7.909        6.755      126.121       62.549       45.626        0.019        0.012       11.994        7.193        0.360      335.841        6.742      860.308
10/19/2014  06:02:00        6.269        3.482       -1.700        5.542        5.630       11.022       30.718       31.695      121.479        0.012        0.009        7.171        2.504        0.122      335.817        6.703      860.318
10/19/2014  06:03:00      -21.770       -1.683       -3.173        9.707       10.993        8.517       94.235      120.836       72.532        0.039        0.014       21.835        1.661        0.006      335.914        6.866      860.343
10/19/2014  06:04:00      -35.302       -5.914       -5.833        4.833        5.140        4.860       23.353       26.416       23.622        0.069        0.004       35.794        3.211        0.008      335.821        6.710      860.369
10/19/2014  06:05:00      -33.844       -2.635       -2.653        9.812        5.444        6.876       96.274       29.632       47.285        0.067        0.009       33.946        5.519        0.026      335.706        6.518      860.367
10/19/2014  06:06:00      -62.895       -7.103      -12.282        6.175        6.655        6.892       38.135       44.286       47.505        0.214        0.006       63.295        2.111        0.001      335.729        6.555      860.353
10/19/2014  06:07:00      -71.129      -10.152      -13.036        6.854        7.776        5.456       46.971       60.471       29.763        0.273        0.007       71.850        3.377        0.002      335.735        6.567      860.332
10/19/2014  06:08:00      -80.956       -8.818       -9.945       11.666       13.410        6.809      136.096      179.823       46.365        0.355        0.018       81.435        5.657        0.005      335.669        6.457      860.312
10/19/2014  06:09:00      -84.665      -38.525      -10.652       16.663       12.584       10.714      277.665      158.364      114.790        0.466        0.028       93.018        3.555        0.001      335.469        6.123      860.316
10/19/2014  06:10:00      -86.749        3.290       -9.060       24.370       20.355       15.665      593.917      414.327      245.389        0.444        0.063       86.812       12.248        0.020      335.324        5.882      860.328
10/19/2014  06:11:00      -60.242       -2.108       -7.227       16.682       16.450        9.876      278.286      270.616       97.536        0.217        0.032       60.279        6.993        0.013      335.355        5.932      860.331
10/19/2014  06:12:00      -70.502       -8.645       -5.496       18.786       15.407       13.682      352.897      237.371      187.204        0.293        0.039       71.030       11.023        0.024      335.361        5.942      860.328
10/19/2014  06:13:00      -78.822      -14.785       -8.413       17.569       18.353       13.199      308.683      336.842      174.218        0.366        0.041       80.197       10.650        0.018      335.319        5.872      860.309
10/19/2014  06:14:00      -48.862       -8.011       -6.467       25.597       17.193       18.760      655.187      295.604      351.947        0.190        0.065       49.514       17.314        0.122      335.213        5.696      860.306
10/19/2014  06:15:00      -84.644      -22.779       -8.849       23.703       21.673       13.109      561.854      469.702      171.849        0.448        0.060       87.656        9.123        0.011      335.223        5.714      860.310
10/19/2014  06:16:00      -43.102      -48.467        3.206       38.779       25.548       25.436     1503.780      652.715      646.970        0.351        0.140       64.860       12.919        0.040      335.304        5.849      860.342
10/19/2014  06:17:00      -52.078      -30.295        0.260       38.113       25.678       19.362     1452.599      659.336      374.880        0.306        0.124       60.248       18.704        0.096      335.237        5.737      860.382
10/19/2014  06:18:00      -68.190      -33.848       -2.422       33.158       25.537       19.578     1099.442      652.127      383.289        0.397        0.107       76.129       19.046        0.063      335.222        5.711      860.405
10/19/2014  06:19:00     -145.497      -12.267      -17.962       20.223       22.276       15.387      408.975      496.207      236.764        1.139        0.057      146.014       10.369        0.005      335.582        6.312      860.407
10/19/2014  06:20:00     -117.030      -39.980      -11.466       23.391       18.896       18.637      547.139      357.048      347.327        0.834        0.063      123.671       15.758        0.016      335.618        6.372      860.403
10/19/2014  06:21:00      -94.052      -38.729       -4.248       17.681       24.531       14.549      312.625      601.748      211.675        0.574        0.056      101.714       13.329        0.017      335.513        6.197      860.412
10/19/2014  06:22:00     -102.483      -15.109      -15.300       15.097       17.364        9.011      227.905      301.500       81.207        0.579        0.031      103.591        5.282        0.003      335.414        6.032      860.422
10/19/2014  06:23:00      -84.093      -26.317      -14.407       10.408       12.755        8.666      108.318      162.687       75.096        0.416        0.017       88.115        3.583        0.002      335.482        6.146      860.417
10/19/2014  06:24:00      -61.602      -13.349       -9.045       21.019       20.338       10.261      441.786      413.615      105.286        0.251        0.048       63.031        8.584        0.019      335.611        6.360      860.398
10/19/2014  06:25:00      -40.536        2.369       -7.200       28.879       20.499       11.893      834.004      420.200      141.437        0.155        0.070       40.605       11.511        0.080      335.659        6.441      860.382
10/19/2014  06:26:00      -69.771        2.043      -11.148       15.219       12.592       10.014      231.607      158.555      100.285        0.274        0.025       69.801        6.924        0.010      335.598        6.339      860.377
10/19/2014  06:27:00      -66.551      -21.577       -4.454       25.134       16.533       11.220      631.742      273.356      125.898        0.297        0.052       69.962        7.994        0.013      335.558        6.272      860.378
10/19/2014  06:28:00      -64.332      -33.592       -4.598       19.240       15.167       11.402      370.186      230.035      130.002        0.301        0.037       72.574        3.013        0.002      335.575        6.299      860.389
10/19/2014  06:29:00      -78.353      -43.204       -5.836       19.801       15.061       12.015      392.093      226.841      144.371        0.440        0.038       89.475        8.927        0.010      335.531        6.226      860.406
10/19/2014  06:30:00      -83.488      -40.267      -13.179       12.316       17.254        9.661      151.695      297.696       93.337        0.465        0.027       92.692        6.088        0.004      335.466        6.117      860.413
10/19/2014  06:31:00      -87.162      -40.188       -2.299       36.519       25.926       16.474     1333.668      672.179      271.390        0.575        0.114       95.980       18.930        0.039      335.432        6.060      860.400
10/19/2014  06:32:00      -89.632      -13.979      -10.745       15.936       20.855       11.156      253.958      434.924      124.463        0.458        0.041       90.716        6.192        0.005      335.355        5.932      860.397
10/19/2014  06:33:00     -102.100      -39.611      -11.759       22.197       24.725       11.957      492.717      611.321      142.964        0.669        0.062      109.515       11.738        0.011      335.368        5.954      860.401
10/19/2014  06:34:00     -102.909      -30.499       -4.536       34.729       32.573       18.152     1206.094     1060.984      329.492        0.707        0.130      107.333       13.682        0.016      335.333        5.895      860.424
10/19/2014  06:35:00      -78.817      -54.573       -0.197       39.076       24.570       15.632     1526.900      603.694      244.367        0.578        0.119       95.866        8.672        0.008      335.301        5.841      860.443
10/19/2014  06:36:00     -113.883      -23.371      -17.407       30.890       30.418       19.496      954.221      925.263      380.110        0.804        0.113      116.257       17.584        0.023      335.221        5.710      860.459
10/19/2014  06:37:00      -93.749      -31.437       -5.956       18.338       19.906       12.272      336.284      396.263      150.593        0.535        0.044       98.880        9.279        0.009      335.245        5.750      860.463
10/19/2014  06:38:00     -115.622      -34.381      -10.919       23.225       22.765       18.443      539.409      518.229      340.147        0.803        0.070      120.625       13.301        0.012      335.276        5.801      860.461
10/19/2014  06:39:00     -122.615       -6.478       -8.782       33.480       22.720       22.773     1120.921      516.178      518.594        0.865        0.108      122.786       22.798        0.034      335.199        5.675      860.470
10/19/2014  06:40:00      -64.031       -7.989       -1.404       33.038       24.097       20.393     1091.516      580.682      415.886        0.313        0.104       64.527       19.987        0.096      335.160        5.610      860.465
10/19/2014  06:41:00      -65.415      -28.324       -4.115       19.611       15.960       12.214      384.598      254.711      149.186        0.294        0.039       71.284        7.340        0.011      335.290        5.825      860.461
10/19/2014  06:42:00      -55.837      -17.700        1.174       27.983       20.804       14.473      783.055      432.824      209.481        0.243        0.071       58.575       13.168        0.051      335.351        5.927      860.478
10/19/2014  06:43:00      -36.444      -10.444       -5.225       21.765       11.945        9.602      473.715      142.692       92.198        0.109        0.035       37.911        5.204        0.019      335.307        5.853      860.479
10/19/2014  06:44:00      -40.301      -38.848       -3.438       23.965       22.398       17.211      574.344      501.653      296.201        0.226        0.069       55.976       16.549        0.087      335.337        5.903      860.482
10/19/2014  06:45:00      -30.334      -48.570      -10.298       25.118       13.909       15.641      630.894      193.460      244.646        0.223        0.053       57.264       12.458        0.047      335.431        6.060      860.498
10/19/2014  06:46:00      -52.444      -48.875       -3.029       25.284       23.349       17.946      639.278      545.197      322.063        0.333        0.075       71.688       18.264        0.065      335.368        5.954      860.498
10/19/2014  06:47:00      -74.868      -30.600       -9.439       21.353       23.082       11.103      455.963      532.772      123.280        0.387        0.056       80.880        7.998        0.010      335.372        5.960      860.500
10/19/2014  06:48:00      -78.693      -31.457       -6.922       23.940       22.679       15.055      573.110      514.353      226.668        0.427        0.066       84.747       10.536        0.015      335.296        5.837      860.494
10/19/2014  06:49:00      -34.839      -30.022       -0.518       28.619       24.440       12.113      819.036      597.298      146.729        0.184        0.078       45.990       13.568        0.087      335.400        6.008      860.480
10/19/2014  06:50:00      -99.956      -21.908      -15.233       24.776       14.211       10.344      613.829      201.959      106.992        0.581        0.046      102.329        8.530        0.007      335.331        5.893      860.471
10/19/2014  06:51:00      -78.581      -31.421      -11.647       21.782       22.713       13.198      474.470      515.888      174.186        0.423        0.058       84.630        9.888        0.014      335.270        5.792      860.491
10/19/2014  06:52:00      -27.239      -35.596        3.000       31.289       20.597       21.877      979.027      424.254      478.613        0.195        0.094       44.823       16.240        0.131      335.288        5.820      860.511
10/19/2014  06:53:00      -55.486      -33.730       -6.415       21.895       21.602       20.503      479.412      466.661      420.362        0.281        0.068       64.933       13.297        0.042      335.282        5.811      860.532
10/19/2014  06:54:00      -50.437      -28.567       -5.303       19.578       17.918        9.100      383.286      321.062       82.813        0.209        0.039       57.965        1.843        0.001      335.248        5.754      860.531
10/19/2014  06:55:00      -89.479      -27.085      -11.168       12.869       16.759       11.475      165.603      280.879      131.668        0.472        0.029       93.488        6.493        0.005      335.327        5.887      860.541
10/19/2014  06:56:00      -66.981      -35.276      -12.314       29.784       16.656       12.631      887.086      277.410      159.544        0.360        0.066       75.702        6.438        0.007      335.309        5.856      860.563
10/19/2014  06:57:00     -105.931      -56.100      -15.322       33.117       24.300       15.650     1096.708      590.474      244.923        0.827        0.097      119.869       16.401        0.019      335.205        5.682      860.585
10/19/2014  06:58:00      -96.911      -45.597      -10.164       19.179       23.255       11.262      367.847      540.802      126.837        0.630        0.052      107.102        5.983        0.003      335.207        5.686      860.594
10/19/2014  06:59:00      -62.730      -24.115        1.929       36.429       24.708       14.340     1327.065      610.466      205.634        0.333        0.107       67.205       16.724        0.062      335.172        5.629      860.605
10/19/2014  07:00:00      -81.058      -11.292       -7.523       24.666       14.434       12.855      608.436      208.341      165.242        0.387        0.049       81.841       14.048        0.029      335.236        5.735      860.604
10/19/2014  07:01:00      -89.087       -2.152       -5.378       30.040       26.113       19.758      902.397      681.870      390.384        0.497        0.099       89.113       19.748        0.049      335.210        5.693      860.613
10/19/2014  07:02:00      -43.069      -14.593        4.004       34.516       32.528       20.581     1191.366     1058.052      423.578        0.238        0.134       45.475       17.956        0.156      335.139        5.574      860.623
10/19/2014  07:03:00      -94.231      -49.060       -4.645       24.894       23.274       12.699      619.726      541.692      161.267        0.632        0.066      106.238       10.197        0.009      335.334        5.898      860.632
10/19/2014  07:04:00      -51.347      -28.480        7.021       41.106       15.048       20.576     1689.743      226.449      423.374        0.292        0.117       58.716       23.088        0.155      335.200        5.675      860.635
10/19/2014  07:05:00      -90.715      -11.128      -10.016       27.175       33.826       14.658      738.468     1144.199      214.861        0.528        0.105       91.395       14.832        0.026      335.104        5.516      860.629
10/19/2014  07:06:00      -92.602       -5.735       -4.365       35.518       25.033       17.018     1261.547      626.667      289.596        0.540        0.109       92.780       13.713        0.022      335.101        5.512      860.614
10/19/2014  07:07:00      -66.483      -12.608       -4.565       28.811       29.017       18.274      830.102      841.978      333.931        0.330        0.100       67.668       14.646        0.047      335.175        5.633      860.605
10/19/2014  07:08:00      -20.611       -8.140        9.678       40.126       33.754       15.657     1610.069     1139.313      245.141        0.179        0.150       22.160       20.275        0.837      335.170        5.627      860.604
10/19/2014  07:09:00      -13.453        6.094       -9.840       16.341       21.597       13.419      267.028      466.428      180.073        0.061        0.046       14.769        8.091        0.300      335.236        5.735      860.613
10/19/2014  07:10:00       -6.804       -7.950        3.831       10.441       19.555        9.332      109.016      382.387       87.090        0.035        0.029       10.464        3.143        0.090      335.315        5.865      860.612
10/19/2014  07:11:00      -43.505      -30.310      -10.188       32.988       14.006       11.309     1088.199      196.178      127.890        0.216        0.071       53.022        5.679        0.011      335.313        5.862      860.608
10/19/2014  07:12:00      -82.729      -33.749      -12.386       19.268       18.344       15.000      371.262      336.503      224.996        0.453        0.047       89.348        7.869        0.008      335.256        5.768      860.610
10/19/2014  07:13:00      -82.129      -18.444      -10.938       16.408       18.771       13.960      269.229      352.335      194.881        0.401        0.041       84.174        9.657        0.013      335.158        5.605      860.615
10/19/2014  07:14:00      -69.615      -17.383       -7.022       25.311       18.616       15.985      640.627      346.552      255.506        0.322        0.062       71.752       16.072        0.050      335.086        5.487      860.612
10/19/2014  07:15:00      -41.878       -3.094      -13.208       13.680       11.278        9.951      187.150      127.198       99.013        0.118        0.021       41.992        5.555        0.017      335.229        5.724      860.598
10/19/2014  07:16:00        4.227       10.471       -0.380       15.425       19.826       13.019      237.920      393.053      169.501        0.046        0.040       11.292       10.752        0.907      335.694        6.499      860.573
10/19/2014  07:17:00       14.028       45.045        1.902       23.410       26.605       17.265      548.022      707.802      298.084        0.189        0.078       47.179       15.597        0.109      335.803        6.680      860.568
10/19/2014  07:18:00        9.075       69.594       -0.491       16.868       17.913        9.791      284.516      320.862       95.855        0.281        0.035       70.183       10.284        0.021      335.980        6.975      860.571
10/19/2014  07:19:00       -1.754       33.649        2.922       14.948       30.914       14.554      223.440      955.672      211.807        0.127        0.070       33.695        9.755        0.084      335.797        6.671      860.590
10/19/2014  07:20:00      -37.983      -25.469       -9.090       17.600       10.656       10.962      309.774      113.547      120.163        0.136        0.027       45.732       10.542        0.053      335.565        6.283      860.613
10/19/2014  07:21:00      -72.679      -27.224      -14.778       10.421       12.254        8.378      108.603      150.162       70.184        0.329        0.016       77.611        4.743        0.004      335.345        5.916      860.625
10/19/2014  07:22:00      -57.187      -21.201      -14.410       14.657       10.803        6.864      214.830      116.700       47.121        0.215        0.019       60.991        4.246        0.005      335.447        6.086      860.626
10/19/2014  07:23:00      -42.900      -21.594      -11.431        5.712        6.873        5.550       32.633       47.233       30.801        0.127        0.006       48.028        3.193        0.004      335.423        6.046      860.624
10/19/2014  07:24:00      -57.930       -9.959       -7.685        9.864       10.564        7.864       97.305      111.609       61.842        0.189        0.014       58.780        4.498        0.006      335.411        6.026      860.631
10/19/2014  07:25:00      -37.737      -14.761       -5.910       12.426       10.305        7.277      154.408      106.191       52.951        0.100        0.016       40.522        5.290        0.017      335.634        6.398      860.642
10/19/2014  07:26:00      -15.722        4.179       -4.608       24.396       12.817        8.652      595.171      164.263       74.850        0.056        0.042       16.268        4.524        0.077      335.821        6.709      860.654
10/19/2014  07:27:00      -37.934        3.014       -1.889       11.704        7.032        8.863      136.975       49.451       78.545        0.086        0.013       38.053        7.037        0.034      335.590        6.325      860.647
10/19/2014  07:28:00       -1.411       -3.102        0.750       23.139        5.731        8.859      535.408       32.839       78.488        0.033        0.032        3.408        9.978        8.573      335.680        6.476      860.647
10/19/2014  07:29:00       34.519        9.191       -1.774       15.119       18.427       15.362      228.585      339.548      235.982        0.104        0.040       35.721        5.371        0.023      335.938        6.905      860.658
10/19/2014  07:30:00       -5.892      -21.711       -1.751       18.250       16.577        8.267      333.072      274.789       68.340        0.059        0.034       22.496        5.108        0.052      335.845        6.750      860.680
10/19/2014  07:31:00      -48.439      -33.942       -9.880       14.665       11.108        9.805      215.053      123.377       96.131        0.202        0.022       59.147        5.218        0.008      335.801        6.675      860.702
10/19/2014  07:32:00      -58.676      -22.409       -9.962       10.983        9.399        7.465      120.637       88.338       55.729        0.215        0.013       62.810        5.363        0.007      335.432        6.061      860.709
10/19/2014  07:33:00      -45.336      -12.972      -12.444        8.389        8.935        6.150       70.374       79.826       37.825        0.128        0.009       47.155        3.972        0.007      335.493        6.163      860.702
10/19/2014  07:34:00      -32.710       -1.490       -5.016        6.780        6.272        4.855       45.971       39.343       23.574        0.060        0.005       32.744        2.218        0.005      335.561        6.279      860.689
10/19/2014  07:35:00      -24.950        4.923       -1.311        8.962        9.743        5.175       80.317       94.935       26.783        0.043        0.010       25.431        2.231        0.008      335.675        6.468      860.691
10/19/2014  07:36:00      -32.870       -1.431        7.464       10.444        9.595        8.507      109.085       92.057       72.370        0.071        0.014       32.902        6.850        0.043      335.687        6.487      860.692
10/19/2014  07:37:00      -46.228      -12.867        1.423       11.004       14.522        7.363      121.096      210.889       54.215        0.135        0.019       47.985        4.184        0.008      335.568        6.288      860.704
10/19/2014  07:38:00      -65.876      -20.634      -13.300        6.493        9.548        5.898       42.160       91.170       34.782        0.256        0.008       69.032        4.098        0.004      335.540        6.243      860.725
10/19/2014  07:39:00      -52.423      -26.575      -10.687       11.514       10.034        5.692      132.566      100.673       32.401        0.192        0.013       58.775        4.161        0.005      335.573        6.297      860.743
10/19/2014  07:40:00      -54.337      -33.763       -9.904       11.426       11.582        8.782      130.561      134.137       77.127        0.227        0.017       63.972        3.260        0.003      335.486        6.151      860.744
10/19/2014  07:41:00      -46.574      -27.941       -6.417       23.170       14.434       12.568      536.853      208.329      157.943        0.195        0.045       54.313       13.993        0.066      335.466        6.118      860.745
10/19/2014  07:42:00      -57.663      -31.649       -4.757       14.787       18.236       10.512      218.648      332.551      110.512        0.251        0.033       65.777        5.786        0.008      335.545        6.250      860.745
10/19/2014  07:43:00      -70.682      -54.012       -3.097       12.769       11.492        9.056      163.039      132.065       82.010        0.415        0.019       88.956        5.152        0.003      335.644        6.415      860.745
10/19/2014  07:44:00      -38.642      -31.362        2.027       13.287       12.208       11.884      176.545      149.032      141.239        0.147        0.023       49.767        5.784        0.014      335.601        6.344      860.756
10/19/2014  07:45:00      -54.446      -23.262       -3.014       12.777        9.069       13.594      163.242       82.253      184.804        0.197        0.022       59.207        7.386        0.016      335.647        6.419      860.743
10/19/2014  07:46:00      -50.297      -30.558       -8.447       17.968       13.405        9.065      322.833      179.681       82.175        0.206        0.029       58.852        9.260        0.025      335.707        6.521      860.748
10/19/2014  07:47:00      -56.498      -38.563       -4.843       13.323       10.449       10.553      177.490      109.191      111.370        0.255        0.020       68.404        4.699        0.005      335.730        6.559      860.753
10/19/2014  07:48:00      -41.884      -19.729        1.431       23.024       12.644        9.191      530.115      159.883       84.466        0.146        0.039       46.298       12.497        0.073      335.687        6.487      860.781
10/19/2014  07:49:00      -23.183      -10.266       -1.049       21.886        8.681        8.374      479.015       75.362       70.131        0.063        0.031       25.354        8.695        0.118      335.740        6.575      860.801
10/19/2014  07:50:00      -43.135      -18.177       -2.845        8.825       11.301        6.386       77.880      127.717       40.782        0.122        0.012       46.808        3.499        0.006      335.673        6.465      860.814
10/19/2014  07:51:00      -38.202      -17.023       -9.531       16.955        8.788        9.509      287.472       77.226       90.415        0.115        0.023       41.823        5.469        0.017      335.765        6.619      860.831
10/19/2014  07:52:00      -28.484      -10.175       -6.369       13.512        8.842        8.291      182.586       78.189       68.738        0.064        0.016       30.246        7.393        0.060      335.870        6.791      860.848
10/19/2014  07:53:00      -53.285       -7.100       -4.986        9.902       10.027        6.786       98.053      100.548       46.054        0.158        0.012       53.756        4.836        0.008      335.801        6.678      860.859
10/19/2014  07:54:00      -51.617        3.166       -5.148        8.504        9.569        6.256       72.311       91.568       39.143        0.145        0.010       51.714        4.725        0.008      335.722        6.547      860.864
10/19/2014  07:55:00      -48.216        0.885       -7.134       10.711        9.908        7.969      114.733       98.166       63.499        0.133        0.014       48.224        5.265        0.012      335.703        6.514      860.866
10/19/2014  07:56:00      -44.065       -9.167       -5.566        8.909        7.410        5.088       79.374       54.913       25.891        0.111        0.008       45.009        2.251        0.003      335.776        6.637      860.866
10/19/2014  07:57:00       -8.730      -11.529      -12.137       14.450        7.860        7.895      208.811       61.780       62.336        0.034        0.017       14.461        7.903        0.299      335.975        6.965      860.880
10/19/2014  07:58:00       -6.664       -0.273        9.901        5.514        2.771        5.615       30.409        7.678       31.527        0.011        0.003        6.669        3.352        0.253      336.383        7.647      860.885
10/19/2014  07:59:00      -34.220        0.514       -7.637        9.948        4.698        5.356       98.970       22.068       28.687        0.069        0.007       34.224        3.781        0.012      335.933        6.894      860.883
10/19/2014  08:00:00      -54.452        0.866       -6.768       10.173        7.188        9.227      103.481       51.660       85.144        0.163        0.012       54.459        3.752        0.005      335.913        6.864      860.886
10/19/2014  08:01:00      -60.748        5.719       -7.653        9.411        7.146        6.557       88.562       51.065       42.994        0.198        0.009       61.016        5.472        0.008      335.870        6.793      860.895
10/19/2014  08:02:00      -64.673       -3.327       -6.586       13.686        8.808        7.705      187.308       77.579       59.360        0.228        0.016       64.759        4.777        0.005      335.910        6.857      860.904
10/19/2014  08:03:00      -79.244       -3.829       -5.859       17.094       14.162       12.054      292.209      200.571      145.300        0.348        0.032       79.337        8.257        0.011      335.832        6.728      860.906
10/19/2014  08:04:00      -53.008       -3.492       -6.507       12.862        7.116        6.599      165.430       50.641       43.545        0.156        0.013       53.123        6.133        0.013      335.954        6.931      860.905
10/19/2014  08:05:00      -23.414      -13.238       -6.773        5.652        7.303        5.905       31.941       53.336       34.867        0.044        0.006       26.897        3.611        0.018      336.064        7.114      860.902
10/19/2014  08:06:00      -18.780        2.571       -3.339        6.866        7.539        5.385       47.147       56.840       29.002        0.025        0.007       18.955        3.846        0.041      336.155        7.266      860.900
10/19/2014  08:07:00      -20.989       15.348       -6.327        8.816        8.887        6.107       77.729       78.985       37.293        0.046        0.010       26.002        4.048        0.024      336.219        7.373      860.906
10/19/2014  08:08:00      -26.843       20.462       -7.112        7.717       10.490        8.191       59.550      110.041       67.100        0.071        0.012       33.752        4.288        0.016      336.228        7.388      860.902
10/19/2014  08:09:00      -29.997        5.433       -7.054        9.948        6.083        5.684       98.958       37.009       32.306        0.057        0.008       30.485        3.728        0.015      336.215        7.366      860.903
10/19/2014  08:10:00      -44.386       -4.417       -3.233        8.765        7.589        7.337       76.833       57.589       53.839        0.109        0.009       44.605        4.799        0.012      336.191        7.328      860.923
10/19/2014  08:11:00      -51.628      -11.758       -6.374        7.825        8.252        7.477       61.226       68.088       55.899        0.151        0.009       52.950        4.733        0.008      336.190        7.325      860.938
10/19/2014  08:12:00      -40.440      -12.453       -5.328        7.938        5.946        6.139       63.010       35.359       37.686        0.098        0.007       42.314        3.114        0.005      336.218        7.372      860.946
10/19/2014  08:13:00      -28.111       -6.498       -1.968        8.315        6.667        4.170       69.143       44.453       17.393        0.048        0.007       28.852        2.496        0.007      336.289        7.491      860.959
10/19/2014  08:14:00      -12.018       -8.187       -1.473       10.873        8.071        5.911      118.223       65.138       34.934        0.022        0.011       14.542        4.855        0.111      336.413        7.698      860.959
10/19/2014  08:15:00      -31.178        4.004       -1.391        9.015        6.130        6.304       81.279       37.578       39.743        0.057        0.008       31.434        3.105        0.010      336.300        7.509      860.957
10/19/2014  08:16:00      -43.232       -8.182       -4.055       10.520        9.534        8.900      110.676       90.901       79.210        0.112        0.014       44.000        6.224        0.020      336.319        7.540      860.962
10/19/2014  08:17:00      -32.312      -20.225       -9.123       12.285        8.916       10.412      150.915       79.492      108.410        0.094        0.017       38.120        5.029        0.017      336.376        7.636      860.980
10/19/2014  08:18:00      -41.826      -16.281       -6.056        7.597        5.358        7.159       57.707       28.704       51.253        0.109        0.007       44.883        3.695        0.007      336.395        7.669      860.991
10/19/2014  08:19:00      -51.708      -14.270       -4.336       12.928        6.577        5.596      167.136       43.255       31.311        0.157        0.012       53.641        5.117        0.009      336.323        7.545      860.981
10/19/2014  08:20:00      -61.754      -14.675       -5.534       17.063       10.382        7.149      291.131      107.782       51.115        0.225        0.023       63.474        2.707        0.002      336.371        7.627      860.968
10/19/2014  08:21:00      -21.773      -14.458       -1.600       14.471        9.516        6.898      209.408       90.563       47.585        0.052        0.017       26.136        8.801        0.113      336.537        7.905      860.966
10/19/2014  08:22:00      -48.157      -24.667      -10.180       16.059       13.512       11.229      257.881      182.566      126.086        0.180        0.028       54.107        6.125        0.013      336.537        7.906      860.978
10/19/2014  08:23:00      -35.333       -3.645       12.230       15.782       18.816       10.850      249.080      354.045      117.728        0.107        0.036       35.521       13.854        0.152      336.734        8.237      860.982
10/19/2014  08:24:00      -10.837        7.880       10.951       11.674       10.737       11.445      136.288      115.278      130.988        0.034        0.019       13.399        6.758        0.254      336.929        8.561      860.992
10/19/2014  08:25:00      -26.607      -13.167       -2.355       14.606        7.834        6.424      213.341       61.370       41.271        0.060        0.016       29.687        3.158        0.011      336.618        8.042      860.991
10/19/2014  08:26:00      -33.812      -17.066        0.812       13.139       14.906       11.852      172.643      222.183      140.477        0.099        0.027       37.874        9.634        0.065      336.667        8.125      861.003
10/19/2014  08:27:00      -28.251      -13.615       -4.588       11.552        6.318        3.737      133.442       39.915       13.962        0.060        0.009       31.360        2.991        0.009      336.670        8.128      861.012
10/19/2014  08:28:00      -21.237       -5.327       -6.445        9.715        7.414        5.842       94.388       54.969       34.127        0.035        0.009       21.895        2.174        0.010      336.803        8.352      861.012
10/19/2014  08:29:00      -18.967       -3.401        0.131        8.577        5.441        4.835       73.572       29.610       23.375        0.025        0.006       19.269        2.038        0.011      336.827        8.389      861.006
10/19/2014  08:30:00      -16.252        2.024       -2.332        6.647        5.321        4.434       44.185       28.309       19.661        0.018        0.005       16.377        2.584        0.025      336.875        8.470      861.006
10/19/2014  08:31:00      -13.963        0.858        3.053       11.071        6.961       11.114      122.558       48.449      123.522        0.025        0.015       13.990        8.252        0.348      337.097        8.842      861.004
10/19/2014  08:32:00      -27.556        1.587       -3.390        7.038       10.184        6.115       49.533      103.719       37.388        0.048        0.010       27.602        3.252        0.014      336.840        8.412      861.005
10/19/2014  08:33:00      -23.156       -7.279       -7.050        6.226        5.282        5.700       38.760       27.902       32.493        0.037        0.005       24.273        3.900        0.026      336.900        8.511      861.019
10/19/2014  08:34:00      -34.169       -5.828       -3.415        5.839        8.303        5.934       34.094       68.932       35.211        0.068        0.007       34.663        3.220        0.009      336.852        8.432      861.040
10/19/2014  08:35:00      -27.823       -3.413       -4.733        8.453        4.588        9.034       71.449       21.052       81.605        0.049        0.009       28.032        6.697        0.057      336.943        8.584      861.045
10/19/2014  08:36:00      -20.784       -2.596       -2.619        7.986        3.755        5.442       63.778       14.102       29.613        0.028        0.005       20.946        1.174        0.003      336.978        8.642      861.043
10/19/2014  08:37:00      -31.985      -18.888       -1.800        9.144       10.550        6.615       83.606      111.303       43.761        0.081        0.012       37.146        4.005        0.012      336.968        8.624      861.038
10/19/2014  08:38:00      -24.366      -30.184       -3.967       10.477        9.981        8.621      109.761       99.616       74.318        0.090        0.014       38.792        4.406        0.013      336.935        8.571      861.038
10/19/2014  08:39:00      -11.113      -11.909        5.003        9.037        8.326        9.859       81.668       69.315       97.196        0.027        0.012       16.289        5.647        0.120      337.172        8.967      861.041
10/19/2014  08:40:00       -7.298        0.338       21.975        7.959       15.436       22.159       63.353      238.285      491.019        0.066        0.040        7.306       16.854        5.322      337.681        9.819      861.051
10/19/2014  08:41:00       -6.135       12.751       30.591       16.207       18.625       14.104      262.652      346.886      198.931        0.097        0.040       14.150       12.721        0.808      337.686        9.829      861.064
10/19/2014  08:42:00        9.584       29.056       52.732       26.678       26.677       19.245      711.693      711.644      370.376        0.275        0.090       30.596       12.714        0.173      337.525        9.557      861.081
10/19/2014  08:43:00       -4.211       25.848       47.397       20.153       26.728       17.648      406.136      714.381      311.456        0.218        0.072       26.189       12.462        0.226      337.657        9.780      861.083
10/19/2014  08:44:00       39.696       51.132       54.597       20.377       20.073       12.791      415.235      402.936      163.600        0.408        0.049       64.732       10.040        0.024      337.287        9.159      861.096
10/19/2014  08:45:00       51.441       34.546       24.157       14.731       17.194       16.547      217.015      295.634      273.795        0.260        0.039       61.965        7.643        0.015      337.252        9.100      861.101
10/19/2014  08:46:00       17.488       28.058       22.619       20.151       19.869       18.371      406.073      394.779      337.504        0.137        0.057       33.062       14.665        0.197      337.608        9.697      861.089
10/19/2014  08:47:00        8.580       14.919       21.549       17.750       27.119       17.214      315.072      735.461      296.338        0.105        0.067       17.210       12.488        0.527      337.849       10.101      861.082
10/19/2014  08:48:00       46.187       30.771       28.213       30.366       19.362       32.628      922.090      374.870     1064.591        0.312        0.118       55.499       25.930        0.218      337.528        9.563      861.066
10/19/2014  08:49:00       87.972       50.748       13.250       19.075       17.781       17.773      363.849      316.157      315.876        0.574        0.050      101.560        7.369        0.005      337.225        9.054      861.056
10/19/2014  08:50:00       59.578       42.539       -2.061       23.107       23.138       18.786      533.938      535.363      352.912        0.339        0.071       73.205       11.162        0.023      337.347        9.260      861.069
10/19/2014  08:51:00       53.244       42.235       24.156       37.380       31.815       30.146     1397.234     1012.193      908.765        0.426        0.166       67.961        4.068        0.004      337.642        9.755      861.077
10/19/2014  08:52:00       12.126      -41.307       17.608       24.261       49.851       24.726      588.581     2485.155      611.359        0.292        0.184       43.050       13.881        0.104      337.764        9.959      861.083
10/19/2014  08:53:00        4.816       11.730       54.674       34.261       41.672       23.272     1173.792     1736.535      541.572        0.330        0.173       12.680       24.850        3.841      337.978       10.318      861.091
10/19/2014  08:54:00       17.405      -17.619       30.633       21.903       48.392       24.821      479.734     2341.752      616.067        0.249        0.172       24.766       16.494        0.444      337.780        9.985      861.103
10/19/2014  08:55:00       64.381       58.473       30.568       30.065       22.634       24.346      903.879      512.311      592.722        0.525        0.100       86.971       11.704        0.018      337.649        9.767      861.099
10/19/2014  08:56:00       72.098       45.859       -1.344       18.142       17.026       17.010      329.129      289.892      289.328        0.411        0.045       85.447       12.543        0.022      337.308        9.196      861.090
10/19/2014  08:57:00       42.099       42.574       25.162       18.665       17.779       27.139      348.364      316.098      736.519        0.281        0.070       59.874       12.180        0.041      337.669        9.800      861.097
10/19/2014  08:58:00       19.159       48.561       55.808       32.711       25.473       20.712     1069.987      648.853      428.985        0.399        0.107       52.204       14.462        0.077      337.780        9.985      861.107
10/19/2014  08:59:00       59.651       64.523       38.056       28.832       16.917       23.222      831.297      286.173      539.277        0.541        0.083       87.872       15.508        0.031      337.337        9.243      861.129
10/19/2014  09:00:00       34.758       45.222       26.310       17.514       14.374       17.266      306.734      206.612      298.110        0.238        0.041       57.036       14.647        0.066      337.478        9.479      861.142
10/19/2014  09:01:00       -7.546       14.744       38.061       15.780       32.833       20.629      249.016     1078.000      425.565        0.174        0.088       16.563       22.791        1.894      338.144       10.595      861.149
10/19/2014  09:02:00      -22.668        6.739        5.884       22.992       17.429       15.911      528.612      303.755      253.172        0.084        0.054       23.649       17.180        0.528      337.774        9.974      861.135
10/19/2014  09:03:00      -36.811       21.102       13.574       23.183       15.552       16.672      537.440      241.858      277.953        0.152        0.053       42.430       15.118        0.127      337.820       10.052      861.121
10/19/2014  09:04:00      -25.852        6.872        1.873       19.422        9.773        8.875      377.233       95.516       78.766        0.064        0.028       26.750        6.790        0.064      337.631        9.735      861.126
10/19/2014  09:05:00      -33.058       -6.332       15.583       15.149       19.329       17.287      229.504      373.613      298.853        0.114        0.045       33.659       11.446        0.116      337.784        9.993      861.134
10/19/2014  09:06:00      -42.661       18.427       -5.703       17.856       13.475       18.699      318.852      181.583      349.654        0.152        0.043       46.471        3.969        0.007      337.713        9.874      861.139
10/19/2014  09:07:00      -13.218        6.519        3.326       41.880       38.690       25.252     1753.972     1496.931      637.639        0.206        0.194       14.738       18.683        1.607      337.920       10.220      861.126
10/19/2014  09:08:00        5.506       30.091       38.076       23.255       22.956       17.496      540.810      526.999      306.099        0.188        0.069       30.590        8.914        0.085      338.246       10.767      861.115
10/19/2014  09:09:00       43.538       40.473       31.435       36.876       18.780       23.067     1359.840      352.681      532.109        0.338        0.112       59.444       20.453        0.118      337.968       10.301      861.098
10/19/2014  09:10:00       82.677       47.155       11.033       35.774       29.039       25.934     1279.758      843.287      672.558        0.599        0.140       95.179       15.331        0.026      338.067       10.469      861.082
10/19/2014  09:11:00       39.905       51.722       41.815       41.220       30.548       38.811     1699.112      933.165     1506.330        0.508        0.207       65.327       25.843        0.156      338.095       10.513      861.071
10/19/2014  09:12:00       13.730       58.401       66.683       24.180       31.759       21.078      584.692     1008.652      444.281        0.504        0.102       59.994        8.902        0.022      338.071       10.474      861.074
10/19/2014  09:13:00       49.749       72.597       59.021       38.633       29.100       33.301     1492.526      846.813     1108.938        0.734        0.172       88.007       26.591        0.091      337.971       10.305      861.087
10/19/2014  09:14:00       89.694       78.719       33.765       27.080       28.651       27.963      733.326      820.897      781.909        0.886        0.117      119.339       15.511        0.017      337.744        9.925      861.098
10/19/2014  09:15:00       44.431      -18.689       10.538       34.067       41.137       28.587     1160.579     1692.249      817.244        0.305        0.184       48.201       25.148        0.272      337.943       10.257      861.119
10/19/2014  09:16:00       34.347      -24.834        8.331       34.446       57.966       31.628     1186.502     3360.036     1000.361        0.371        0.277       42.384       34.149        0.649      338.082       10.492      861.134
10/19/2014  09:17:00       21.026      -62.956       21.174       30.194       36.959       29.408      911.705     1365.995      864.842        0.400        0.157       66.374       25.056        0.142      338.277       10.818      861.153
10/19/2014  09:18:00       32.182      -62.163        7.923       42.847       47.391       32.128     1835.846     2245.867     1032.179        0.504        0.256       69.999       29.090        0.173      338.186       10.667      861.167
10/19/2014  09:19:00       45.973       50.418       46.295       37.640       29.523       27.609     1416.807      871.631      762.275        0.492        0.153       68.231       19.248        0.080      338.435       11.084      861.161
10/19/2014  09:20:00      119.741       80.663       35.962       32.585       26.326       36.145     1061.769      693.042     1306.452        1.260        0.153      144.375       23.661        0.027      337.911       10.206      861.161
10/19/2014  09:21:00       64.078       79.253       59.327       40.924       35.608       29.134     1674.796     1267.944      848.771        0.885        0.190      101.917       23.812        0.055      337.932       10.240      861.155
10/19/2014  09:22:00       54.493       47.195       31.820       38.610       30.102       36.047     1490.742      906.142     1299.421        0.495        0.185       72.089       21.951        0.093      338.074       10.480      861.166
10/19/2014  09:23:00       42.313       56.379       31.532       30.077       23.245       23.225      904.635      540.347      539.415        0.397        0.099       70.491       18.033        0.065      338.188       10.669      861.159
10/19/2014  09:24:00       -6.331        2.558       26.358       15.863       22.537       19.037      251.623      507.919      362.407        0.093        0.056        6.828       11.996        3.087      338.628       11.408      861.150
10/19/2014  09:25:00       12.693       44.350       44.865       26.241       32.108       20.241      688.607     1030.935      409.717        0.313        0.106       46.131       15.190        0.108      338.815       11.722      861.126
10/19/2014  09:26:00       -9.061       33.529       55.367       18.985       29.267       29.274      360.413      856.534      856.958        0.317        0.104       34.732       21.828        0.395      338.802       11.701      861.112
10/19/2014  09:27:00       31.695       57.954       72.854       40.559       47.211       23.704     1645.024     2228.847      561.876        0.705        0.222       66.054       23.959        0.132      338.459       11.125      861.112
10/19/2014  09:28:00       65.508       30.991        7.119       29.392       29.248       31.578      863.866      855.436      997.174        0.401        0.136       72.469       22.538        0.097      338.181       10.657      861.122
10/19/2014  09:29:00       72.493       67.191       17.727       20.617       17.626       25.525      425.048      310.677      651.529        0.574        0.069       98.843       11.685        0.014      338.298       10.853      861.122
10/19/2014  09:30:00       63.363       38.702        3.979       27.610       16.611       18.539      762.286      275.937      343.713        0.346        0.069       74.248       12.076        0.026      338.304       10.865      861.124
10/19/2014  09:31:00        7.566       52.360       53.012       25.303       40.236       21.844      640.228     1618.929      477.160        0.417        0.137       52.903       12.530        0.056      338.735       11.587      861.121
10/19/2014  09:32:00       39.824      -11.760       34.193       28.304       51.180       23.597      801.144     2619.415      556.804        0.343        0.199       41.524       15.253        0.135      338.431       11.078      861.117
10/19/2014  09:33:00       58.578       52.406       10.523       22.452       15.085       28.106      504.113      227.565      789.936        0.390        0.076       78.598       11.056        0.020      338.455       11.118      861.102
10/19/2014  09:34:00       41.465       35.745       -5.122       29.145       20.218       20.838      849.439      408.769      434.231        0.236        0.085       54.746        5.352        0.010      338.864       11.806      861.092
10/19/2014  09:35:00       25.355       16.447       11.398       32.780       48.654       19.079     1074.529     2367.221      364.005        0.242        0.190       30.222       16.208        0.288      338.672       11.482      861.098
10/19/2014  09:36:00       52.490      -63.195       -2.771       34.512       50.981       33.184     1191.112     2599.097     1101.148        0.582        0.245       82.151       31.493        0.147      338.466       11.136      861.097
10/19/2014  09:37:00       16.990       34.193       55.330       27.817       33.054       22.453      773.809     1092.563      504.132        0.344        0.119       38.182       17.145        0.202      338.768       11.645      861.094
10/19/2014  09:38:00       36.794       41.615       47.502       28.725       23.086       29.818      825.108      532.976      889.109        0.379        0.112       55.548       13.245        0.057      338.713       11.552      861.091
10/19/2014  09:39:00       61.718       56.911       36.694       23.232       18.211       18.648      539.712      331.656      347.745        0.481        0.061       83.953        8.793        0.011      338.668       11.476      861.089
10/19/2014  09:40:00       35.718       47.491       77.038       44.832       41.702       22.091     2009.886     1739.054      488.014        0.685        0.212       59.424       14.348        0.058      339.070       12.152      861.083
10/19/2014  09:41:00       29.526       24.264       38.989       35.128       47.638       37.002     1234.010     2269.399     1369.155        0.393        0.244       38.216       30.167        0.623      338.997       12.031      861.079
10/19/2014  09:42:00       53.612       49.795       54.712       43.389       39.594       40.505     1882.580     1567.674     1640.656        0.672        0.255       73.169       33.454        0.209      338.821       11.732      861.070
10/19/2014  09:43:00       32.836        8.334       37.946       43.239       34.032       31.406     1869.621     1158.147      986.313        0.330        0.201       33.878       35.145        1.076      338.926       11.910      861.074
10/19/2014  09:44:00       -5.133       47.592       63.538       19.261       31.790       23.603      371.000     1010.626      557.113        0.413        0.097       47.868       16.803        0.123      339.152       12.290      861.095
10/19/2014  09:45:00       73.392       68.863       22.776       47.270       28.040       38.994     2234.483      786.264     1520.508        0.759        0.227      100.641       27.292        0.074      338.759       11.628      861.111
10/19/2014  09:46:00       79.750       69.925       18.782       27.358       27.531       29.845      748.450      757.950      890.705        0.700        0.120      106.064       12.281        0.013      338.937       11.929      861.126
10/19/2014  09:47:00       52.287       71.126       59.071       47.798       32.020       29.493     2284.661     1025.302      869.837        0.773        0.209       88.277       26.509        0.090      338.979       11.999      861.137
10/19/2014  09:48:00       38.982       38.744       34.394       48.982       61.624       39.088     2399.259     3797.476     1527.834        0.596        0.386       54.961       26.299        0.229      338.957       11.961      861.148
10/19/2014  09:49:00       61.848      100.330       94.691       48.738       39.885       24.667     2375.348     1590.830      608.475        1.372        0.229      117.861       22.007        0.035      338.665       11.472      861.150
10/19/2014  09:50:00      128.349       99.952       35.903       25.129       21.638       35.296      631.490      468.213     1245.773        1.505        0.117      162.677       20.343        0.016      338.499       11.192      861.149
10/19/2014  09:51:00       46.643       22.229       15.922       46.702       24.354       32.417     2181.121      593.113     1050.857        0.337        0.191       51.669       28.757        0.310      339.017       12.062      861.149
10/19/2014  09:52:00       79.347       53.541       15.887       42.982       35.596       36.181     1847.448     1267.061     1309.100        0.692        0.221       95.722       27.161        0.081      338.930       11.916      861.147
10/19/2014  09:53:00       24.387       12.583       12.489       32.084       21.736       19.611     1029.410      472.452      384.585        0.140        0.094       27.441        6.481        0.056      339.242       12.442      861.140
10/19/2014  09:54:00        3.875       -2.552       27.699       18.184       22.324       16.385      330.649      498.352      268.455        0.094        0.055        4.640       12.268        6.991      339.626       13.090      861.138
10/19/2014  09:55:00       44.901       22.072       12.417       55.104       36.266       29.042     3036.409     1315.257      843.451        0.393        0.260       50.032       22.298        0.199      339.292       12.525      861.128
10/19/2014  09:56:00       22.576       35.584       41.141       46.382       45.561       46.058     2151.280     2075.821     2121.295        0.491        0.317       42.142       38.910        0.853      339.426       12.752      861.134
10/19/2014  09:57:00       32.652      -11.503       37.017       37.849       76.816       38.229     1432.541     5900.690     1461.485        0.568        0.440       34.619       49.528        2.047      339.119       12.235      861.137
10/19/2014  09:58:00       14.121       -7.062       51.050       30.967       51.464       22.711      958.986     2648.520      515.778        0.349        0.206       15.789       22.672        2.062      339.425       12.750      861.136
10/19/2014  09:59:00       38.831       45.088       34.244       39.747       39.263       24.344     1579.833     1541.573      592.607        0.421        0.186       59.504       26.798        0.203      339.210       12.388      861.142
10/19/2014  10:00:00       29.421       46.955       78.271       34.902       39.163       28.324     1218.156     1533.727      802.272        0.637        0.178       55.411       26.564        0.230      339.388       12.687      861.125
10/19/2014  10:01:00       37.776       45.706       67.800       33.153       34.016       25.790     1099.154     1157.066      665.140        0.552        0.146       59.296       14.475        0.060      339.279       12.504      861.124
10/19/2014  10:02:00      102.425       67.182       27.152       36.705       23.315       33.117     1347.279      543.594     1096.729        0.936        0.149      122.492       25.436        0.043      339.055       12.126      861.118
10/19/2014  10:03:00       81.856       39.914       -0.604       38.690       46.293       25.236     1496.881     2143.033      636.832        0.628        0.214       91.068       22.649        0.062      339.117       12.229      861.109
10/19/2014  10:04:00       18.129       18.802       25.162       54.416       40.235       29.364     2961.100     1618.879      862.233        0.338        0.272       26.119       25.500        0.953      339.697       13.208      861.102
10/19/2014  10:05:00        7.105       49.965       48.920       24.385       46.116       43.163      594.605     2126.669     1863.054        0.476        0.229       50.467       29.163        0.334      339.872       13.503      861.087
10/19/2014  10:06:00       51.410       35.796        9.828       48.920       52.025       34.663     2393.160     2706.596     1201.550        0.516        0.315       62.645       27.229        0.189      339.623       13.084      861.078
10/19/2014  10:07:00       30.364       90.116       98.951       41.867       42.986       35.171     1752.884     1847.793     1237.018        1.184        0.242       95.094       21.190        0.050      339.372       12.661      861.066
10/19/2014  10:08:00       67.032       76.308       71.902       46.304       46.235       47.708     2144.026     2137.643     2276.018        1.102        0.328      101.569       31.041        0.093      339.164       12.309      861.072
10/19/2014  10:09:00       84.503       95.012       64.392       41.061       32.135       38.403     1686.001     1032.668     1474.772        1.225        0.210      127.154       23.359        0.034      339.008       12.047      861.065
10/19/2014  10:10:00       54.698       49.785       31.792       37.460       31.786       27.299     1403.253     1010.349      745.245        0.482        0.158       73.962       19.901        0.072      339.260       12.472      861.052
10/19/2014  10:11:00       47.454      -23.527       10.152       39.751       70.600       45.685     1580.163     4984.382     2087.128        0.578        0.433       52.966       43.461        0.673      339.401       12.709      861.037
10/19/2014  10:12:00       99.485       88.123       31.788       60.777       51.425       45.269     3693.831     2644.526     2049.288        1.353        0.419      132.902       32.385        0.059      339.355       12.629      861.047
10/19/2014  10:13:00      131.163       66.398       24.006       60.701       56.237       39.744     3684.562     3162.605     1579.586        1.531        0.421      147.012       33.338        0.051      339.533       12.930      861.054
10/19/2014  10:14:00       98.943       75.531        6.369       40.958       34.326       37.641     1677.529     1178.256     1416.818        0.990        0.214      124.477       17.449        0.020      339.502       12.879      861.046
10/19/2014  10:15:00      108.478       70.022       11.788       44.358       43.758       36.812     1967.650     1914.770     1355.116        1.102        0.262      129.114       14.144        0.012      339.559       12.975      861.031
10/19/2014  10:16:00       58.690       60.885       52.985       74.680       49.475       52.688     5577.142     2447.790     2776.002        1.038        0.540       84.567       46.612        0.304      339.797       13.376      861.018
10/19/2014  10:17:00       45.983       47.648       11.973       47.852       30.434       33.828     2289.837      926.221     1144.306        0.444        0.218       66.218       25.155        0.144      339.856       13.476      861.022
10/19/2014  10:18:00       70.141       54.644       11.345       37.409       34.504       33.393     1399.422     1190.518     1115.093        0.587        0.185       88.913       17.831        0.040      339.796       13.375      861.012
10/19/2014  10:19:00       34.938       38.783       39.461       31.783       36.296       32.864     1010.128     1317.369     1080.030        0.384        0.170       52.200       17.110        0.107      339.999       13.719      861.006
10/19/2014  10:20:00       80.256       74.313       14.315       39.453       37.846       35.421     1556.570     1432.348     1254.669        0.821        0.212      109.378       15.036        0.019      339.751       13.299      860.981
10/19/2014  10:21:00       34.424       44.055       16.469       35.682       38.066       35.845     1273.218     1449.029     1284.840        0.370        0.200       55.909       23.526        0.177      340.038       13.783      860.978
10/19/2014  10:22:00       27.845       42.288        4.154       46.480       34.294       27.123     2160.428     1176.112      735.677        0.333        0.204       50.632       20.304        0.161      339.890       13.533      860.968
10/19/2014  10:23:00       26.837       41.814       63.901       32.375       67.934       43.250     1048.146     4615.031     1870.562        0.704        0.377       49.686       44.150        0.790      340.089       13.871      860.974
10/19/2014  10:24:00       41.627       62.585       67.001       58.754       46.550       43.237     3452.021     2166.926     1869.467        0.881        0.374       75.165       33.480        0.198      339.939       13.616      860.961
10/19/2014  10:25:00       55.057       68.790       34.726       26.750       29.908       38.996      715.552      894.517     1520.704        0.605        0.157       88.110        9.482        0.012      339.597       13.039      860.971
10/19/2014  10:26:00       35.361      -29.825       22.038       38.447       46.917       34.886     1478.166     2201.165     1216.999        0.376        0.245       46.260       34.628        0.560      339.985       13.693      860.966
10/19/2014  10:27:00       16.829      -34.863       27.601       37.707       45.427       38.802     1421.821     2063.645     1505.601        0.362        0.250       38.712       24.977        0.416      340.120       13.922      860.957
10/19/2014  10:28:00        3.030      -36.137        4.402       24.751       35.027       25.861      612.608     1226.894      668.770        0.192        0.125       36.264       15.761        0.189      340.020       13.752      860.949
10/19/2014  10:29:00       15.395       25.269       42.905       27.024       41.113       24.414      730.282     1690.256      596.057        0.287        0.151       29.589       20.072        0.460      340.238       14.122      860.935
10/19/2014  10:30:00       -4.874        5.404       40.691       15.053       20.336       13.493      226.580      413.564      182.073        0.127        0.041        7.277       10.953        2.265      340.411       14.412      860.934
10/19/2014  10:31:00      -35.568      -12.171       -7.405       23.727       22.012       19.425      562.949      484.510      377.315        0.145        0.071       37.593        7.708        0.042      339.935       13.610      860.937
10/19/2014  10:32:00        4.062       22.436       24.740       19.013       25.119       23.074      361.491      630.960      532.422        0.133        0.076       22.801       14.166        0.386      340.558       14.664      860.938
10/19/2014  10:33:00        7.160        8.288       25.924       17.355       18.757       13.955      301.188      351.832      194.732        0.082        0.042       10.953        8.239        0.566      340.556       14.659      860.927
10/19/2014  10:34:00       37.197       30.818       31.620       38.627       29.769       23.407     1492.038      886.193      547.888        0.313        0.146       48.305       14.754        0.093      340.143       13.959      860.920
10/19/2014  10:35:00      -23.392      -27.887       -1.576       28.620       30.116       13.566      819.104      906.990      184.026        0.162        0.096       36.399        6.181        0.029      339.997       13.714      860.916
10/19/2014  10:36:00      -28.094      -20.130       -2.419       20.600       16.469       19.132      424.347      271.230      366.047        0.113        0.053       34.561       16.997        0.242      340.164       13.997      860.905
10/19/2014  10:37:00      -54.032      -14.378       -7.227       10.973       17.894       13.483      120.417      320.205      181.794        0.190        0.031       55.912        6.319        0.013      339.921       13.586      860.889
10/19/2014  10:38:00      -20.088      -60.612      -15.291       23.319       18.378       19.228      543.756      337.763      369.711        0.278        0.063       63.854       10.185        0.025      339.872       13.501      860.880
10/19/2014  10:39:00        2.331      -62.914       15.648       21.960       21.290       24.909      482.235      453.279      620.453        0.288        0.078       62.958       10.609        0.028      339.934       13.607      860.867
10/19/2014  10:40:00        5.605      -24.717        7.526       30.073       20.797       19.740      904.363      432.528      389.682        0.121        0.086       25.345       15.451        0.372      340.134       13.945      860.861
10/19/2014  10:41:00       -2.449        4.807       16.961       11.668       11.426       11.428      136.143      130.543      130.592        0.036        0.020        5.395        6.378        1.398      340.975       15.367      860.855
10/19/2014  10:42:00        3.054       27.227       15.596       49.212       20.274       27.192     2421.858      411.016      739.402        0.228        0.179       27.398       13.240        0.234      340.468       14.510      860.855
10/19/2014  10:43:00      -51.850       81.280        4.793       33.050       32.657       38.803     1092.300     1066.455     1505.696        0.649        0.183       96.410       14.751        0.023      340.328       14.273      860.850
10/19/2014  10:44:00      -53.342       39.954        6.717       23.811       22.127       21.642      566.987      489.602      468.356        0.301        0.076       66.646       11.983        0.032      340.319       14.258      860.827
10/19/2014  10:45:00      -49.387       16.529       -0.253       11.466       19.174       12.935      131.476      367.655      167.325        0.169        0.033       52.080        7.248        0.019      340.139       13.954      860.805
10/19/2014  10:46:00      -33.251        9.746        9.013       13.254       20.926       17.404      175.658      437.881      302.887        0.110        0.046       34.650       11.526        0.111      340.493       14.551      860.772
10/19/2014  10:47:00      -32.059       23.173       31.946       20.209       37.478       31.721      408.420     1404.566     1006.248        0.270        0.141       39.557       26.889        0.462      340.689       14.882      860.749
10/19/2014  10:48:00        7.159        1.858       34.331       32.675       26.269       26.063     1067.638      690.050      679.268        0.183        0.122        7.396       26.195       12.543      341.004       15.417      860.740
10/19/2014  10:49:00       21.429       31.630       30.952       36.901       28.282       34.598     1361.671      799.874     1197.016        0.289        0.168       38.205       29.693        0.604      340.737       14.964      860.742
10/19/2014  10:50:00       13.813       20.344       36.926       29.708       41.169       29.214      882.566     1694.846      853.457        0.270        0.172       24.590       26.446        1.157      340.726       14.945      860.750
10/19/2014  10:51:00       72.035       58.258       27.185       45.525       31.484       37.741     2072.527      991.219     1424.399        0.690        0.224       92.645       24.848        0.072      340.511       14.582      860.757
10/19/2014  10:52:00       85.742       68.033       38.710       43.855       41.967       40.628     1923.296     1761.196     1650.656        0.941        0.267      109.454       18.962        0.030      340.659       14.833      860.747
10/19/2014  10:53:00       52.956       25.928        3.764       39.866       36.741       23.840     1589.303     1349.936      568.355        0.350        0.175       58.963       17.342        0.087      340.727       14.947      860.732
10/19/2014  10:54:00       36.901       83.458       -0.826       44.326       46.142       38.629     1964.775     2129.125     1492.175        0.696        0.279       91.252       29.513        0.105      340.627       14.778      860.710
10/19/2014  10:55:00        6.236       77.137        7.413       34.160       49.636       32.071     1166.927     2463.718     1028.580        0.535        0.233       77.388       27.389        0.125      340.601       14.735      860.684
10/19/2014  10:56:00        6.421       79.670       -2.574       28.160       41.452       31.347      792.989     1718.288      982.660        0.494        0.175       79.928       26.424        0.109      340.644       14.808      860.654
10/19/2014  10:57:00       40.697       15.596       14.211       47.551       26.432       24.535     2261.109      698.664      601.968        0.283        0.178       43.583       24.381        0.313      341.087       15.557      860.652
10/19/2014  10:58:00       90.516       68.369        2.066       42.080       37.930       28.960     1770.688     1438.653      838.679        0.846        0.202      113.435       19.286        0.029      340.598       14.728      860.652
10/19/2014  10:59:00       65.095       65.802        1.580       42.481       32.455       28.541     1804.611     1053.337      814.573        0.612        0.184       92.560       21.625        0.055      340.608       14.745      860.671
10/19/2014  11:00:00       23.621       78.589       -5.455       28.060       40.859       29.231      787.362     1669.497      854.448        0.504        0.166       82.062       22.170        0.073      340.700       14.903      860.671
10/19/2014  11:01:00       22.414       48.087        9.315       26.098       32.308       25.697      681.088     1043.823      660.318        0.264        0.119       53.054       17.747        0.112      340.982       15.378      860.674
10/19/2014  11:02:00        3.126       11.874       32.977       25.740       19.950       17.798      662.532      398.005      316.763        0.131        0.069       12.279       11.402        0.862      341.581       16.393      860.675
10/19/2014  11:03:00      -13.596       33.796       18.167       35.672       33.618       30.105     1272.479     1130.154      906.289        0.248        0.165       36.429       27.995        0.591      341.315       15.942      860.671
10/19/2014  11:04:00      -47.510       65.783       -6.462       26.621       32.306       23.601      708.667     1043.683      556.995        0.447        0.115       81.146       23.715        0.085      340.916       15.267      860.673
10/19/2014  11:05:00      -47.206       66.302       -3.237       33.065       30.537       27.459     1093.275      932.495      753.977        0.471        0.139       81.390       21.734        0.071      340.982       15.379      860.665
10/19/2014  11:06:00      -24.217       64.864       11.396       24.482       40.559       27.427      599.351     1644.995      752.246        0.396        0.150       69.237       19.299        0.078      341.209       15.763      860.651
10/19/2014  11:07:00      -21.292       56.865      -12.025       19.786       31.533       19.846      391.491      994.359      393.852        0.281        0.089       60.720       12.603        0.043      340.779       15.037      860.634
10/19/2014  11:08:00       23.445       45.118        3.430       26.899       32.145       33.990      723.551     1033.281     1155.290        0.275        0.146       50.846       28.158        0.307      341.163       15.686      860.620
10/19/2014  11:09:00       -8.663       68.607        5.759       22.210       44.384       26.729      493.265     1969.898      714.450        0.400        0.159       69.152       30.903        0.200      341.062       15.515      860.618
10/19/2014  11:10:00      -12.739       63.892        2.006       18.539       34.043       20.716      343.698     1158.951      429.154        0.309        0.097       65.150       19.071        0.086      341.320       15.952      860.620
10/19/2014  11:11:00       -9.340       55.811        5.932       33.332       42.589       24.205     1111.045     1813.812      585.864        0.337        0.176       56.587       19.996        0.125      341.511       16.274      860.626
10/19/2014  11:12:00       -8.924       40.318       15.840       26.633       42.441       23.339      709.318     1801.198      544.686        0.251        0.153       41.294       17.699        0.184      341.843       16.837      860.623
10/19/2014  11:13:00        0.330       17.932       21.185       24.573       26.603       24.743      603.851      707.727      612.229        0.135        0.096       17.935       16.913        0.889      342.007       17.115      860.614
10/19/2014  11:14:00       14.043       19.174       27.641       27.480       19.882       21.075      755.175      395.300      444.168        0.146        0.080       23.767        7.647        0.104      341.947       17.014      860.595
10/19/2014  11:15:00      -18.022       79.359        2.204       19.702       40.108       23.654      388.151     1608.661      559.508        0.459        0.128       81.380       22.011        0.073      341.463       16.194      860.594
10/19/2014  11:16:00       -9.674       58.282        4.455       19.008       44.041       28.837      361.297     1939.634      831.567        0.332        0.157       59.079       26.692        0.204      341.671       16.546      860.578
10/19/2014  11:17:00       12.440       30.533       12.176       23.770       27.588       25.123      565.029      761.078      631.157        0.160        0.098       32.970       17.759        0.290      341.668       16.541      860.572
10/19/2014  11:18:00      -79.304       -3.137        5.344       32.930       28.338       27.409     1084.390      803.028      751.243        0.448        0.132       79.366       23.651        0.089      341.235       15.808      860.578
10/19/2014  11:19:00       -1.854       -0.153       11.244       34.015       44.073       24.828     1157.043     1942.408      616.408        0.192        0.186        1.860       18.149       95.195      341.620       16.460      860.578
10/19/2014  11:20:00        9.293       66.600        3.334       30.960       43.366       24.511      958.552     1880.637      600.770        0.399        0.172       67.246       24.071        0.128      341.473       16.212      860.571
10/19/2014  11:21:00       -0.417       39.364       20.710       22.377       39.784       29.176      500.748     1582.776      851.259        0.246        0.147       39.366       24.045        0.373      342.013       17.126      860.562
10/19/2014  11:22:00       -1.675       30.778       19.932       34.952       40.119       27.381     1221.633     1609.555      749.736        0.246        0.179       30.823       22.851        0.550      342.035       17.164      860.569
10/19/2014  11:23:00       11.725       25.887       20.077       23.181       44.260       25.353      537.359     1958.920      642.783        0.217        0.157       28.419       20.341        0.512      342.150       17.357      860.560
10/19/2014  11:24:00       11.062        7.651       27.576       22.291       22.461       20.747      496.880      504.500      430.444        0.119        0.072       13.450       11.398        0.718      342.313       17.635      860.578
10/19/2014  11:25:00       31.644       17.993       -1.655       27.023       18.146       23.132      730.221      329.272      535.100        0.146        0.080       36.402       15.687        0.186      341.617       16.456      860.569
10/19/2014  11:26:00       49.990       25.823      -15.492       37.758       43.318       25.479     1425.656     1876.482      649.188        0.368        0.198       56.266       26.052        0.214      341.314       15.942      860.571
10/19/2014  11:27:00       37.564        1.873       26.841       41.150       47.688       36.820     1693.334     2274.139     1355.711        0.373        0.266       37.611       41.878        1.240      341.598       16.423      860.559
10/19/2014  11:28:00       46.255       33.518       35.654       44.372       60.629       33.392     1968.862     3675.913     1115.013        0.565        0.338       57.123       35.898        0.395      341.608       16.439      860.560
10/19/2014  11:29:00       18.339       29.738       39.242       33.725       26.798       17.901     1137.369      718.157      320.429        0.247        0.109       34.938       10.005        0.082      342.242       17.516      860.554
10/19/2014  11:30:00       -9.432       25.922       24.806       19.070       19.678       17.244      363.653      387.208      297.357        0.121        0.052       27.585        4.791        0.030      342.485       17.928      860.561
10/19/2014  11:31:00       -6.234       87.162        8.014       23.749       38.182       24.061      564.035     1457.864      578.911        0.515        0.130       87.385       19.813        0.051      342.181       17.412      860.562
10/19/2014  11:32:00      -10.100       26.601       15.874       19.367       30.783       26.913      375.096      947.612      724.332        0.155        0.102       28.454       17.471        0.377      342.664       18.232      860.568
10/19/2014  11:33:00      -23.302       59.867        2.967       19.947       32.650       27.483      397.867     1066.055      755.328        0.318        0.111       64.242       21.956        0.117      342.267       17.559      860.557
10/19/2014  11:34:00       -9.985       57.282        6.969       23.434       34.391       26.597      549.155     1182.751      707.389        0.293        0.122       58.146       23.130        0.158      342.268       17.559      860.551
10/19/2014  11:35:00       -3.672       16.870       27.795       29.437       14.743       15.349      866.527      217.345      235.606        0.119        0.066       17.265       12.118        0.493      342.879       18.599      860.535
10/19/2014  11:36:00      -13.394       40.835       14.338       26.020       42.118       25.278      677.047     1773.935      638.977        0.257        0.154       42.976       18.296        0.181      342.669       18.241      860.525
10/19/2014  11:37:00       20.904       32.540       36.345       30.640       45.325       22.770      938.801     2054.313      518.458        0.316        0.176       38.677        9.022        0.054      342.778       18.427      860.505
10/19/2014  11:38:00       52.320       41.508       22.629       30.780       29.339       31.415      947.429      860.763      986.894        0.388        0.140       66.786       14.609        0.048      342.200       17.443      860.496
10/19/2014  11:39:00       30.511        6.033       12.817       16.944       16.524       17.730      287.088      273.043      314.350        0.100        0.044       31.102        7.319        0.055      342.288       17.592      860.487
10/19/2014  11:40:00       31.176      -47.436       -1.547       36.028       33.243       25.778     1298.016     1105.123      664.511        0.315        0.153       56.764       20.372        0.129      341.625       16.467      860.476
10/19/2014  11:41:00       20.696       24.146       54.164       40.430       63.371       40.280     1634.561     4015.851     1622.502        0.561        0.364       31.802       44.637        1.970      342.105       17.282      860.466
10/19/2014  11:42:00       92.215       34.897       39.957       54.824       49.900       58.945     3005.654     2489.967     3474.488        1.014        0.449       98.598       45.228        0.210      342.011       17.123      860.459
10/19/2014  11:43:00       19.873       -3.854       34.071       18.556       41.409       30.272      344.325     1714.734      916.388        0.227        0.149       20.244       18.930        0.874      342.368       17.730      860.454
10/19/2014  11:44:00       46.068       21.941       37.990       39.208       62.318       32.558     1537.284     3883.553     1060.034        0.526        0.324       51.026       29.802        0.341      342.192       17.431      860.426
10/19/2014  11:45:00       61.250       46.722       42.384       48.235       47.960       32.979     2326.652     2300.179     1087.624        0.672        0.286       77.036       12.445        0.026      342.505       17.963      860.420
10/19/2014  11:46:00       67.420       63.071        8.851       41.764       29.668       30.006     1744.257      880.181      900.375        0.606        0.176       92.322       15.752        0.029      342.521       17.988      860.408
10/19/2014  11:47:00       58.353       46.434       10.879       44.620       38.276       28.632     1990.908     1465.074      819.818        0.498        0.214       74.573       22.318        0.090      342.620       18.158      860.403
10/19/2014  11:48:00       -6.738       16.764       27.848       31.823       57.892       29.864     1012.690     3351.489      891.830        0.318        0.263       18.068       28.946        2.567      342.863       18.571      860.383
10/19/2014  11:49:00       10.028      -44.553       41.843       46.388       47.179       34.645     2151.892     2225.892     1200.269        0.471        0.279       45.668       22.708        0.247      342.641       18.194      860.374
10/19/2014  11:50:00       52.433       22.510       25.381       35.558       44.355       37.502     1264.370     1967.340     1406.389        0.427        0.232       57.060       14.826        0.068      342.204       17.451      860.358
10/19/2014  11:51:00       60.100       41.043       16.245       36.374       22.772       27.645     1323.065      518.555      764.236        0.408        0.130       72.778       10.174        0.020      342.402       17.786      860.351
10/19/2014  11:52:00       36.616       39.871       19.402       42.857       33.667       22.351     1836.746     1133.436      499.552        0.339        0.173       54.133       14.851        0.075      342.920       18.667      860.335
10/19/2014  11:53:00       34.733      -25.617       12.161       28.951       42.939       32.664      838.164     1843.726     1066.951        0.288        0.187       43.158       30.254        0.491      342.503       17.958      860.339
10/19/2014  11:54:00       -1.688        4.347       24.158       19.643       33.129       24.040      385.857     1097.531      577.942        0.133        0.103        4.664       13.300        8.133      342.628       18.171      860.313
10/19/2014  11:55:00       34.272      -29.189       12.546       44.837       50.233       34.784     2010.329     2523.327     1209.928        0.396        0.287       45.018       18.238        0.164      342.274       17.569      860.304
10/19/2014  11:56:00       32.020       47.208       25.463       33.562       51.814       41.182     1126.379     2684.653     1695.965        0.470        0.275       57.042       30.017        0.277      342.766       18.405      860.286
10/19/2014  11:57:00       42.247       34.778       16.851       23.784       26.418       31.083      565.666      697.933      966.148        0.275        0.111       54.720       20.453        0.140      342.942       18.706      860.268
10/19/2014  11:58:00       33.032       17.393       35.424       35.825       37.642       22.830     1283.433     1416.900      521.196        0.293        0.161       37.332       12.757        0.117      343.151       19.062      860.251
10/19/2014  11:59:00       39.423       41.494       48.336       46.589       31.056       27.679     2170.540      964.503      766.117        0.476        0.195       57.236       10.257        0.032      343.134       19.032      860.233
10/19/2014  12:00:00       80.908       61.999       31.452       53.368       30.663       34.762     2848.167      940.219     1208.415        0.819        0.250      101.931       12.189        0.014      343.102       18.978      860.212
10/19/2014  12:01:00      130.456       60.136       10.309       58.923       57.379       45.977     3471.955     3292.325     2113.857        1.481        0.444      143.649       20.979        0.021      342.830       18.512      860.190
10/19/2014  12:02:00       42.333       87.819        1.433       40.583       35.447       35.941     1646.998     1256.525     1291.780        0.685        0.210       97.489       21.483        0.049      342.901       18.635      860.169
10/19/2014  12:03:00       35.152       51.102       15.870       35.694       39.680       31.961     1274.029     1574.521     1021.510        0.398        0.194       62.025       22.990        0.137      343.172       19.098      860.141
10/19/2014  12:04:00       71.333        2.479        6.151       34.172       44.579       35.269     1167.711     1987.293     1243.930        0.476        0.220       71.376       21.778        0.093      342.524       17.994      860.129
10/19/2014  12:05:00       40.522      -42.454       -5.135       34.031       42.172       32.627     1158.094     1778.478     1064.506        0.374        0.200       58.689       22.233        0.144      342.851       18.550      860.116
10/19/2014  12:06:00       40.248       85.514       76.070       89.899       55.472       52.361     8081.786     3077.119     2741.629        1.431        0.695       94.512       47.044        0.248      343.319       19.346      860.097
10/19/2014  12:07:00       89.628       72.345       31.556       69.455       38.221       51.612     4824.065     1460.809     2663.842        1.160        0.447      115.182       41.898        0.132      342.865       18.573      860.091
10/19/2014  12:08:00       66.147       32.179       10.884       37.336       54.734       27.866     1393.988     2995.782      776.487        0.535        0.258       73.559       16.585        0.051      342.855       18.557      860.084
10/19/2014  12:09:00       23.921       -7.582       25.385       45.948       55.761       31.771     2111.202     3109.266     1009.412        0.375        0.311       25.094       37.916        2.283      342.838       18.528      860.068
10/19/2014  12:10:00       37.697        7.548       24.617       48.033       57.343       33.187     2307.140     3288.246     1101.355        0.439        0.335       38.445       32.843        0.730      343.092       18.961      860.054
10/19/2014  12:11:00       49.199       59.094       18.340       43.622       37.547       25.124     1902.880     1409.758      631.200        0.510        0.197       76.893       21.191        0.076      343.301       19.317      860.033
10/19/2014  12:12:00       41.849       38.882       22.085       25.114       23.702       30.220      630.698      561.784      913.230        0.293        0.105       57.124       11.164        0.038      343.220       19.178      860.012
10/19/2014  12:13:00       92.888       75.662        8.385       69.256       52.368       42.004     4796.340     2742.372     1764.308        1.186        0.465      119.804       28.291        0.056      343.316       19.340      859.992
10/19/2014  12:14:00       90.567       55.960       36.513       72.854       51.089       45.328     5307.760     2610.115     2054.660        1.132        0.499      106.461       37.015        0.121      343.434       19.543      859.958
10/19/2014  12:15:00       -5.298       30.732       63.161       35.086       54.086       28.026     1231.024     2925.347      785.436        0.495        0.247       31.185       19.290        0.383      343.627       19.873      859.949
10/19/2014  12:16:00       52.476       64.683       50.690       54.615       50.565       48.450     2982.811     2556.820     2347.373        0.870        0.394       83.292       41.299        0.246      343.617       19.854      859.923
10/19/2014  12:17:00       52.308      143.281      145.739       70.527       82.956       62.768     4974.000     6881.753     3939.789        3.015        0.790      152.530       58.851        0.149      343.054       18.893      859.902
10/19/2014  12:18:00       57.773       91.248       89.892       58.814       41.939       45.743     3459.140     1758.889     2092.389        1.353        0.366      108.000       41.888        0.150      343.257       19.241      859.901
10/19/2014  12:19:00       99.175       49.445       19.697       62.423       52.984       49.711     3896.627     2807.317     2471.164        1.092        0.459      110.817       27.522        0.062      343.487       19.634      859.874
10/19/2014  12:20:00       28.390        2.238       29.481       36.997       53.874       36.154     1368.745     2902.438     1307.132        0.363        0.279       28.479       35.454        1.550      343.546       19.736      859.863
10/19/2014  12:21:00       76.900      -11.781        9.216       52.950       85.583       39.925     2803.716     7324.436     1593.970        0.893        0.586       77.797       41.960        0.291      343.318       19.344      859.846
10/19/2014  12:22:00       23.732       32.306       39.541       56.334       38.834       37.796     3173.552     1508.105     1428.509        0.464        0.306       40.086       28.440        0.503      343.563       19.762      859.819
10/19/2014  12:23:00       29.118      -59.349        1.287       30.799       40.602       31.450      948.550     1648.536      989.090        0.398        0.179       66.107       23.334        0.125      343.505       19.664      859.814
10/19/2014  12:24:00       22.505       34.019       -1.764       27.708       38.055       23.615      767.723     1448.196      557.677        0.222        0.139       40.789       14.041        0.119      343.410       19.503      859.799
10/19/2014  12:25:00       34.800       25.995       19.132       35.800       28.272       30.389     1281.646      799.283      923.462        0.263        0.150       43.437       17.171        0.156      343.682       19.968      859.770
10/19/2014  12:26:00       11.699        0.031       15.660       21.965       36.886       36.277      482.459     1360.547     1316.033        0.177        0.158       11.699       24.345        4.331      343.644       19.902      859.765
10/19/2014  12:27:00       41.456       16.450       23.825       49.409       39.235       37.199     2441.236     1539.417     1383.798        0.396        0.268       44.600       21.099        0.224      343.543       19.729      859.741
10/19/2014  12:28:00       78.109       75.664       62.660       61.464       48.415       31.754     3777.861     2344.004     1008.311        1.144        0.357      108.748       28.690        0.070      343.857       20.263      859.731
10/19/2014  12:29:00       31.389       66.139       62.158       47.003       42.256       37.764     2209.251     1785.609     1426.101        0.732        0.271       73.210       22.984        0.099      343.904       20.346      859.730
10/19/2014  12:30:00      120.260       62.893       22.263       38.788       31.086       38.355     1504.480      966.360     1471.130        1.143        0.197      135.713       25.627        0.036      343.681       19.965      859.726
10/19/2014  12:31:00       52.290       17.620       -1.926       34.510       27.229       25.037     1190.935      741.395      626.841        0.280        0.128       55.179       21.284        0.149      343.516       19.683      859.720
10/19/2014  12:32:00       58.971      -57.683        7.227       37.354       32.715       35.495     1395.341     1070.241     1259.908        0.529        0.186       82.492       18.067        0.048      343.087       18.952      859.715
10/19/2014  12:33:00       21.343      -12.905       29.633       22.338       25.737       25.348      498.984      662.416      642.536        0.165        0.090       24.941       14.185        0.323      343.781       20.134      859.696
10/19/2014  12:34:00        8.023        6.707       21.638       17.834       20.723       18.438      318.062      429.463      339.954        0.083        0.054       10.457       13.473        1.660      343.874       20.292      859.678
10/19/2014  12:35:00       45.462        8.391       10.688       43.776       63.305       30.336     1916.377     4007.560      920.270        0.455        0.342       46.229       34.570        0.559      343.291       19.300      859.664
10/19/2014  12:36:00       81.827       95.339       50.151       58.359       38.767       43.847     3405.767     1502.865     1922.541        1.256        0.342      125.639       20.686        0.027      343.878       20.301      859.633
10/19/2014  12:37:00       46.597       76.977       92.025       87.453       60.801       48.668     7648.066     3696.709     2368.581        1.514        0.686       89.982       33.124        0.136      343.981       20.474      859.612
10/19/2014  12:38:00      120.177       64.764       20.488       39.136       45.172       38.822     1531.614     2040.520     1507.124        1.207        0.254      136.517       15.984        0.014      343.408       19.499      859.610
10/19/2014  12:39:00       32.858      -32.330        9.906       29.481       27.581       26.100      869.101      760.723      681.198        0.227        0.116       46.096       27.493        0.356      343.618       19.858      859.581
10/19/2014  12:40:00       13.873       11.517       31.984       21.100       15.290       12.786      445.209      233.770      163.474        0.110        0.042       18.031        9.046        0.252      344.115       20.705      859.565
10/19/2014  12:41:00      118.882       78.068       30.677       57.443       40.778       36.472     3299.724     1662.865     1330.221        1.373        0.315      142.223       29.673        0.044      343.629       19.875      859.542
10/19/2014  12:42:00       98.967       81.638        9.343       42.683       46.198       36.676     1821.859     2134.232     1345.162        1.092        0.265      128.293       30.180        0.055      343.816       20.194      859.516
10/19/2014  12:43:00       17.199       75.146      -10.792       33.530       30.380       22.291     1124.259      922.931      496.906        0.430        0.127       77.089       23.334        0.092      343.841       20.238      859.508
10/19/2014  12:44:00      -10.374       84.690      -16.098       19.772       27.276       14.788      390.930      743.957      218.697        0.445        0.068       85.323        9.314        0.012      343.779       20.131      859.476
10/19/2014  12:45:00      -15.536        5.552       17.959       16.695       29.870       22.258      278.726      892.239      495.411        0.113        0.083       16.498       16.559        1.007      344.636       21.596      859.469
10/19/2014  12:46:00      -28.217        8.044        6.338       28.614       32.761       22.949      818.790     1073.253      526.661        0.166        0.121       29.341       22.765        0.602      344.059       20.610      859.445
10/19/2014  12:47:00       37.738       14.379        8.597       40.652       21.448       20.642     1652.560      459.997      426.095        0.212        0.127       40.384        9.632        0.057      343.770       20.117      859.428
10/19/2014  12:48:00       28.318       23.509        8.187       36.760       32.982       36.356     1351.276     1087.839     1321.754        0.259        0.188       36.805       12.586        0.117      344.071       20.629      859.408
10/19/2014  12:49:00       70.787       27.202        5.781       46.744       35.472       29.679     2185.002     1258.289      880.847        0.505        0.216       75.834       15.211        0.040      343.710       20.014      859.375
10/19/2014  12:50:00       27.467       46.532       13.864       53.254       54.770       31.909     2836.002     2999.747     1018.156        0.498        0.343       54.034       19.140        0.125      344.250       20.935      859.353
10/19/2014  12:51:00       56.171       36.774        6.063       52.631       45.029       30.978     2769.993     2027.576      959.663        0.515        0.288       67.138       30.123        0.201      344.375       21.150      859.327
10/19/2014  12:52:00       45.810      148.611      -19.573       55.728       76.603       48.604     3105.577     5867.948     2362.387        1.795        0.567      155.512       41.199        0.070      344.137       20.741      859.305
10/19/2014  12:53:00       77.746      122.150       -6.083       66.107       58.189       51.503     4370.106     3385.932     2652.515        1.570        0.520      144.793       45.072        0.097      344.144       20.753      859.277
10/19/2014  12:54:00      107.034       75.573       -4.440       47.299       45.318       37.935     2237.184     2053.742     1439.074        1.146        0.287      131.025       16.213        0.015      344.010       20.525      859.277
10/19/2014  12:55:00       31.740       18.749       -2.120       31.842       25.583       22.293     1013.922      654.506      496.977        0.176        0.108       36.864       15.156        0.169      344.082       20.648      859.269
10/19/2014  12:56:00       15.626      -26.034       15.372       21.054       25.554       24.847      443.256      653.025      617.366        0.144        0.086       30.364       18.365        0.366      344.348       21.103      859.231
10/19/2014  12:57:00       23.006      -28.962       17.905       22.274       32.074       20.941      496.110     1028.731      438.509        0.183        0.098       36.988       14.599        0.156      344.141       20.749      859.211
10/19/2014  12:58:00        7.356      -42.497       17.410       36.358       27.321       27.660     1321.910      746.452      765.080        0.250        0.142       43.129       11.623        0.073      343.746       20.074      859.186
10/19/2014  12:59:00       20.754      -23.005       20.475       28.757       39.891       34.244      826.969     1591.254     1172.684        0.248        0.180       30.983       32.136        1.076      344.130       20.731      859.181
10/19/2014  13:00:00       20.296      -18.308       17.085       31.704       48.341       30.624     1005.161     2336.899      937.826        0.266        0.214       27.333       21.945        0.645      344.146       20.759      859.153
10/19/2014  13:01:00       74.521        6.347       -7.101       39.278       49.076       22.459     1542.735     2408.465      504.408        0.505        0.223       74.791       17.663        0.056      343.658       19.926      859.149
10/19/2014  13:02:00       32.286        2.141       40.852       38.442       69.701       51.262     1477.790     4858.210     2627.830        0.584        0.448       32.357       54.997        2.889      343.922       20.376      859.130
10/19/2014  13:03:00       91.726       41.308       45.369       72.087       42.235       38.076     5196.471     1783.830     1449.753        1.030        0.422      100.598       36.398        0.131      344.091       20.663      859.127
10/19/2014  13:04:00       73.347       53.451       19.909       42.580       25.356       27.107     1813.018      642.929      734.783        0.591        0.160       90.757       15.993        0.031      344.410       21.209      859.110
10/19/2014  13:05:00       63.859       50.542       14.033       57.240       45.416       33.163     3276.386     2062.597     1099.798        0.663        0.322       81.440       16.795        0.043      344.436       21.254      859.099
10/19/2014  13:06:00       14.857       41.025       14.012       29.683       27.394       28.973      881.068      750.411      839.447        0.229        0.124       43.633       22.154        0.258      344.811       21.896      859.084
10/19/2014  13:07:00       14.177      -14.746       -3.281       24.564       26.172       16.495      603.408      684.977      272.096        0.099        0.078       20.455       15.635        0.584      344.424       21.234      859.070
10/19/2014  13:08:00       41.163      -16.515       38.914       57.376       53.256       31.534     3291.959     2836.233      994.389        0.530        0.356       44.352       25.602        0.333      344.493       21.353      859.050
10/19/2014  13:09:00      139.506       65.107       40.386       72.384       56.072       45.310     5239.422     3144.102     2052.978        1.788        0.522      153.951       38.284        0.062      344.100       20.679      859.037
10/19/2014  13:10:00       53.817        7.117        8.025       44.683       40.570       39.076     1996.566     1645.936     1526.947        0.409        0.258       54.285       19.472        0.129      343.964       20.447      859.026
10/19/2014  13:11:00       70.832       58.047       19.567       39.620       32.248       39.737     1569.727     1039.920     1579.007        0.648        0.209       91.578       21.497        0.055      344.524       21.404      859.005
10/19/2014  13:12:00       61.510       26.512       11.684       33.525       34.712       29.862     1123.928     1204.949      891.759        0.392        0.161       66.981       14.948        0.050      344.785       21.850      858.993
10/19/2014  13:13:00       14.245       35.037       53.640       28.521       31.320       23.024      813.445      980.926      530.090        0.332        0.116       37.822       15.646        0.171      344.986       22.195      858.991
10/19/2014  13:14:00       14.876      -12.278       -5.194       24.867       21.847       23.321      618.381      477.280      543.879        0.102        0.082       19.289       18.639        0.934      344.403       21.196      858.986
10/19/2014  13:15:00       15.634      -36.550      -10.270       18.480       55.129       17.277      341.513     3039.193      298.507        0.268        0.184       39.753        8.282        0.043      344.368       21.138      858.976
10/19/2014  13:16:00       47.970      -28.152       18.972       27.096       35.407       31.638      734.190     1253.632     1000.991        0.322        0.149       55.621       26.624        0.229      344.201       20.852      858.959
10/19/2014  13:17:00      -12.376      -12.746        6.658       33.681       23.245       18.518     1134.429      540.338      342.912        0.119        0.101       17.766       12.066        0.461      344.695       21.697      858.947
10/19/2014  13:18:00      -60.146        7.240      -22.391       22.441       27.344       20.165      503.617      747.682      406.608        0.291        0.083       60.581       14.772        0.059      344.597       21.527      858.927
10/19/2014  13:19:00      -26.166       30.007      -15.522       40.155       22.263       19.530     1612.453      495.646      381.417        0.216        0.124       39.813       13.403        0.113      344.850       21.963      858.915
10/19/2014  13:20:00       -7.923      -18.585        3.480       28.873       16.894       15.580      833.647      285.423      242.751        0.089        0.068       20.203        9.456        0.219      344.625       21.577      858.906
10/19/2014  13:21:00       -6.276        9.440       15.293       22.208       26.752       19.152      493.189      715.691      366.798        0.097        0.079       11.336        7.497        0.437      344.730       21.756      858.883
10/19/2014  13:22:00       -0.883      -16.259       23.039       15.479       31.203       14.311      239.594      973.652      204.800        0.111        0.071       16.283       11.655        0.512      344.771       21.825      858.864
10/19/2014  13:23:00       86.707       44.365       17.934       39.636       41.674       33.922     1570.987     1736.693     1150.676        0.713        0.223       97.398       23.036        0.056      344.440       21.260      858.852
10/19/2014  13:24:00       65.210        3.722       20.760       36.412       18.517       23.696     1325.825      342.871      561.479        0.346        0.112       65.316        5.811        0.008      344.080       20.646      858.835
10/19/2014  13:25:00       28.226       25.082        0.642       33.572       38.288       22.160     1127.086     1465.954      491.082        0.225        0.154       37.760       15.895        0.177      344.102       20.681      858.828
10/19/2014  13:26:00       51.127      -12.175       -0.599       52.641       38.590       21.055     2771.068     1489.159      443.332        0.373        0.235       52.557       17.785        0.115      344.704       21.712      858.811
10/19/2014  13:27:00       -6.442      -26.871       15.098       21.642       43.248       28.420      468.361     1870.400      807.681        0.207        0.157       27.632       12.330        0.199      345.055       22.313      858.805
10/19/2014  13:28:00       85.889     -171.546      -13.068       59.739       71.955       32.738     3568.736     5177.459     1071.750        2.340        0.491      191.846       34.766        0.033      344.824       21.916      858.796
10/19/2014  13:29:00        7.952       -1.386       -1.155       47.161       55.315       34.502     2224.161     3059.729     1190.418        0.327        0.324        8.071       18.601        5.311      345.002       22.220      858.777
10/19/2014  13:30:00       38.870      -21.306       36.623       53.768       78.140       64.177     2890.973     6105.834     4118.732        0.821        0.656       44.327       52.431        1.399      345.131       22.442      858.765
10/19/2014  13:31:00       57.963      -77.452       12.157       51.787      100.806       47.090     2681.926    10161.785     2217.469        1.228        0.753       96.740       59.002        0.372      344.926       22.092      858.750
10/19/2014  13:32:00       41.144       50.035       52.726       43.074       38.726       35.597     1855.370     1499.729     1267.112        0.580        0.231       64.779       28.557        0.194      344.614       21.558      858.735
10/19/2014  13:33:00       39.747       61.324       26.313       33.335       28.102       36.765     1111.218      789.722     1351.632        0.464        0.163       73.078       26.206        0.129      344.245       20.928      858.705
10/19/2014  13:34:00       70.878       58.606       31.392       48.326       35.364       34.846     2335.394     1250.615     1214.222        0.712        0.240       91.970       22.262        0.059      344.757       21.803      858.683
10/19/2014  13:35:00       94.816       64.700       38.548       85.477       47.872       48.468     7306.254     2291.700     2349.162        1.330        0.597      114.787       51.439        0.201      344.850       21.960      858.664
10/19/2014  13:36:00       89.152     -101.496       -4.090       65.781       81.921       49.547     4327.098     6711.110     2454.897        1.588        0.675      135.090       56.582        0.175      344.899       22.044      858.652
10/19/2014  13:37:00      105.389     -164.352      -31.788       69.543       83.394       48.231     4836.196     6954.553     2326.207        2.662        0.706      195.239       30.068        0.024      344.808       21.886      858.660
10/19/2014  13:38:00      -55.182      -24.002      -10.016       43.024       43.358       35.134     1851.108     1879.904     1234.372        0.434        0.248       60.176       26.907        0.200      344.803       21.881      858.656
10/19/2014  13:39:00      -13.151      -20.552        7.923       33.604       55.249       30.659     1129.235     3052.422      940.002        0.289        0.256       24.399       30.278        1.540      345.136       22.450      858.632
10/19/2014  13:40:00      -33.641      -95.265      -10.903       47.436       35.024       34.734     2250.128     1226.695     1206.444        0.750        0.234      101.030       14.238        0.020      345.051       22.304      858.634
10/19/2014  13:41:00     -100.522      -86.958      -14.318       58.197       58.760       39.228     3386.908     3452.689     1538.842        1.312        0.419      132.915       33.002        0.062      344.922       22.084      858.623
10/19/2014  13:42:00     -105.794       -4.218       -2.764       44.009       44.671       34.841     1936.763     1995.520     1213.882        0.818        0.257      105.878       32.000        0.091      344.822       21.912      858.609
10/19/2014  13:43:00      -74.936       23.540       -9.186       46.749       16.181       21.212     2185.445      261.826      449.945        0.458        0.145       78.546       28.618        0.133      344.758       21.803      858.594
10/19/2014  13:44:00       34.603       -5.786        9.805       50.944       36.983       24.943     2595.341     1367.767      622.154        0.296        0.229       35.083       14.357        0.167      344.644       21.609      858.563
10/19/2014  13:45:00       29.728       27.369        5.662       25.093       41.857       25.317      629.650     1752.000      640.952        0.234        0.151       40.408       19.841        0.241      344.446       21.271      858.547
10/19/2014  13:46:00       68.340       69.146       52.230       50.082       45.867       37.592     2508.254     2103.750     1413.194        0.910        0.301       97.219       26.168        0.072      344.870       21.996      858.534
10/19/2014  13:47:00       90.919       66.531       47.108       68.375       54.302       47.723     4675.105     2948.668     2277.477        1.240        0.495      112.661       45.140        0.161      344.737       21.768      858.509
10/19/2014  13:48:00       23.933       31.765       26.604       36.877       39.415       38.386     1359.901     1553.579     1473.447        0.334        0.219       39.772       20.903        0.276      344.870       21.996      858.494
10/19/2014  13:49:00       46.812       47.667       -0.183       55.108       34.405       26.388     3036.876     1183.738      696.345        0.469        0.246       66.809       13.840        0.043      344.982       22.188      858.489
10/19/2014  13:50:00      -35.724        6.267        4.959       49.330       26.456       26.078     2433.451      699.918      680.070        0.258        0.191       36.270       22.696        0.392      345.130       22.441      858.486
10/19/2014  13:51:00      -87.780        6.737      -10.582       33.984       31.637       16.915     1154.918     1000.878      286.134        0.515        0.122       88.038       13.851        0.025      344.874       22.002      858.459
10/19/2014  13:52:00     -109.415      -36.237        7.073       83.538       53.791       31.562     6978.609     2893.462      996.169        1.210        0.543      115.260       31.595        0.075      345.158       22.488      858.446
10/19/2014  13:53:00     -105.402      -53.482       -3.116       61.909       43.171       28.247     3832.709     1863.738      797.901        1.024        0.325      118.195       25.381        0.046      345.005       22.227      858.450
10/19/2014  13:54:00      -29.410      -53.594      -18.796       58.390       43.548       30.213     3409.443     1896.421      912.842        0.515        0.311       61.133       18.263        0.089      344.952       22.136      858.438
10/19/2014  13:55:00       -4.572       -3.330       17.665       33.942       34.549       23.499     1152.091     1193.631      552.218        0.162        0.145        5.656       20.111       12.642      345.188       22.540      858.438
10/19/2014  13:56:00        5.789       -3.200       20.625       18.690       28.782       24.248      349.306      828.415      587.972        0.112        0.088        6.614       19.298        8.512      345.291       22.717      858.428
10/19/2014  13:57:00        3.503      -10.596       24.855       34.367       29.437       29.890     1181.071      866.539      893.404        0.184        0.147       11.160       24.957        5.001      345.468       23.020      858.404
10/19/2014  13:58:00        2.334        4.939       36.728       22.785       37.183       23.029      519.138     1382.556      530.354        0.191        0.122        5.463       26.398       23.351      345.581       23.214      858.393
10/19/2014  13:59:00       59.498     -109.453       -5.242       63.640       74.018       34.888     4050.015     5478.703     1217.203        1.314        0.537      124.579       26.668        0.046      345.220       22.594      858.390
10/19/2014  14:00:00       50.599      -45.737       16.579       40.770       64.971       52.263     1662.224     4221.245     2731.437        0.677        0.431       68.207       48.683        0.509      345.006       22.229      858.370
10/19/2014  14:01:00       61.436      -73.578        8.662       40.526       56.607       34.578     1642.337     3204.330     1195.611        0.765        0.302       95.855       28.734        0.090      345.138       22.455      858.355
10/19/2014  14:02:00      -24.360      -22.532      -21.557       51.257       33.791       27.070     2627.256     1141.811      732.798        0.303        0.225       33.182       15.846        0.228      345.349       22.816      858.354
10/19/2014  14:03:00      -34.676      -36.028       -2.935       54.594       43.702       29.853     2980.499     1909.892      891.230        0.414        0.289       50.005       12.987        0.067      345.235       22.621      858.332
10/19/2014  14:04:00     -128.555      -41.691      -12.360       46.356       42.796       23.892     2148.902     1831.497      570.828        1.148        0.228      135.146       24.021        0.032      345.091       22.374      858.314
10/19/2014  14:05:00     -119.834      -52.576       -0.222       33.231       28.780       21.211     1104.307      828.279      449.889        0.975        0.119      130.860       18.563        0.020      345.096       22.383      858.300
10/19/2014  14:06:00       -3.875       -2.033       26.430       37.218       49.720       32.066     1385.205     2472.040     1028.242        0.280        0.244        4.376       32.076       53.734      344.925       22.089      858.285
10/19/2014  14:07:00      -17.362      -37.358       15.597       39.768       27.608       25.325     1581.493      762.208      641.367        0.246        0.149       41.195       23.582        0.328      345.315       22.755      858.266
10/19/2014  14:08:00      -15.849      -39.830        0.358       38.361       65.662       22.327     1471.551     4311.518      498.489        0.406        0.314       42.868       12.542        0.086      345.286       22.707      858.253
10/19/2014  14:09:00       18.243      -43.678       38.291       34.445       53.579       33.857     1186.440     2870.660     1146.329        0.445        0.260       47.335       35.109        0.550      345.392       22.889      858.238
10/19/2014  14:10:00        1.985       29.451       46.846       31.092       36.650       32.249      966.690     1343.206     1039.994        0.321        0.167       29.518       29.235        0.981      345.220       22.597      858.214
10/19/2014  14:11:00      -12.410       -8.842        6.855       31.916       20.468       25.299     1018.609      418.922      640.027        0.118        0.104       15.238       16.756        1.209      345.166       22.503      858.209
10/19/2014  14:12:00      -32.368      -12.296        9.429       27.583       36.902       27.902      760.795     1361.736      778.522        0.209        0.145       34.625       22.937        0.439      345.290       22.715      858.194
10/19/2014  14:13:00      -54.219      -52.158       -6.416       40.790       36.146       24.106     1663.820     1306.564      581.107        0.463        0.178       75.234       16.685        0.049      345.151       22.477      858.192
10/19/2014  14:14:00       -0.720        7.074       12.441       50.435       22.672       26.959     2543.665      514.031      726.769        0.199        0.189        7.111       13.336        3.517      345.208       22.575      858.192
10/19/2014  14:15:00      -12.989      -12.101       10.895       33.905       28.278       18.097     1149.546      799.648      327.514        0.135        0.114       17.753       18.750        1.116      345.345       22.810      858.188
10/19/2014  14:16:00      -76.270      -20.739        8.169       43.907       24.554       25.155     1927.831      602.884      632.779        0.474        0.158       79.039       19.652        0.062      345.460       23.008      858.177
10/19/2014  14:17:00       -1.680      -30.332       11.609       33.612       29.682       21.239     1129.785      880.999      451.101        0.176        0.123       30.379       21.139        0.484      345.428       22.951      858.176
10/19/2014  14:18:00       54.593      -17.102        0.934       29.980       33.580       25.604      898.791     1127.626      655.551        0.298        0.134       57.209       20.736        0.131      344.686       21.681      858.167
10/19/2014  14:19:00       37.222      -77.739       -9.921       55.872       56.806       40.667     3121.707     3226.923     1653.828        0.776        0.400       86.190       33.590        0.152      345.252       22.649      858.147
10/19/2014  14:20:00        2.689       78.120       99.526       43.602       67.470       48.798     1901.144     4552.239     2381.224        1.242        0.442       78.166       47.775        0.374      345.481       23.042      858.136
10/19/2014  14:21:00       42.926       -5.698       25.193       58.990       91.454       63.932     3479.766     8363.910     4087.264        0.922        0.797       43.303       68.418        2.496      345.124       22.429      858.130
10/19/2014  14:22:00       91.896      -89.622        0.765       66.779       86.641       56.523     4459.432     7506.730     3194.900        1.582        0.758      128.362       63.531        0.245      345.393       22.889      858.118
10/19/2014  14:23:00       65.325      -56.006       10.655       59.828       57.019       38.356     3579.374     3251.195     1471.154        0.791        0.415       86.047       33.190        0.149      345.374       22.858      858.121
10/19/2014  14:24:00      -29.846       16.992        1.265       20.352       28.385       21.692      414.216      805.720      470.542        0.144        0.085       34.344       10.540        0.094      345.427       22.948      858.114
10/19/2014  14:25:00       -9.639       23.787        8.612       32.638       24.579       19.994     1065.239      604.124      399.748        0.140        0.103       25.665        8.571        0.112      345.584       23.218      858.098
10/19/2014  14:26:00      -28.325      -13.821       16.019       51.550       28.900       28.734     2657.401      835.221      825.645        0.278        0.216       31.517       29.387        0.869      345.768       23.535      858.095
10/19/2014  14:27:00      -17.081       -2.865       14.808       40.537       24.694       28.102     1643.216      609.802      789.709        0.178        0.152       17.320        8.463        0.239      345.893       23.751      858.091
10/19/2014  14:28:00       13.894        5.472       41.045       44.127       65.381       42.711     1947.214     4274.714     1824.225        0.498        0.402       14.933       46.497        9.696      345.841       23.661      858.077
10/19/2014  14:29:00       39.170       36.537       71.423       46.527       46.145       32.476     2164.789     2129.360     1054.705        0.666        0.267       53.565       29.187        0.297      345.632       23.300      858.077
10/19/2014  14:30:00      -46.282        0.865       14.994       42.797       43.107       29.751     1831.566     1858.245      885.131        0.347        0.229       46.290       21.718        0.220      345.731       23.472      858.069
10/19/2014  14:31:00      -36.923      -35.518       -7.577       41.874       51.858       23.614     1753.394     2689.223      557.622        0.384        0.250       51.234       34.513        0.454      345.752       23.508      858.051
10/19/2014  14:32:00      -49.040      -15.719        8.793       89.151       52.861       34.294     7947.874     2794.306     1176.069        0.732        0.596       51.498       44.132        0.734      345.752       23.506      858.039
10/19/2014  14:33:00        8.580      -33.105        8.799       75.361       48.047       34.208     5679.317     2308.552     1170.216        0.520        0.458       34.199       22.577        0.436      345.802       23.593      858.028
10/19/2014  14:34:00      -95.002      -44.288        0.433       53.321       49.135       28.654     2843.162     2414.204      821.027        0.853        0.304      104.818       24.730        0.056      345.699       23.416      858.014
10/19/2014  14:35:00      -78.665       -4.750       -3.131       37.101       37.449       27.021     1376.459     1402.410      730.120        0.486        0.175       78.808       25.279        0.103      345.658       23.344      857.994
10/19/2014  14:36:00      -17.928       -2.941        8.127       35.961       16.889       23.544     1293.201      285.235      554.342        0.126        0.107       18.168       24.202        1.775      345.999       23.931      857.980
10/19/2014  14:37:00     -120.103      -69.532       -9.497       67.314       62.013       36.938     4531.128     3845.672     1364.381        1.454        0.487      138.778       37.981        0.075      345.722       23.455      857.965
10/19/2014  14:38:00      -33.442      -58.031        7.000       48.884       50.862       34.098     2389.625     2586.979     1162.669        0.534        0.307       66.977       21.440        0.102      345.889       23.743      857.944
10/19/2014  14:39:00       17.406     -134.971      -14.000       97.190       60.713       34.054     9445.864     3686.110     1159.667        1.650        0.715      136.089       21.460        0.025      345.757       23.514      857.938
10/19/2014  14:40:00       71.390     -118.398      -11.473       61.774       49.777       46.429     3816.078     2477.701     2155.683        1.385        0.422      138.256       25.098        0.033      345.733       23.474      857.930
10/19/2014  14:41:00       32.621      -17.964       28.660       51.368       65.158       39.407     2638.694     4245.608     1552.916        0.532        0.422       37.241       39.043        1.099      345.911       23.780      857.916
10/19/2014  14:42:00       -5.742      -18.736        3.728       31.763       34.214       25.707     1008.870     1170.625      660.834        0.162        0.142       19.596       23.623        1.453      346.000       23.934      857.890
10/19/2014  14:43:00      -49.733      -29.899        9.861       43.869       35.908       21.656     1924.508     1289.375      468.995        0.357        0.184       58.028       21.141        0.133      346.240       24.345      857.870
10/19/2014  14:44:00      -32.371       -2.832        8.718       37.450       23.352       23.684     1402.486      545.312      560.934        0.182        0.125       32.494       25.681        0.625      346.144       24.181      857.855
10/19/2014  14:45:00      -14.258       -4.387        6.097       24.715       26.558       14.285      610.825      705.344      204.070        0.089        0.076       14.917       11.740        0.619      346.000       23.935      857.851
10/19/2014  14:46:00       34.095      -45.086        0.143       36.007       62.541       34.924     1296.476     3911.391     1219.714        0.481        0.321       56.526       24.720        0.191      345.926       23.805      857.839
10/19/2014  14:47:00       17.126      -27.364        7.645       45.585       60.357       31.381     2077.998     3642.944      984.757        0.390        0.335       32.281       24.533        0.578      346.001       23.935      857.834
10/19/2014  14:48:00       43.395      -61.469        5.069       50.351       64.037       32.746     2535.231     4100.709     1072.274        0.670        0.385       75.243       37.646        0.250      345.788       23.567      857.838
10/19/2014  14:49:00       56.463      -73.507        0.374       47.347       44.391       31.787     2241.704     1970.524     1010.436        0.691        0.261       92.689       29.296        0.100      345.758       23.516      857.823
10/19/2014  14:50:00       35.920      -37.524       10.242       36.404       20.085       18.931     1325.249      403.400      358.388        0.244        0.104       51.946       17.230        0.110      345.867       23.706      857.816
10/19/2014  14:51:00       69.144      -63.811       13.898       46.201       57.958       46.211     2134.503     3359.171     2135.442        0.834        0.381       94.089       30.329        0.104      345.888       23.740      857.819
10/19/2014  14:52:00       38.880      -50.635       23.979       75.304       65.167       39.084     5670.688     4246.677     1527.570        0.805        0.572       63.840       38.285        0.360      346.114       24.128      857.807
10/19/2014  14:53:00       -4.197      -37.508        6.815       45.163       45.322       25.828     2039.725     2054.128      667.103        0.312        0.238       37.742       27.252        0.521      346.242       24.347      857.780
10/19/2014  14:54:00        8.074        8.849       25.551       35.770       28.251       24.368     1279.486      798.110      593.796        0.173        0.134       11.979       18.658        2.426      346.283       24.419      857.747
10/19/2014  14:55:00      -64.896      -16.523       11.831       49.727       40.559       21.556     2472.768     1645.013      464.670        0.460        0.229       66.967       18.229        0.074      346.062       24.039      857.729
10/19/2014  14:56:00       41.945      -24.430       42.914       62.638       77.373       57.597     3923.513     5986.533     3317.413        0.871        0.661       48.541       39.820        0.673      346.103       24.108      857.734
10/19/2014  14:57:00      124.734     -128.960       27.435      106.430      168.155       90.552    11327.261    28276.237     8199.630        4.036        2.390      179.414      114.408        0.407      345.799       23.585      857.734
10/19/2014  14:58:00      232.592     -215.305      -34.454      104.131      104.456       56.032    10843.246    10911.070     3139.547        6.326        1.245      316.946       60.042        0.036      345.718       23.446      857.712
10/19/2014  14:59:00      145.317      -21.605       76.800      129.921      124.253       85.792    16879.466    15438.703     7360.270        3.357        1.984      146.914      101.166        0.474      345.903       23.763      857.697
10/19/2014  15:00:00       70.892       66.527       77.316       81.755      108.341       65.040     6683.883    11737.747     4230.215        1.904        1.133       97.219       62.607        0.415      346.039       23.999      857.697
10/19/2014  15:01:00       98.878       30.845       79.169       89.335       58.464       52.155     7980.682     3418.061     2720.118        1.556        0.706      103.577       45.269        0.191      346.059       24.034      857.693
10/19/2014  15:02:00      128.056       -6.881       71.945      136.700      128.474       80.171    18686.911    16505.519     6427.362        3.161        2.081      128.241       94.618        0.544      346.209       24.290      857.655
10/19/2014  15:03:00      144.327     -144.242        3.890      124.103      131.785       81.914    15401.527    17367.353     6709.850        4.056        1.974      204.048       97.901        0.230      346.026       23.976      857.646
10/19/2014  15:04:00      123.628     -110.511        6.177       80.745       95.329       52.652     6519.836     9087.633     2772.269        2.295        0.919      165.821       54.573        0.108      345.992       23.919      857.648
10/19/2014  15:05:00       39.245      -90.562       48.486       75.789      120.603       69.127     5744.040    14545.180     4778.560        1.858        1.253       98.700       48.947        0.246      346.122       24.140      857.647
10/19/2014  15:06:00       96.059     -182.445      -12.113       68.189       69.186       36.737     4649.751     4786.644     1349.615        2.672        0.539      206.188       38.818        0.035      345.720       23.451      857.669
10/19/2014  15:07:00       30.476      -34.065        2.351       58.806       75.558       34.389     3458.125     5708.950     1182.594        0.622        0.517       45.707       40.198        0.773      345.984       23.906      857.654
10/19/2014  15:08:00       15.972      -23.687        8.239       46.085       51.156       32.281     2123.837     2616.913     1042.058        0.333        0.289       28.569       35.631        1.556      346.132       24.160      857.634
10/19/2014  15:09:00       59.858      -73.172        2.478       46.206       46.991       40.768     2134.987     2208.161     1662.060        0.747        0.300       94.537       28.214        0.089      346.085       24.080      857.632
10/19/2014  15:10:00      156.202     -169.058      -23.395       59.518       71.172       39.060     3542.415     5065.401     1525.690        3.183        0.507      230.173       32.934        0.020      345.831       23.639      857.629
10/19/2014  15:11:00       24.645      -18.162       32.573       46.941       67.642       48.328     2203.412     4575.445     2335.607        0.555        0.456       30.614       48.930        2.555      346.076       24.063      857.623
10/19/2014  15:12:00       52.831       10.324       59.106       83.072      107.582       63.413     6900.975    11573.965     4021.212        1.444        1.125       53.831       65.964        1.502      346.060       24.035      857.625
10/19/2014  15:13:00        8.708       17.448       40.717       28.725       28.145       24.326      825.115      792.159      591.746        0.212        0.110       19.500       16.940        0.755      346.155       24.199      857.617
10/19/2014  15:14:00       54.418      -38.761        5.500       29.116       41.423       27.200      847.768     1715.839      739.833        0.390        0.165       66.811       24.661        0.136      345.923       23.800      857.589
10/19/2014  15:15:00       76.863      -59.032       -7.256       53.246       85.826       26.187     2835.106     7366.021      685.753        1.016        0.544       96.916       39.682        0.168      345.915       23.787      857.581
10/19/2014  15:16:00      101.532     -111.135       -8.477       61.105       90.185       56.368     3733.808     8133.273     3177.319        1.889        0.752      150.531       63.742        0.179      346.158       24.201      857.589
10/19/2014  15:17:00      105.285      -72.423        1.652       81.874      107.831       70.175     6703.382    11627.626     4924.594        1.979        1.163      127.789       69.734        0.298      346.049       24.015      857.600
10/19/2014  15:18:00       66.508      -13.269       45.738       70.551       63.820       50.023     4977.494     4072.949     2502.280        0.912        0.578       67.819       43.889        0.419      346.192       24.262      857.589
10/19/2014  15:19:00       57.480       27.059       65.227       58.104       58.831       34.142     3376.123     3461.064     1165.672        0.815        0.400       63.531       26.744        0.177      346.175       24.233      857.578
10/19/2014  15:20:00       80.108     -101.152       16.979       87.305      125.937       75.813     7622.102    15860.214     5747.564        2.308        1.461      129.031       95.311        0.546      346.130       24.154      857.572
10/19/2014  15:21:00       44.183      -95.922        8.410       52.171      106.575       50.030     2721.845    11358.321     2502.968        1.390        0.829      105.608       57.115        0.292      346.197       24.269      857.561
10/19/2014  15:22:00       54.232      -95.807        1.387       99.658       89.764       40.790     9931.637     8057.662     1663.858        1.588        0.983      110.091       42.553        0.149      345.989       23.913      857.559
10/19/2014  15:23:00      -12.203      -60.571        6.190       68.157       52.762       33.132     4645.343     2783.796     1097.756        0.619        0.426       61.788       26.118        0.179      346.134       24.162      857.541
10/19/2014  15:24:00      -15.584        9.215       41.027       51.493       38.182       26.180     2651.483     1457.888      685.382        0.340        0.240       18.105       31.823        3.090      346.223       24.317      857.508
10/19/2014  15:25:00       19.079       72.845       78.981       58.514       47.378       36.381     3423.929     2244.722     1323.589        0.945        0.350       75.302       29.829        0.157      346.226       24.321      857.487
10/19/2014  15:26:00       53.757      -22.184       59.965       61.136       63.369       40.950     3737.577     4015.666     1676.872        0.820        0.472       58.154       36.112        0.386      346.320       24.482      857.473
10/19/2014  15:27:00      109.753     -126.612       -0.162       84.989       79.877       53.930     7223.091     6380.366     2908.458        2.229        0.826      167.559       40.817        0.059      346.177       24.233      857.458
10/19/2014  15:28:00      147.913     -181.412      -18.026       87.898      107.752       50.667     7726.090    11610.455     2567.100        3.850        1.095      234.070       55.075        0.055      346.094       24.092      857.451
10/19/2014  15:29:00      126.848     -165.640       -6.970       85.341      106.254       56.293     7283.172    11289.832     3168.865        3.266        1.087      208.631       61.887        0.088      346.123       24.140      857.452
10/19/2014  15:30:00      139.355     -103.075       28.789      103.327      139.173       78.194    10676.420    19369.081     6114.336        3.351        1.808      173.333       95.789        0.305      346.072       24.055      857.439
10/19/2014  15:31:00      171.014     -128.964       13.748      112.365      148.914       79.179    12625.919    22175.300     6269.240        4.356        2.054      214.190      103.569        0.234      346.078       24.064      857.412
10/19/2014  15:32:00       79.031      -53.086       53.986       72.997       82.841       61.261     5328.528     6862.675     3752.920        1.396        0.797       95.205       61.916        0.423      346.264       24.386      857.413
10/19/2014  15:33:00       77.427       12.113       67.596       84.107      104.180       53.930     7074.032    10853.492     2908.403        1.577        1.042       78.369       54.396        0.482      346.332       24.501      857.410
10/19/2014  15:34:00       53.085     -105.175       30.832       61.236       90.233       49.267     3749.868     8141.958     2427.250        1.457        0.716      117.812       37.019        0.099      346.292       24.433      857.415
10/19/2014  15:35:00       63.489     -102.809       -3.104       69.941       59.692       42.779     4891.737     3563.116     1830.046        1.245        0.514      120.832       30.547        0.064      346.183       24.247      857.447
10/19/2014  15:36:00       59.262      -67.908       14.134       65.934       72.338       45.008     4347.289     5232.722     2025.681        0.996        0.580       90.130       42.385        0.221      346.255       24.371      857.459
10/19/2014  15:37:00       -2.211      -29.905       63.127       78.060      116.807       58.856     6093.419    13643.854     3464.085        1.404        1.160       29.986       70.316        5.499      346.274       24.402      857.443
10/19/2014  15:38:00      191.655     -134.970       22.144      114.864      179.830       95.849    13193.718    32338.651     9187.102        5.507        2.736      234.411      122.414        0.273      346.171       24.224      857.427
10/19/2014  15:39:00      146.406      -93.936       33.098      104.268      101.239       61.536    10871.738    10249.430     3786.674        2.813        1.245      173.951       62.356        0.128      346.164       24.212      857.433
10/19/2014  15:40:00      174.670     -222.818      -25.640       94.260      101.321       60.884     8884.977    10265.992     3706.836        5.183        1.143      283.121       59.554        0.044      346.129       24.152      857.418
10/19/2014  15:41:00       43.437      -11.554       61.342       88.426       77.086       71.057     7819.207     5942.303     5049.072        1.229        0.941       44.948       53.505        1.417      346.321       24.483      857.422
10/19/2014  15:42:00       60.126      -98.869      -16.753       64.994       65.083       47.061     4224.189     4235.751     2214.739        1.217        0.534      115.716       45.187        0.152      346.381       24.588      857.442
10/19/2014  15:43:00      114.934     -125.005      -13.770       80.325       67.077       48.837     6452.072     4499.317     2385.078        2.118        0.667      169.812       37.616        0.049      346.265       24.384      857.451
10/19/2014  15:44:00       65.629     -145.447       -3.404       58.322       91.455       41.420     3401.477     8363.993     1715.615        1.948        0.674      159.568       51.645        0.105      346.147       24.183      857.457
10/19/2014  15:45:00      169.109     -171.220       21.252      119.974      171.362       87.126    14393.859    29364.957     7590.920        5.485        2.567      240.653      103.652        0.186      346.079       24.066      857.460
10/19/2014  15:46:00       57.063     -151.960       31.779      102.873      153.512       77.844    10582.825    23566.054     6059.617        3.378        2.010      162.321       97.396        0.360      346.180       24.241      857.454
10/19/2014  15:47:00       80.137      -93.458       30.707       97.566      174.810       88.128     9519.204    30558.679     7766.549        3.196        2.392      123.111       93.516        0.577      346.185       24.250      857.451
10/19/2014  15:48:00       73.398     -211.166      -30.180      102.009      215.828      109.301    10405.763    46581.602    11946.732        5.990        3.447      223.559      112.272        0.252      346.109       24.117      857.422
10/19/2014  15:49:00       39.593     -109.982        5.771      100.831      128.608       57.351    10166.876    16539.921     3289.178        2.184        1.500      116.892       65.608        0.315      346.201       24.277      857.467
10/19/2014  15:50:00       44.697       16.243       75.743       75.811       99.497       84.507     5747.275     9899.675     7141.419        1.539        1.139       47.557       78.413        2.719      346.147       24.185      857.442
10/19/2014  15:51:00       35.304      -69.553       -3.243       58.551       52.851       42.901     3428.176     2793.263     1840.512        0.708        0.403       78.000       20.862        0.072      346.092       24.091      857.432
10/19/2014  15:52:00       35.492      -85.627       -0.325       61.772       66.543       37.725     3815.766     4427.981     1423.183        0.913        0.483       92.692       33.122        0.128      346.143       24.178      857.421
10/19/2014  15:53:00        1.483      -79.617       18.056       48.630       51.788       39.699     2364.876     2682.023     1576.031        0.664        0.331       79.630       25.487        0.102      346.205       24.284      857.391
10/19/2014  15:54:00       35.142      -10.890       50.895       46.618       62.566       40.656     2173.272     3914.520     1652.928        0.584        0.387       36.790       37.389        1.033      346.270       24.397      857.383
10/19/2014  15:55:00       17.784      -65.002       36.221       55.657       55.628       53.617     3097.649     3094.521     2874.747        0.746        0.453       67.391       24.660        0.134      346.161       24.210      857.375
10/19/2014  15:56:00       78.118      -96.596        4.969       67.090       98.032       69.967     4501.130     9610.232     4895.371        1.723        0.950      124.230       65.762        0.280      346.234       24.334      857.378
10/19/2014  15:57:00       24.532      -84.401       12.937       83.398       66.741       43.249     6955.154     4454.386     1870.506        1.058        0.664       87.894       42.389        0.233      346.236       24.338      857.397
10/19/2014  15:58:00       36.680     -122.432       -0.422       69.005       58.066       41.639     4761.681     3371.692     1733.820        1.310        0.493      127.808       29.854        0.055      346.144       24.180      857.398
10/19/2014  15:59:00       72.958      -99.117       -4.620       66.938       52.138       41.364     4480.759     2718.400     1710.950        1.204        0.446      123.074       32.870        0.071      346.147       24.184      857.404
10/19/2014  16:00:00       54.778      -45.822       25.870       52.593       61.970       30.207     2766.021     3840.322      912.489        0.664        0.376       71.416       37.940        0.282      346.295       24.439      857.397
10/19/2014  16:01:00       65.217     -106.037       -1.861       45.750       70.683       34.491     2093.019     4996.031     1189.621        1.189        0.414      124.487       29.877        0.058      346.224       24.317      857.402
10/19/2014  16:02:00       99.445     -112.465       -2.923       93.133      100.276       57.045     8673.833    10055.297     3254.079        2.226        1.099      150.126       59.193        0.155      346.087       24.080      857.384
10/19/2014  16:03:00       47.011     -107.264       14.449      102.482      116.904       65.685    10502.493    13666.533     4314.584        2.120        1.424      117.114       71.468        0.372      346.158       24.202      857.354
10/19/2014  16:04:00       28.225     -121.010      -21.047       72.279       72.103       55.239     5224.229     5198.838     3051.336        1.468        0.674      124.258       42.728        0.118      346.158       24.202      857.311
10/19/2014  16:05:00       87.269     -127.441        5.582       81.263       88.487       54.541     6603.722     7829.867     2974.727        2.065        0.870      154.458       49.785        0.104      346.205       24.283      857.323
10/19/2014  16:06:00       73.292      -41.827       18.053       55.896       74.689       37.566     3124.359     5578.425     1411.186        0.878        0.506       84.387       41.925        0.247      346.217       24.306      857.309
10/19/2014  16:07:00       57.762       26.272       66.109       76.265      101.835       47.316     5816.307    10370.448     2238.792        1.341        0.921       63.456       43.751        0.475      346.474       24.747      857.264
10/19/2014  16:08:00      -96.433     -129.162       40.157      123.575      146.972       91.081    15270.828    21600.858     8295.840        3.637        2.258      161.190       66.133        0.168      346.424       24.659      857.231
10/19/2014  16:09:00       22.952     -201.404      -23.144       96.268      161.264      108.993     9267.557    26006.101    11879.491        4.438        2.358      202.707       84.503        0.174      346.279       24.410      857.227
10/19/2014  16:10:00       62.776     -214.010      -58.767      141.961      113.379       64.683    20152.995    12854.686     4183.864        4.519        1.860      223.027       62.617        0.079      346.250       24.359      857.259
10/19/2014  16:11:00     -149.036     -163.526       -8.274      144.457       75.286       51.549    20867.899     5667.926     2657.349        3.910        1.460      221.252       32.314        0.021      346.380       24.582      857.334
10/19/2014  16:12:00      -90.138     -121.683       10.229       89.437       95.646       43.384     7998.992     9148.193     1882.150        2.103        0.951      151.432       34.937        0.053      346.506       24.800      857.355
10/19/2014  16:13:00      -70.710      -52.562       19.562       71.226      103.916       37.705     5073.190    10798.435     1421.646        1.272        0.865       88.106       42.352        0.231      346.505       24.800      857.348
10/19/2014  16:14:00      -58.230     -104.798      -21.974       52.266       65.376       37.245     2731.718     4273.959     1387.178        1.162        0.420      119.889       15.240        0.016      346.528       24.842      857.342
10/19/2014  16:15:00       27.414     -114.588       -6.196       91.052       80.530       52.452     8290.409     6485.145     2751.174        1.572        0.876      117.821       32.231        0.075      346.632       25.018      857.345
10/19/2014  16:16:00     -116.878      -94.819        3.035       78.209       67.429       52.555     6116.680     4546.649     2762.023        1.804        0.671      150.503       45.933        0.093      346.343       24.522      857.340
10/19/2014  16:17:00      -30.751     -166.207       11.780      111.911      115.463       64.429    12524.103    13331.743     4151.067        2.935        1.500      169.028       62.520        0.137      346.241       24.345      857.336
10/19/2014  16:18:00       81.296     -182.043       18.605       77.486      166.099       86.965     6004.082    27589.002     7562.997        4.062        2.058      199.371       91.626        0.211      346.266       24.389      857.315
10/19/2014  16:19:00      -21.490     -219.952      -17.892       89.316      125.464       63.344     7977.422    15741.101     4012.419        3.844        1.387      221.000       64.109        0.084      346.256       24.371      857.308
10/19/2014  16:20:00       20.134     -193.351      -18.016      107.503       83.480       61.782    11556.967     6968.920     3817.003        3.022        1.117      194.396       33.516        0.030      346.182       24.241      857.307
10/19/2014  16:21:00       67.335     -208.195       -3.976      118.493      156.008       96.670    14040.643    24338.556     9345.074        4.780        2.386      218.813       75.871        0.120      346.111       24.119      857.302
10/19/2014  16:22:00       79.681     -150.077      -48.798      144.442      117.679       63.511    20863.584    13848.309     4033.586        3.499        1.937      169.918       54.602        0.103      346.135       24.164      857.296
10/19/2014  16:23:00      -13.807     -148.498       -2.994       64.823       97.564       37.850     4201.988     9518.808     1432.652        1.870        0.758      149.139       24.349        0.027      346.167       24.218      857.328
10/19/2014  16:24:00       47.835     -153.142      -14.546       89.166       68.847       49.206     7950.604     4739.911     2421.232        2.053        0.756      160.440       27.050        0.028      346.263       24.382      857.318
10/19/2014  16:25:00       24.517      -63.383       29.786       86.448       79.162       46.241     7473.287     6266.562     2138.256        1.069        0.794       67.959       35.992        0.280      346.196       24.269      857.300
10/19/2014  16:26:00       44.110      -39.220       29.862       81.841       60.751       48.527     6697.988     3690.657     2354.841        0.856        0.637       59.025       27.755        0.221      346.184       24.248      857.277
10/19/2014  16:27:00       -2.207      -25.061       26.909       55.670       45.682       35.467     3099.117     2086.819     1257.905        0.390        0.322       25.158       34.017        1.828      346.315       24.474      857.263
10/19/2014  16:28:00      -32.951      -76.975        9.387       94.694       86.966       48.108     8966.901     7563.100     2314.406        1.297        0.942       83.731       59.745        0.509      346.171       24.226      857.254
10/19/2014  16:29:00      -29.160      -34.497        1.328       62.970       35.649       28.402     3965.205     1270.869      806.655        0.404        0.302       45.171       26.567        0.346      346.350       24.534      857.243
10/19/2014  16:30:00      -94.946      -29.625       -2.919       44.412       51.364       27.521     1972.442     2638.234      757.419        0.763        0.268       99.460       14.173        0.020      346.281       24.416      857.228
10/19/2014  16:31:00        9.579      -86.374        4.877       44.358       40.300       39.133     1967.610     1624.091     1531.354        0.635        0.256       86.903       28.945        0.111      346.330       24.500      857.246
10/19/2014  16:32:00       -9.932      -91.643       -2.708       26.873       36.393       22.678      722.179     1324.452      514.302        0.553        0.128       92.180       11.441        0.015      346.254       24.370      857.243
10/19/2014  16:33:00        7.102      -32.632        6.049       45.651       80.452       26.152     2084.048     6472.467      683.902        0.519        0.462       33.396       34.370        1.059      346.258       24.376      857.235
10/19/2014  16:34:00       11.145     -113.254       -8.263       88.069       68.442       36.183     7756.085     4684.339     1309.216        1.338        0.687      113.801       26.302        0.053      346.208       24.290      857.219
10/19/2014  16:35:00       21.784      -41.650       45.248       84.417       61.837       38.220     7126.205     3823.757     1460.794        0.833        0.621       47.003       38.032        0.655      346.267       24.391      857.221
10/19/2014  16:36:00      160.574     -280.813       -5.274      129.675      109.837       70.151    16815.573    12064.226     4921.138        6.923        1.690      323.481       57.404        0.031      346.080       24.069      857.236
10/19/2014  16:37:00       14.965      -79.691       22.400       65.919      107.095       60.199     4345.338    11469.313     3623.979        1.325        0.972       81.084       63.931        0.622      346.215       24.301      857.230
10/19/2014  16:38:00      141.421     -260.997      -11.284      132.635      157.066       86.612    17592.075    24669.766     7501.709        6.900        2.488      296.849       88.434        0.089      345.999       23.928      857.236
10/19/2014  16:39:00       52.653     -163.852       -0.886       95.734       92.108       56.451     9164.935     8483.816     3186.685        2.522        1.042      172.104       39.546        0.053      346.076       24.061      857.253
10/19/2014  16:40:00      137.083     -226.201      -28.919       94.989      102.425       59.543     9022.855    10490.933     3545.348        4.692        1.153      264.497       46.160        0.030      346.003       23.936      857.244
10/19/2014  16:41:00       43.276      -89.678       12.327       80.171       75.328       51.121     6427.371     5674.305     2613.370        1.239        0.736       99.574       37.753        0.144      346.084       24.076      857.234
10/19/2014  16:42:00       46.546      -43.278       40.729       79.152      103.027       64.502     6264.973    10614.621     4160.571        1.337        1.052       63.557       74.494        1.374      346.143       24.178      857.226
10/19/2014  16:43:00       47.064     -103.826       -3.928       66.488       41.219       46.269     4420.692     1698.996     2140.826        1.063        0.413      113.995       28.570        0.063      346.170       24.225      857.216
10/19/2014  16:44:00       25.139     -107.547        4.027       84.559       80.406       59.442     7150.297     6465.152     3533.376        1.468        0.857      110.446       48.656        0.194      346.084       24.077      857.211
10/19/2014  16:45:00       96.858     -248.123      -37.628       70.496      121.098       51.378     4969.715    14664.784     2639.742        4.731        1.114      266.358       18.174        0.005      346.019       23.963      857.205
10/19/2014  16:46:00       20.205     -131.259        9.261       72.876      139.734       44.152     5310.905    19525.638     1949.440        2.225        1.339      132.805       54.485        0.168      346.092       24.089      857.204
10/19/2014  16:47:00       50.044      -84.177        2.721       39.060       55.330       33.691     1525.678     3061.406     1135.067        0.766        0.286       97.929       34.664        0.125      346.119       24.136      857.201
10/19/2014  16:48:00      -64.388      -87.172       -3.714       75.761       62.347       42.928     5739.658     3887.127     1842.800        1.161        0.573      108.373       40.556        0.140      346.279       24.410      857.190
10/19/2014  16:49:00      -54.207     -106.738        7.396       78.085      121.255       37.289     6097.249    14702.772     1390.481        1.828        1.110      119.714       20.117        0.028      346.333       24.504      857.203
10/19/2014  16:50:00      -16.973     -205.277        5.611       86.877      112.763       56.835     7547.623    12715.566     3230.216        3.297        1.175      205.977       54.737        0.071      346.135       24.162      857.214
10/19/2014  16:51:00       17.411     -219.591        6.555      113.202      186.002       60.817    12814.765    34596.676     3698.716        4.983        2.556      220.280       74.149        0.113      346.106       24.112      857.200
10/19/2014  16:52:00       -5.648     -182.478        5.093       94.603      106.441       67.176     8949.697    11329.766     4512.651        2.907        1.240      182.565       55.416        0.092      346.172       24.225      857.203
10/19/2014  16:53:00      -53.092     -149.012      -16.633       94.961       95.014       38.835     9017.558     9027.643     1508.140        2.242        0.978      158.187       35.292        0.050      346.160       24.205      857.216
10/19/2014  16:54:00     -140.411      -79.637       -8.451       62.874       75.439       42.592     3953.143     5691.052     1814.078        1.879        0.573      161.423       30.831        0.036      346.211       24.292      857.210
10/19/2014  16:55:00     -113.937      -72.204       -0.701       71.866       55.528       41.890     5164.743     3083.325     1754.745        1.410        0.500      134.889       40.958        0.092      346.315       24.475      857.218
10/19/2014  16:56:00     -103.774      -72.053        2.234       96.542       71.140       39.946     9320.276     5060.937     1595.706        1.597        0.799      126.336       40.364        0.102      346.277       24.408      857.207
10/19/2014  16:57:00     -140.726     -184.540       -0.109       81.151      102.183       44.393     6585.493    10441.290     1970.756        3.643        0.950      232.075       42.509        0.034      346.216       24.299      857.197
10/19/2014  16:58:00     -128.024     -269.448       -3.053       99.952      148.625       52.571     9990.310    22089.502     2763.746        6.192        1.742      298.316       64.806        0.047      346.135       24.160      857.200
10/19/2014  16:59:00     -121.924     -219.385       -1.298      127.576      147.925       63.230    16275.739    21881.875     3998.037        5.257        2.108      250.989       76.867        0.094      346.030       23.980      857.187
10/19/2014  17:00:00     -140.248     -148.727       -5.527       98.647      109.991       48.766     9731.189    12098.030     2378.145        3.301        1.210      204.424       50.414        0.061      346.108       24.117      857.194
10/19/2014  17:01:00      -50.352     -151.178       16.835       47.976       77.461       37.221     2301.740     6000.251     1385.377        1.768        0.484      159.343       32.875        0.043      346.037       23.994      857.197
10/19/2014  17:02:00      -68.885      -53.024        5.601       49.951       71.429       38.250     2495.086     5102.075     1463.031        0.832        0.453       86.929       30.123        0.120      346.117       24.134      857.182
10/19/2014  17:03:00     -183.802      -99.332       -5.964      106.578       83.398       45.438    11358.908     6955.299     2064.608        3.203        1.019      208.926       48.350        0.054      346.102       24.105      857.172
10/19/2014  17:04:00     -216.969     -178.810       -3.331      107.737       90.721       61.729    11607.351     8230.277     3810.438        5.135        1.182      281.156       66.657        0.056      345.972       23.882      857.172
10/19/2014  17:05:00     -365.250     -123.338       -5.345      185.428       90.836       64.286    34383.508     8251.167     4132.683        9.770        2.338      385.512       72.681        0.036      345.905       23.767      857.167
10/19/2014  17:06:00     -253.290     -257.096       -6.037      157.502      125.914       74.447    24806.902    15854.318     5542.394        8.824        2.310      360.908       86.485        0.057      345.833       23.643      857.171
10/19/2014  17:07:00     -205.236     -141.009        0.273      127.015       98.632       60.501    16132.756     9728.184     3660.364        4.576        1.476      249.009       53.915        0.047      345.833       23.643      857.169
10/19/2014  17:08:00     -150.229      -81.407        3.688      139.276       98.508       61.693    19397.738     9703.797     3806.064        3.105        1.645      170.868       65.787        0.148      345.899       23.758      857.168
10/19/2014  17:09:00      -95.549      -30.331       13.253       90.988       66.176       41.186     8278.792     4379.306     1696.265        1.229        0.718      100.248       43.181        0.186      345.937       23.826      857.178
10/19/2014  17:10:00     -251.743     -157.086       -9.996      134.387      125.490       60.568    18059.863    15747.650     3668.468        6.281        1.874      296.733       69.527        0.055      345.858       23.686      857.177
10/19/2014  17:11:00     -220.045      -59.844        2.461      162.545      149.815       66.788    26420.933    22444.450     4460.601        5.266        2.666      228.037       79.392        0.121      345.809       23.601      857.181
10/19/2014  17:12:00     -200.261     -136.116      -12.215      160.439      109.118       62.210    25740.699    11906.682     3870.137        5.014        2.076      242.140       73.660        0.093      345.867       23.702      857.192
10/19/2014  17:13:00     -285.088     -114.235      -12.145      146.311      106.414       65.548    21406.896    11323.902     4296.577        6.574        1.851      307.124       70.717        0.053      345.819       23.619      857.172
10/19/2014  17:14:00     -245.534     -139.588        6.634      193.049      144.707       67.435    37267.808    20940.189     4547.496        7.128        3.138      282.439       80.004        0.080      345.810       23.605      857.189
10/19/2014  17:15:00     -223.684     -145.853       10.756      168.379      123.917       74.808    28351.391    15355.434     5596.267        6.036        2.465      267.035       90.921        0.116      345.719       23.448      857.167
10/19/2014  17:16:00     -293.090      -88.230       -9.339      128.146      101.679       50.172    16421.295    10338.526     2517.196        6.152        1.464      306.082       58.767        0.037      345.758       23.515      857.167
10/19/2014  17:17:00     -293.297      -76.758       -2.847      121.081      106.613       58.434    14660.634    11366.240     3414.522        6.068        1.472      303.174       49.093        0.026      345.789       23.569      857.171
10/19/2014  17:18:00     -270.754      -73.262       -2.161      125.490      108.001       53.431    15747.856    11664.111     2854.889        5.447        1.513      280.490       55.255        0.039      345.749       23.498      857.173
10/19/2014  17:19:00     -205.908      -80.771       -0.223      137.940      113.784       62.445    19027.336    12946.854     3899.379        4.239        1.794      221.184       74.037        0.112      345.734       23.475      857.184
10/19/2014  17:20:00     -285.426     -155.604       -1.992      155.653      170.741       76.301    24227.856    29152.344     5821.865        8.243        2.960      325.085       78.059        0.058      345.689       23.394      857.185
10/19/2014  17:21:00     -240.915     -110.041        0.638      132.779       97.617       58.718    17630.141     9529.081     3447.861        5.037        1.530      264.857       57.862        0.048      345.659       23.344      857.169
10/19/2014  17:22:00     -204.087     -169.791       -8.271      135.256      130.878       65.418    18294.117    17129.019     4279.558        5.512        1.985      265.481       60.883        0.053      345.656       23.339      857.184
10/19/2014  17:23:00     -194.490     -263.485       -5.136      208.447      191.792       91.805    43450.287    36784.346     8428.229        9.796        4.433      327.491       92.478        0.080      345.621       23.278      857.181
10/19/2014  17:24:00     -451.864     -320.572      -28.510      180.060      178.333      105.060    32421.542    31802.634    11037.613       19.150        3.763      554.029      105.945        0.037      345.542       23.143      857.149
10/19/2014  17:25:00     -324.127     -138.380       -6.758      168.571      127.043       69.403    28416.022    16139.873     4816.769        8.680        2.469      352.431       74.227        0.044      345.561       23.176      857.172
10/19/2014  17:26:00     -207.761      -92.402       -4.445      131.415      113.312       51.264    17269.876    12839.708     2628.011        4.222        1.637      227.383       57.131        0.063      345.628       23.292      857.185
10/19/2014  17:27:00     -279.661     -200.328      -10.991      158.213      105.078       73.678    25031.225    11041.393     5428.440        7.997        2.075      344.008       82.648        0.058      345.522       23.108      857.183
10/19/2014  17:28:00     -252.050     -122.446       -0.801      144.418      110.820       57.668    20856.679    12281.018     3325.590        5.749        1.823      280.219       72.137        0.066      345.530       23.122      857.205
10/19/2014  17:29:00     -232.628     -107.729       -7.301      126.893      110.969       58.803    16101.954    12314.043     3457.748        4.882        1.594      256.362       65.435        0.065      345.507       23.082      857.215
10/19/2014  17:30:00     -195.409      -71.042       -7.294      126.002       94.572       49.956    15876.492     8943.899     2495.641        3.530        1.366      207.922       63.329        0.093      345.512       23.091      857.232
10/19/2014  17:31:00     -300.593       17.928      -19.856      136.110      107.330       57.443    18525.872    11519.704     3299.692        6.220        1.667      301.128       69.831        0.054      345.506       23.080      857.243
10/19/2014  17:32:00     -232.085      -88.925      -14.004      105.540       85.223       54.755    11138.608     7262.883     2998.118        4.168        1.070      248.538       53.824        0.047      345.438       22.964      857.257
10/19/2014  17:33:00     -193.815      -91.426       -3.254      151.444      129.472       67.328    22935.384    16763.124     4533.018        4.508        2.212      214.297       67.661        0.100      345.464       23.009      857.268
10/19/2014  17:34:00     -322.240      -51.809      -21.305      148.734       91.053       72.965    22121.710     8290.622     5323.849        7.135        1.787      326.378       71.845        0.048      345.421       22.936      857.276
10/19/2014  17:35:00     -188.871      -86.330        4.757      128.197       89.334       61.080    16434.556     7980.637     3730.752        3.564        1.407      207.666       76.806        0.137      345.386       22.876      857.275
10/19/2014  17:36:00     -215.353     -158.162        8.150      217.290      129.575       70.429    47215.003    16789.686     4960.290        7.020        3.448      267.193       86.843        0.106      345.354       22.821      857.278
10/19/2014  17:37:00     -205.692      -60.434       -5.555       82.793       82.275       45.798     6854.637     6769.096     2097.415        3.085        0.786      214.386       41.143        0.037      345.388       22.879      857.288
10/19/2014  17:38:00     -204.778      -77.167       -1.686      118.493      102.571       55.827    14040.558    10520.877     3116.705        3.778        1.384      218.835       60.882        0.077      345.332       22.784      857.290
10/19/2014  17:39:00     -435.574       -0.595      -34.612      237.793      118.393       76.317    56545.703    14016.934     5824.347       13.364        3.819      435.574      106.374        0.060      345.272       22.680      857.281
10/19/2014  17:40:00     -317.703      -57.686        0.359      124.403      112.768       62.121    15476.014    12716.604     3859.076        6.815        1.603      322.897       65.166        0.041      345.224       22.597      857.294
10/19/2014  17:41:00     -279.037     -149.218       -7.546      132.763      109.462       67.895    17626.139    11981.971     4609.693        6.720        1.711      316.429       52.552        0.028      345.204       22.562      857.290
10/19/2014  17:42:00     -344.288     -108.126        2.071      190.129      133.094       78.086    36149.194    17714.120     6097.391        9.509        2.998      360.867       84.836        0.055      345.213       22.580      857.279
10/19/2014  17:43:00     -271.460     -115.769        3.583      160.383      133.611       66.909    25722.552    17851.962     4476.808        6.757        2.403      295.115       75.365        0.065      345.166       22.499      857.273
10/19/2014  17:44:00     -280.429     -119.095        0.395      193.521      138.975       76.607    37450.553    19313.955     5868.698        7.772        3.132      304.670       87.104        0.082      345.130       22.438      857.279
10/19/2014  17:45:00     -267.590      -72.503       13.311      203.110      182.340       95.473    41253.713    33247.822     9115.059        8.031        4.181      277.238      108.149        0.152      345.104       22.392      857.296
10/19/2014  17:46:00     -227.420      -35.621      -11.648      132.357      111.713       61.112    17518.246    12479.752     3734.729        4.342        1.687      230.193       62.081        0.073      345.078       22.349      857.302
10/19/2014  17:47:00     -392.345      -99.742      -11.833      246.059      154.057       85.096    60545.149    23733.488     7241.390       12.776        4.576      404.824      112.413        0.077      345.039       22.284      857.298
10/19/2014  17:48:00     -348.250     -105.424       -6.965      180.116      160.376       85.496    32441.868    25720.607     7309.648        9.895        3.274      363.857      100.420        0.076      345.034       22.276      857.268
10/19/2014  17:49:00     -251.840      -89.805      -17.414      186.069      125.501       79.247    34621.644    15750.450     6280.118        6.421        2.833      267.373       93.605        0.123      345.014       22.239      857.288
10/19/2014  17:50:00     -358.959     -103.166      -24.096      128.456       94.159       63.694    16501.029     8865.947     4056.979        8.474        1.471      373.490       60.555        0.026      344.992       22.201      857.316
10/19/2014  17:51:00     -181.511      -37.367       -4.671      166.437       85.565       68.538    27701.374     7321.444     4697.407        3.704        1.986      185.318       78.083        0.178      344.978       22.177      857.328
10/19/2014  17:52:00     -264.197        4.475      -14.157      181.998      132.436       88.210    33123.227    17539.360     7781.059        6.422        2.922      264.234       87.085        0.109      344.976       22.174      857.328
10/19/2014  17:53:00     -363.078      -56.406      -27.460      114.289      127.659       61.890    13061.926    16296.743     3830.371        8.447        1.659      367.433       47.970        0.017      344.929       22.093      857.332
10/19/2014  17:54:00     -144.334      -95.763       16.687      151.080      142.613       67.218    22825.253    20338.436     4518.293        3.897        2.384      173.214       87.376        0.254      344.849       21.957      857.331
10/19/2014  17:55:00     -361.688     -226.502      -24.022      160.927      137.734       77.442    25897.569    18970.790     5997.267       11.677        2.543      426.757       89.257        0.044      344.874       21.999      857.332
10/19/2014  17:56:00     -180.636     -102.109       10.155      202.841      110.473       72.165    41144.655    12204.227     5207.726        5.085        2.928      207.498       91.977        0.196      344.782       21.841      857.342
10/19/2014  17:57:00     -336.017     -112.288      -25.068      168.016      125.206       83.642    28229.438    15676.540     6995.991        8.851        2.545      354.283       94.867        0.072      344.812       21.890      857.366
10/19/2014  17:58:00     -119.936      -83.095       11.734      144.619       95.484       65.283    20914.660     9117.114     4261.867        2.785        1.715      145.909       71.465        0.240      344.776       21.831      857.375
10/19/2014  17:59:00     -269.364     -102.968      -21.085      143.815       85.857       59.957    20682.697     7371.494     3594.793        5.762        1.582      288.373       74.933        0.068      344.795       21.863      857.381
10/19/2014  18:00:00     -402.125      -72.136      -24.620      161.919      144.851       70.277    26217.639    20981.786     4938.926       10.982        2.607      408.544       56.965        0.019      344.768       21.817      857.361
10/19/2014  18:01:00     -297.693      -95.102      -16.536      149.629      114.118       61.826    22388.931    13022.879     3822.413        6.858        1.962      312.515       67.354        0.046      344.695       21.693      857.370
10/19/2014  18:02:00     -335.520     -190.402       -5.882      148.116      126.278       82.022    21938.421    15946.226     6727.580        9.673        2.231      385.781       83.830        0.047      344.686       21.677      857.375
10/19/2014  18:03:00     -204.773      -49.921       -8.614      137.304      129.555       70.554    18852.352    16784.443     4977.905        4.255        2.031      210.770       68.039        0.104      344.677       21.663      857.371
10/19/2014  18:04:00     -182.976      -19.356       -7.101      100.485       92.832       49.893    10097.183     8617.729     2489.347        2.755        1.060      183.997       48.054        0.068      344.626       21.575      857.393
10/19/2014  18:05:00     -180.371     -113.908        8.367      130.760      109.060       69.068    17098.246    11894.179     4770.362        3.967        1.688      213.328       73.579        0.119      344.577       21.491      857.399
10/19/2014  18:06:00     -149.901     -108.170        9.800      133.623      128.803       66.577    17855.230    16590.341     4432.470        3.657        1.944      184.854       64.105        0.120      344.578       21.494      857.393
10/19/2014  18:07:00     -206.840      -74.446      -13.713       91.566       87.393       44.828     8384.271     7637.600     2009.537        3.327        0.902      219.829       46.687        0.045      344.553       21.452      857.377
10/19/2014  18:08:00     -270.172      -84.000      -11.683      160.339      156.230       73.885    25708.529    24407.658     5459.008        6.787        2.779      282.929       76.582        0.073      344.516       21.386      857.366
10/19/2014  18:09:00     -242.227      -39.206       11.059      203.710      111.225       77.652    41497.887    12370.895     6029.904        6.011        2.995      245.380      102.551        0.175      344.471       21.312      857.369
10/19/2014  18:10:00     -314.290     -116.459       -0.633      244.324      113.113       76.992    59694.177    12794.575     5927.789        9.537        3.921      335.173      105.057        0.098      344.478       21.323      857.345
10/19/2014  18:11:00     -211.432      -58.954      -11.326       90.393      108.820       65.844     8170.935    11841.895     4335.491        3.632        1.217      219.497       49.685        0.051      344.438       21.253      857.356
10/19/2014  18:12:00     -223.905      -53.376        7.296      139.159       94.824       61.786    19365.281     8991.554     3817.533        4.260        1.609      230.179       70.207        0.093      344.366       21.130      857.387
10/19/2014  18:13:00     -177.362      -79.611       -0.416      156.469      113.046       73.618    24482.394    12779.419     5419.555        4.023        2.134      194.410       85.588        0.194      344.373       21.143      857.374
10/19/2014  18:14:00     -316.586     -166.520        0.986      161.120      110.107       67.319    25959.678    12123.569     4531.859        8.528        2.131      357.709       74.228        0.043      344.367       21.132      857.396
10/19/2014  18:15:00     -434.943      -53.364      -47.727      143.387       94.981       65.407    20559.793     9021.353     4278.016       11.407        1.693      438.205       71.065        0.026      344.363       21.125      857.403
10/19/2014  18:16:00     -247.369     -135.836        2.946      137.280      131.630       72.103    18845.741    17326.399     5198.784        6.050        2.069      282.211       80.411        0.081      344.326       21.063      857.409
10/19/2014  18:17:00     -144.657      -98.421       -6.030      134.749      107.224       64.592    18157.275    11496.910     4172.125        3.223        1.691      174.964       64.950        0.138      344.299       21.018      857.419
10/19/2014  18:18:00     -245.956     -110.972        1.568      172.827      129.037       66.729    29869.188    16650.469     4452.802        6.188        2.549      269.832       78.252        0.084      344.262       20.955      857.435
10/19/2014  18:19:00     -227.342      -83.124        3.251      141.325      109.636       59.222    19972.714    12019.989     3507.189        4.705        1.775      242.062       63.184        0.068      344.257       20.945      857.451
10/19/2014  18:20:00     -215.244      -96.714       -5.976      141.090      177.210       62.937    19906.338    31403.418     3961.054        5.549        2.764      235.974       65.072        0.076      344.237       20.911      857.469
10/19/2014  18:21:00     -216.955      -64.072        9.404      136.290      117.855       66.585    18574.900    13889.872     4433.525        4.407        1.845      226.219       62.647        0.077      344.215       20.872      857.466
10/19/2014  18:22:00     -179.804      -59.834        0.660      123.872      102.343       64.161    15344.307    10474.111     4116.610        3.292        1.497      189.498       65.056        0.118      344.233       20.903      857.467
10/19/2014  18:23:00     -193.904      -94.725        3.998      135.811      111.398       70.454    18444.569    12409.422     4963.791        4.120        1.791      215.804       74.668        0.120      344.251       20.934      857.460
10/19/2014  18:24:00     -268.230     -112.567      -12.258      210.607      131.674       72.429    44355.370    17337.982     5245.889        7.584        3.347      290.893       73.029        0.063      344.200       20.846      857.479
10/19/2014  18:25:00     -372.105      -47.241      -12.648      119.564      135.746       73.777    14295.572    18426.948     5443.011        8.950        1.908      375.092       69.658        0.034      344.195       20.837      857.477
10/19/2014  18:26:00     -383.983        2.691      -16.362      177.441      135.400       78.593    31485.142    18333.146     6176.880       10.185        2.800      383.993       66.636        0.030      344.157       20.772      857.477
10/19/2014  18:27:00     -365.379      -76.349      -13.589      161.829      134.713       70.154    26188.685    18147.523     4921.543        9.438        2.463      373.271       78.924        0.045      344.173       20.799      857.495
10/19/2014  18:28:00     -390.047       -1.137      -38.673      148.505       93.398       74.708    22053.709     8723.278     5581.243        9.499        1.818      390.049       70.848        0.033      344.163       20.783      857.506
10/19/2014  18:29:00     -359.719       11.035      -30.948      143.631      115.723       62.283    20629.913    13391.771     3879.149        8.418        1.895      359.888       57.316        0.025      344.136       20.737      857.508
10/19/2014  18:30:00     -367.546      -29.214      -29.496      170.629      101.348       68.838    29114.225    10271.459     4738.691        9.046        2.206      368.705       75.572        0.042      344.103       20.681      857.516
10/19/2014  18:31:00     -278.126      -79.861       -9.156      138.184      129.894       64.138    19094.708    16872.449     4113.702        6.194        2.004      289.365       59.336        0.042      344.065       20.617      857.533
10/19/2014  18:32:00     -313.487     -109.180      -29.277      205.705      112.277       69.840    42314.592    12606.176     4877.629        8.542        2.990      331.956       89.574        0.073      344.108       20.690      857.510
10/19/2014  18:33:00     -234.840      -42.018        1.314      125.299      104.512       51.519    15699.935    10922.770     2654.161        4.309        1.464      238.569       57.791        0.059      344.039       20.572      857.523
10/19/2014  18:34:00     -240.173      -22.162        1.112      146.962      136.512       66.975    21597.865    18635.553     4485.717        5.144        2.236      241.193       76.919        0.102      344.007       20.517      857.533
10/19/2014  18:35:00     -260.002       72.146       -4.001      201.989      137.969       68.803    40799.702    19035.540     4733.921        6.868        3.228      269.826       67.606        0.063      344.023       20.545      857.547
10/19/2014  18:36:00     -240.447      -72.366       -8.464      110.927      115.903       54.775    12304.761    13433.402     3000.249        4.593        1.437      251.101       49.459        0.039      343.977       20.465      857.554
10/19/2014  18:37:00     -288.664      -85.626      -19.203      155.259      156.148       70.712    24105.383    24382.051     5000.237        7.225        2.674      301.096       67.577        0.050      343.990       20.489      857.554
10/19/2014  18:38:00     -227.855      -36.914        0.171      132.052       93.093       60.652    17437.802     8666.237     3678.644        4.153        1.489      230.826       61.796        0.072      343.966       20.448      857.582
10/19/2014  18:39:00     -223.372      -36.252      -17.352      158.381       77.651       55.437    25084.403     6029.641     3073.291        4.284        1.709      226.295       69.857        0.095      343.938       20.399      857.587
10/19/2014  18:40:00     -261.749        4.578      -15.247       99.798       77.767       49.832     9959.612     6047.749     2483.193        4.363        0.925      261.789       46.959        0.032      343.943       20.407      857.600
10/19/2014  18:41:00     -275.970      -23.702      -17.321      129.908       90.998       64.712    16876.144     8280.674     4187.602        5.318        1.467      276.986       68.491        0.061      343.991       20.488      857.604
10/19/2014  18:42:00     -377.101      -81.501      -32.472      156.093      130.440       69.271    24365.140    17014.505     4798.527        9.803        2.309      385.807       85.697        0.049      343.973       20.458      857.600
10/19/2014  18:43:00     -339.650     -115.563      -28.751      105.890       91.678       63.595    11212.788     8404.925     4044.307        7.660        1.183      358.771       65.194        0.033      343.911       20.354      857.620
10/19/2014  18:44:00     -189.638      -11.653       -2.715      170.814       99.176       57.705    29177.259     9835.934     3329.853        3.922        2.117      189.996       68.980        0.132      343.843       20.238      857.610
10/19/2014  18:45:00     -304.391      -58.022      -12.715      141.222      113.174       60.839    19943.726    12808.308     3701.442        6.631        1.823      309.872       61.332        0.039      343.850       20.249      857.592
10/19/2014  18:46:00     -367.951      -42.243      -25.441      157.309      104.135       70.743    24746.100    10844.149     5004.565        8.920        2.030      370.368       79.169        0.046      343.853       20.254      857.623
10/19/2014  18:47:00     -425.270      -75.223      -39.228      155.944      131.467       73.470    24318.645    17283.545     5397.895       11.752        2.350      431.872       88.469        0.042      343.884       20.306      857.642
10/19/2014  18:48:00     -362.437     -118.982      -11.375      180.144      119.651       69.606    32452.035    14316.447     4845.001        9.862        2.581      381.467       63.686        0.028      343.846       20.242      857.658
10/19/2014  18:49:00     -342.888      -93.942       -0.489      158.187      156.879       63.773    25023.113    24610.914     4067.039        9.004        2.685      355.524       73.359        0.043      343.894       20.325      857.697
10/19/2014  18:50:00     -363.533      -58.741       -2.875      153.839      125.675       70.313    23666.294    15794.291     4943.925        9.000        2.220      368.248       79.701        0.047      343.873       20.289      857.715
10/19/2014  18:51:00     -223.874     -117.120      -21.394      127.212      117.015       46.582    16182.793    13692.411     2169.902        4.816        1.602      252.659       53.891        0.045      343.857       20.260      857.730
10/19/2014  18:52:00     -241.293     -122.005       -7.553      136.123      132.348       69.368    18529.503    17515.877     4811.857        5.700        2.043      270.384       67.937        0.063      343.848       20.246      857.700
10/19/2014  18:53:00     -117.699      -53.310        0.969      112.081       94.785       57.648    12562.056     8984.221     3323.328        2.078        1.243      129.209       58.198        0.203      343.749       20.079      857.698
10/19/2014  18:54:00     -257.842      -52.560      -23.491      124.152      153.010       61.202    15413.763    23412.111     3745.736        5.618        2.129      263.144       59.475        0.051      343.796       20.158      857.699
10/19/2014  18:55:00     -260.668        3.647        1.741      153.541      107.838       73.219    23574.704    11628.979     5360.980        5.426        2.028      260.693       79.894        0.094      343.758       20.093      857.682
10/19/2014  18:56:00     -309.924      -32.221       -4.823      140.999      141.831       61.416    19880.659    20116.118     3771.947        7.043        2.188      311.594       72.028        0.053      343.789       20.144      857.683
10/19/2014  18:57:00     -280.516      -84.632      -28.397      146.060      149.450       67.850    21333.424    22335.269     4603.665        6.746        2.414      293.005       69.414        0.056      343.780       20.130      857.692
10/19/2014  18:58:00     -239.088      -68.833       -1.221      166.157       95.407       62.850    27608.046     9102.473     3950.151        5.127        2.033      248.799       81.730        0.108      343.719       20.026      857.695
10/19/2014  18:59:00     -290.333       -9.148        1.909      139.035      111.776       76.469    19330.796    12493.805     5847.436        6.102        1.884      290.477       71.756        0.061      343.738       20.059      857.707
10/19/2014  19:00:00     -265.431      -53.293       -8.596      127.561      144.783       60.714    16271.921    20962.171     3686.157        5.714        2.046      270.728       52.021        0.037      343.784       20.136      857.700
10/19/2014  19:01:00     -164.832      -65.806        1.024      133.633      129.796       60.933    17857.666    16847.114     3712.885        3.495        1.921      177.483       70.127        0.156      343.698       19.990      857.704
10/19/2014  19:02:00     -187.592      -34.342        8.330      153.431      115.821       79.478    23541.131    13414.608     6316.806        3.985        2.164      190.710       83.400        0.191      343.695       19.985      857.747
10/19/2014  19:03:00     -192.323     -163.800        3.827      157.441      109.932       71.243    24787.546    12085.110     5075.608        5.288        2.097      252.623       83.798        0.110      343.731       20.048      857.793
10/19/2014  19:04:00     -286.391     -108.674        2.723      163.579       99.661       69.366    26758.016     9932.320     4811.628        6.766        2.075      306.316       82.950        0.073      343.793       20.154      857.808
10/19/2014  19:05:00      -99.582      -94.883        6.814       81.457       65.140       45.019     6635.217     4243.257     2026.680        1.593        0.645      137.547       41.505        0.091      343.825       20.208      857.837
10/19/2014  19:06:00      -83.057      -24.470        2.145       80.773       37.919       32.293     6524.355     1437.878     1042.858        0.825        0.450       86.587       39.448        0.208      343.772       20.119      857.846
10/19/2014  19:07:00      -62.623      -32.582       11.387       72.449       91.966       34.137     5248.898     8457.662     1165.306        0.999        0.744       70.592       45.138        0.409      343.667       19.939      857.850
10/19/2014  19:08:00     -118.143     -115.463       14.099       92.808      111.203       51.026     8613.345    12366.077     2603.633        2.553        1.179      165.195       47.286        0.082      343.664       19.932      857.865
10/19/2014  19:09:00     -190.455     -116.388        1.397      112.162       93.735       53.416    12580.400     8786.219     2853.260        3.702        1.211      223.202       59.539        0.071      343.655       19.916      857.878
10/19/2014  19:10:00     -251.007     -147.814       -0.266      174.734      124.373       70.408    30531.826    15468.610     4957.291        6.790        2.548      291.296       74.745        0.066      343.619       19.857      857.893
10/19/2014  19:11:00     -289.829      -82.566      -14.788      101.753       91.463       55.095    10353.767     8365.431     3035.463        5.639        1.088      301.360       47.907        0.025      343.736       20.052      857.913
10/19/2014  19:12:00     -190.223      -64.072        0.430       90.576       90.167       50.840     8204.092     8130.141     2584.680        2.960        0.946      200.724       51.439        0.066      343.631       19.876      857.915
10/19/2014  19:13:00     -262.112      -47.524      -14.931       83.269       79.501       54.499     6933.669     6320.433     2970.093        4.370        0.811      266.386       48.468        0.033      343.729       20.041      857.915
10/19/2014  19:14:00     -261.228     -132.692       -8.468      105.119      101.688       49.083    11050.003    10340.388     2409.186        5.486        1.190      292.997       47.959        0.027      343.769       20.111      857.926
10/19/2014  19:15:00      -66.224      -55.575       22.286       99.545       72.548       35.055     9909.294     5263.261     1228.854        1.218        0.820       86.453       37.101        0.184      343.757       20.092      857.913
10/19/2014  19:16:00       -9.625      -71.585       -8.539       74.584       29.714       21.532     5562.805      882.948      463.642        0.610        0.345       72.230       20.243        0.079      343.804       20.176      857.905
10/19/2014  19:17:00     -320.879       25.236      -18.342       76.660       86.463       44.991     5876.772     7475.784     2024.163        5.965        0.769      321.870       42.861        0.018      343.717       20.020      857.907
10/19/2014  19:18:00     -123.633      -22.112       -6.655      114.259       74.142       40.772    13055.097     5496.994     1662.359        1.801        1.011      125.595       42.395        0.114      343.593       19.811      857.923
10/19/2014  19:19:00     -203.693     -107.229        6.574      107.848       76.027       51.494    11631.203     5780.176     2651.598        3.654        1.003      230.193       60.207        0.068      343.672       19.945      857.925
10/19/2014  19:20:00     -210.817     -184.314      -10.584       96.508      102.246       58.663     9313.785    10454.245     3441.356        5.086        1.160      280.028       55.871        0.040      343.760       20.094      857.958
10/19/2014  19:21:00     -159.562     -147.527       10.300       98.105       84.946       56.217     9624.688     7215.823     3160.365        3.366        1.000      217.311       40.782        0.035      343.735       20.053      857.975
10/19/2014  19:22:00     -181.017      -72.551      -12.853       65.726       40.393       29.660     4319.912     1631.568      879.705        2.251        0.342      195.015       18.779        0.009      343.952       20.425      857.952
10/19/2014  19:23:00     -178.537      -90.285       -3.354       81.756       49.822       29.169     6684.090     2482.239      850.831        2.503        0.501      200.067       31.803        0.025      343.949       20.420      857.954
10/19/2014  19:24:00     -137.796      -35.546       -1.147       73.836       70.823       39.309     5451.824     5015.886     1545.185        1.613        0.601      142.307       32.393        0.052      343.845       20.242      857.997
10/19/2014  19:25:00       82.359      -22.632       14.256       71.367       55.952       41.708     5093.196     3130.616     1739.593        0.873        0.498       85.412       33.266        0.152      343.846       20.245      857.986
10/19/2014  19:26:00       48.367      -72.608       19.979       51.925       68.947       45.153     2696.218     4753.668     2038.785        0.875        0.474       87.243       33.337        0.146      343.783       20.138      857.987
10/19/2014  19:27:00     -110.370      -50.077        2.246       83.776       56.425       34.245     7018.384     3183.737     1172.713        1.303        0.569      121.199       20.232        0.028      343.675       19.952      857.988
10/19/2014  19:28:00     -184.321      -72.943       -6.416       72.403       53.750       39.526     5242.257     2889.106     1562.329        2.451        0.485      198.229       43.621        0.048      343.624       19.864      858.005
10/19/2014  19:29:00     -183.459     -119.870       -3.263       71.625       54.933       34.594     5130.177     3017.625     1196.739        2.869        0.467      219.148       33.628        0.024      343.584       19.795      858.027
10/19/2014  19:30:00     -121.704     -104.458        4.591       71.899       64.283       35.056     5169.496     4132.356     1228.903        1.814        0.527      160.385       32.929        0.042      343.662       19.929      858.052
10/19/2014  19:31:00     -108.155     -149.543       16.735       91.539       91.131       43.888     8379.323     8304.834     1926.125        2.647        0.931      184.555       49.341        0.071      343.739       20.059      858.060
10/19/2014  19:32:00     -147.668     -123.772      -12.770       67.829       54.803       33.842     4600.727     3003.415     1145.301        2.302        0.437      192.679       29.228        0.023      343.784       20.138      858.063
10/19/2014  19:33:00     -169.218     -118.007       -2.995      102.185       75.402       40.434    10441.786     5685.425     1634.891        3.016        0.888      206.302       45.238        0.048      343.728       20.040      858.067
10/19/2014  19:34:00     -138.957      -85.868       -0.267       59.923       60.475       33.712     3590.733     3657.275     1136.474        1.753        0.419      163.347       33.220        0.041      343.747       20.076      858.065
10/19/2014  19:35:00     -227.239     -156.142      -15.145      116.094       79.805       45.063    13477.899     6368.810     2030.653        4.906        1.094      275.713       46.407        0.028      343.711       20.012      858.069
10/19/2014  19:36:00     -207.546     -119.635      -11.995      115.821       91.075       49.658    13414.473     8294.713     2465.901        4.085        1.209      239.558       63.896        0.071      343.638       19.887      858.056
10/19/2014  19:37:00     -198.103     -102.689      -10.841      105.342       69.424       43.248    11096.978     4819.623     1870.405        3.384        0.889      223.136       44.480        0.040      343.512       19.672      858.047
10/19/2014  19:38:00     -179.420      -48.647        1.456       89.213       85.209       38.333     7958.915     7260.554     1469.414        2.562        0.834      185.898       40.250        0.047      343.401       19.483      858.042
10/19/2014  19:39:00      -83.489      -37.530       -2.637       66.236       56.746       31.186     4387.219     3220.088      972.579        0.848        0.429       91.536       29.142        0.101      343.292       19.301      858.041
10/19/2014  19:40:00      -72.057        6.378        3.472       58.131       27.315       19.064     3379.236      746.102      363.435        0.487        0.224       72.338       26.365        0.133      343.272       19.267      858.017
10/19/2014  19:41:00     -123.888      -54.609       -3.332       42.874       37.395       25.219     1838.186     1398.350      635.975        1.111        0.194      135.389       23.206        0.029      343.327       19.361      858.000
10/19/2014  19:42:00      -95.245      -27.904        1.989       30.989       23.120       14.895      960.335      534.530      221.851        0.579        0.086       99.249       11.156        0.013      343.263       19.252      857.989
10/19/2014  19:43:00     -117.710      -44.041        3.747       84.042       33.297       32.372     7063.045     1108.694     1047.922        1.251        0.461      125.679       40.787        0.105      343.365       19.425      857.986
10/19/2014  19:44:00      -59.124      -42.290        7.285       55.869       32.967       20.343     3121.348     1086.804      413.843        0.498        0.231       72.691       25.593        0.124      343.271       19.265      857.989
10/19/2014  19:45:00     -117.891     -181.547       -5.852       61.081       54.654       34.731     3730.881     2987.021     1206.212        2.741        0.396      216.466       29.238        0.018      343.483       19.621      857.984
10/19/2014  19:46:00      -72.107     -112.085       -3.679       41.293       57.747       31.054     1705.071     3334.719      964.349        1.189        0.300      133.275       24.660        0.034      343.439       19.551      858.000
10/19/2014  19:47:00     -118.935     -178.977       -7.234       62.681       50.902       36.097     3928.900     2590.997     1302.992        2.703        0.391      214.891       31.890        0.022      343.466       19.595      858.006
10/19/2014  19:48:00      -79.692     -146.269        5.891       73.761       58.566       39.042     5440.653     3429.975     1524.282        1.909        0.520      166.570       45.399        0.074      343.435       19.540      857.998
10/19/2014  19:49:00     -147.824     -104.874        9.963       95.770       78.944       39.244     9171.830     6232.086     1540.122        2.494        0.847      181.248       38.472        0.045      343.475       19.612      857.989
10/19/2014  19:50:00      -30.866     -157.877        3.843       53.659       57.817       41.588     2879.325     3342.803     1729.562        1.692        0.398      160.866       25.931        0.026      343.590       19.808      857.991
10/19/2014  19:51:00      -76.433      -45.786        1.164       41.521       49.260       29.632     1723.988     2426.580      878.032        0.648        0.251       89.097       18.979        0.045      343.602       19.829      858.004
10/19/2014  19:52:00      -87.322     -117.378        6.939       47.282       66.502       30.731     2235.584     4422.545      944.423        1.453        0.380      146.297       28.482        0.038      343.481       19.621      858.050
10/19/2014  19:53:00      -60.349     -145.343        2.446       33.838       48.054       29.440     1145.024     2309.212      866.730        1.455        0.216      157.374       19.818        0.016      343.450       19.570      858.072
10/19/2014  19:54:00      -63.136     -115.637        2.850       39.817       48.026       28.025     1585.422     2306.514      785.398        1.102        0.234      131.750       26.605        0.041      343.404       19.492      858.079
10/19/2014  19:55:00     -132.066      -80.279        3.209       69.572       50.166       33.314     4840.255     2516.651     1109.809        1.618        0.423      154.552       25.541        0.027      343.326       19.356      858.096
10/19/2014  19:56:00      -87.951     -108.213        3.152       47.474       68.276       33.429     2253.764     4661.655     1117.522        1.374        0.402      139.447       22.441        0.026      343.406       19.496      858.096
10/19/2014  19:57:00     -123.841      -73.284        4.700       49.344       47.554       26.349     2434.844     2261.426      694.262        1.306        0.270      143.900       25.432        0.031      343.496       19.648      858.072
10/19/2014  19:58:00      -79.933      -52.553        7.177       64.766       34.075       26.830     4194.571     1161.129      719.860        0.764        0.304       95.662       25.634        0.072      343.449       19.568      858.082
10/19/2014  19:59:00       -5.432      -73.714        4.321       54.486       49.834       27.610     2968.694     2483.419      762.294        0.585        0.311       73.914       32.800        0.197      343.424       19.526      858.093
10/19/2014  20:00:00      -69.576      -68.677      -12.555       40.174       43.307       24.740     1613.984     1875.464      612.077        0.691        0.205       97.762       23.518        0.058      343.477       19.614      858.093
10/19/2014  20:01:00      -71.244      -99.497       -3.945       32.489       32.766       17.264     1055.533     1073.618      298.048        0.871        0.121      122.373       16.505        0.018      343.471       19.605      858.090
10/19/2014  20:02:00      -37.314     -114.159       -3.361       40.570       28.356       19.498     1645.932      804.074      380.186        0.863        0.142      120.102       15.008        0.016      343.502       19.660      858.090
10/19/2014  20:03:00      -92.584      -45.487       -3.995       48.101       26.302       17.363     2313.695      691.810      301.458        0.698        0.165      103.155       19.623        0.036      343.336       19.378      858.095
10/19/2014  20:04:00      -54.176      -39.784       -3.094       36.152       22.536       12.966     1306.987      507.850      168.110        0.325        0.099       67.215       11.943        0.032      343.256       19.240      858.088
10/19/2014  20:05:00      -65.873     -132.432        1.714       45.706       55.977       25.258     2089.021     3133.449      637.989        1.387        0.293      147.910       24.485        0.027      343.334       19.372      858.088
10/19/2014  20:06:00     -116.903      -10.431       -6.747       44.286       40.708       21.788     1961.284     1657.125      474.728        0.896        0.205      117.367       24.293        0.043      343.185       19.118      858.095
10/19/2014  20:07:00      -63.747      -49.089        1.269       40.841       33.201       17.506     1667.998     1102.332      306.468        0.478        0.154       80.457       17.475        0.047      343.153       19.064      858.095
10/19/2014  20:08:00      -70.106      -28.114        3.195       40.104       29.894       17.896     1608.341      893.679      320.268        0.427        0.141       75.533       18.257        0.058      343.054       18.895      858.094
10/19/2014  20:09:00      -40.039      -13.724        9.113       23.117       20.670        9.973      534.411      427.231       99.465        0.147        0.053       42.326        7.273        0.030      343.121       19.009      858.096
10/19/2014  20:10:00      -14.250      -18.924       -3.477       19.332       15.510       16.655      373.742      240.573      277.385        0.073        0.045       23.689       17.088        0.520      343.219       19.176      858.109
10/19/2014  20:11:00      -44.467      -41.689       -2.584       35.433       24.398       12.632     1255.467      595.241      159.564        0.287        0.101       60.953       16.711        0.075      343.291       19.298      858.119
10/19/2014  20:12:00      -25.408      -31.643        7.474       44.137       21.377       15.511     1948.038      456.959      240.595        0.217        0.132       40.582       15.400        0.144      343.061       18.909      858.143
10/19/2014  20:13:00        0.022      -13.541        3.963       13.853       17.550       12.548      191.906      308.013      157.452        0.043        0.033       13.541       11.058        0.667      342.904       18.641      858.156
10/19/2014  20:14:00       -3.844      -27.751       -3.689       11.914       24.138        7.034      141.944      582.625       49.478        0.079        0.039       28.016        7.393        0.070      342.984       18.778      858.160
10/19/2014  20:15:00      -50.723      -60.109        5.391       21.371       18.760       14.524      456.726      351.954      210.956        0.362        0.051       78.651       12.097        0.024      343.166       19.087      858.158
10/19/2014  20:16:00      -33.983      -76.968       -7.293       19.997       14.953       13.013      399.876      223.603      169.332        0.396        0.040       84.136        7.913        0.009      343.284       19.285      858.161
10/19/2014  20:17:00       -0.383      -60.430       -1.197       17.244       32.365       15.425      297.343     1047.496      237.934        0.262        0.079       60.431       10.538        0.030      343.201       19.146      858.155
10/19/2014  20:18:00      -23.940      -20.028       -1.774       17.193       17.821        8.269      295.591      317.594       68.371        0.083        0.034       31.213        4.216        0.018      343.159       19.075      858.155
10/19/2014  20:19:00        4.475        3.731       -1.392        8.580        9.054        8.786       73.618       81.976       77.188        0.013        0.012        5.826        7.306        1.573      342.995       18.794      858.158
10/19/2014  20:20:00       -3.928       -1.012       -4.601        8.535       10.640        7.103       72.843      113.211       50.457        0.014        0.012        4.056        6.489        2.559      343.013       18.827      858.149
10/19/2014  20:21:00       23.843       14.220        4.002       14.013        8.245        8.423      196.356       67.973       70.947        0.056        0.017       27.761        5.638        0.041      342.997       18.797      858.138
10/19/2014  20:22:00       14.448       34.757       10.699       27.379       11.120        9.044      749.614      123.665       81.790        0.124        0.048       37.640        9.130        0.059      342.869       18.579      858.126
10/19/2014  20:23:00      -43.969       -1.261       -4.561       14.501       25.249       10.234      210.277      637.528      104.726        0.145        0.048       43.987       11.435        0.068      342.784       18.435      858.121
10/19/2014  20:24:00      -38.176       -7.442       -3.171       12.977       18.835       10.010      168.408      354.765      100.192        0.107        0.031       38.895        9.690        0.062      342.605       18.133      858.118
10/19/2014  20:25:00       -5.984      -19.138       -5.038       16.355       11.508       11.948      267.476      132.429      142.764        0.048        0.027       20.051        4.126        0.042      342.956       18.729      858.122
10/19/2014  20:26:00       -2.486      -17.039       -1.614        5.621       12.449        5.226       31.599      154.974       27.310        0.026        0.011       17.220        5.894        0.117      342.800       18.464      858.120
10/19/2014  20:27:00      -41.151      -30.740       -4.302       30.426       30.008       11.723      925.752      900.485      137.423        0.231        0.098       51.365       13.562        0.070      342.895       18.624      858.104
10/19/2014  20:28:00      -14.797       -2.798       12.068       34.095       14.844       16.266     1162.492      220.334      264.567        0.101        0.082       15.059       12.134        0.649      342.728       18.342      858.090
10/19/2014  20:29:00        0.919      -33.780       -4.159       11.499       27.224        8.901      132.228      741.125       79.234        0.106        0.048       33.793        7.688        0.052      342.797       18.458      858.086
10/19/2014  20:30:00        3.980      -49.904       -7.138       28.027       30.154       17.070      785.519      909.267      291.394        0.227        0.099       50.062        6.403        0.016      342.867       18.578      858.081
10/19/2014  20:31:00      -19.983      -27.973       -7.453       32.771       16.902       18.965     1073.911      285.682      359.658        0.148        0.086       34.378       16.352        0.226      342.906       18.643      858.065
10/19/2014  20:32:00       -6.985      -12.270       -3.166       28.229       25.538        9.654      796.900      652.186       93.198        0.088        0.077       14.119       13.781        0.953      342.969       18.751      858.064
10/19/2014  20:33:00      -21.785      -23.981        4.284       19.623       16.959       16.863      385.053      287.598      284.365        0.101        0.048       32.399       11.924        0.135      342.288       17.593      858.080
10/19/2014  20:34:00       -0.508      -14.014       -3.709       12.327        8.808        6.122      151.963       77.576       37.482        0.024        0.013       14.023        5.350        0.146      342.445       17.859      858.079
10/19/2014  20:35:00      -27.409      -25.607        1.523       12.552        8.555        9.057      157.557       73.188       82.022        0.086        0.016       37.510        7.371        0.039      342.765       18.405      858.090
10/19/2014  20:36:00      -19.788        3.084        1.331        7.459        7.602        6.383       55.630       57.791       40.737        0.028        0.008       20.027        5.984        0.089      342.554       18.046      858.108
10/19/2014  20:37:00      -13.651       -1.952       -3.869        7.948        9.647        3.619       63.168       93.069       13.094        0.019        0.008       13.790        3.230        0.055      342.509       17.968      858.108
10/19/2014  20:38:00       -7.452      -36.938       -6.403       19.508       17.819       13.068      380.559      317.533      170.764        0.116        0.043       37.683       10.882        0.083      342.666       18.235      858.109
10/19/2014  20:39:00        6.667      -26.052       -0.750       21.221       15.430       11.654      450.345      238.078      135.810        0.077        0.041       26.892        8.560        0.101      342.620       18.156      858.115
10/19/2014  20:40:00      -16.478      -17.854       -4.249       16.654       11.222        8.861      277.359      125.931       78.515        0.054        0.024       24.296        7.748        0.102      342.503       17.958      858.118
10/19/2014  20:41:00      -47.421      -36.608       -4.318       24.696       20.045       14.151      609.874      401.786      200.245        0.241        0.061       59.907        8.158        0.019      342.543       18.027      858.120
10/19/2014  20:42:00      -44.017      -23.738       -0.711       15.611       22.112       12.516      243.688      488.956      156.644        0.170        0.044       50.010        8.203        0.027      342.088       17.253      858.134
10/19/2014  20:43:00      -72.876     -120.096       -7.285       26.965       24.889       18.260      727.103      619.462      333.439        1.073        0.084      140.478       13.433        0.009      342.523       17.993      858.142
10/19/2014  20:44:00      -68.621      -72.778       -5.526       39.003       42.758       28.498     1521.221     1828.279      812.118        0.710        0.208      100.027       22.580        0.051      342.483       17.925      858.137
10/19/2014  20:45:00      -62.844      -33.496       -2.683       35.121       35.271       21.920     1233.496     1244.069      480.466        0.402        0.148       71.214       18.955        0.071      342.351       17.698      858.134
10/19/2014  20:46:00      -32.405      -22.616       -4.285       21.678       23.987       10.774      469.924      575.357      116.072        0.137        0.058       39.517        8.820        0.050      342.442       17.855      858.137
10/19/2014  20:47:00       16.172      -47.915       -0.406       26.657       24.489       14.403      710.584      599.726      207.447        0.204        0.076       50.571       10.577        0.044      342.388       17.763      858.129
10/19/2014  20:48:00      -29.751      -39.840       13.104       33.673       14.659       19.937     1133.865      214.874      397.483        0.219        0.087       49.722       14.109        0.081      342.391       17.768      858.140
10/19/2014  20:49:00      -48.210      -40.535        6.988       29.756       21.360       19.540      885.445      456.239      381.805        0.287        0.086       62.986       18.126        0.083      342.231       17.495      858.150
10/19/2014  20:50:00      -12.530      -42.246       -2.032       24.274       15.189       14.606      589.213      230.700      213.325        0.149        0.052       44.065       11.863        0.072      342.223       17.482      858.141
10/19/2014  20:51:00      -54.944      -48.763       -3.513       44.044       19.730       12.837     1939.849      389.271      164.788        0.395        0.125       73.462       12.938        0.031      342.349       17.696      858.144
10/19/2014  20:52:00      -64.044      -53.748        2.387       33.196       24.822       13.816     1101.944      616.156      190.877        0.445        0.095       83.609       12.951        0.024      342.211       17.463      858.158
10/19/2014  20:53:00      -13.800      -46.290       -2.983       24.808       16.554       13.775      615.442      274.032      189.753        0.171        0.054       48.303        5.205        0.012      342.267       17.557      858.171
10/19/2014  20:54:00      -11.382      -21.116        3.013       20.148       15.783        9.986      405.960      249.100       99.718        0.067        0.038       23.988        8.540        0.127      342.194       17.432      858.184
10/19/2014  20:55:00        9.078      -18.546        0.579       13.486       10.349        8.008      181.879      107.103       64.125        0.039        0.018       20.649        7.271        0.124      342.239       17.511      858.195
10/19/2014  20:56:00      -10.131      -39.725        1.965       15.848       22.558       13.073      251.171      508.872      170.897        0.131        0.047       40.996        7.226        0.031      342.277       17.575      858.198
10/19/2014  20:57:00      -43.430      -46.145       -3.743       15.512       30.732       12.143      240.607      944.463      147.458        0.268        0.067       63.368       12.445        0.039      342.415       17.809      858.208
10/19/2014  20:58:00       -2.893      -22.402       13.431       27.077       23.575       11.838      733.155      555.796      140.147        0.106        0.071       22.588        9.476        0.176      342.256       17.539      858.213
10/19/2014  20:59:00       36.944        3.235       -1.026       11.466        6.071        5.787      131.477       36.856       33.493        0.079        0.010       37.085        5.292        0.020      342.117       17.302      858.213
10/19/2014  21:00:00      -20.130      -34.127        8.562       16.791       18.441       20.047      281.939      340.070      401.891        0.133        0.051       39.621       13.697        0.120      342.148       17.355      858.223
10/19/2014  21:01:00        8.651      -29.653        3.039       18.403       29.088       14.510      338.660      846.136      210.536        0.118        0.070       30.889       13.384        0.188      342.040       17.173      858.241
10/19/2014  21:02:00       31.557       28.545       10.227       15.422       18.700       10.372      237.826      349.706      107.573        0.131        0.035       42.552       10.206        0.058      341.754       16.686      858.242
10/19/2014  21:03:00       11.803       25.018       -1.467       14.915       11.212        8.844      222.461      125.707       78.216        0.060        0.021       27.663        5.435        0.039      341.833       16.820      858.257
10/19/2014  21:04:00      -12.084       -2.418       -3.689        8.984       17.252        6.184       80.709      297.639       38.247        0.029        0.021       12.323        2.677        0.047      341.800       16.764      858.286
10/19/2014  21:05:00       -1.783        9.924       -3.751       14.729       20.405        5.641      216.941      416.358       31.818        0.039        0.033       10.083       10.147        1.013      341.831       16.819      858.277
10/19/2014  21:06:00       23.049       44.933        4.329        9.956        8.722        6.827       99.121       76.078       46.603        0.140        0.011       50.500        2.428        0.002      341.967       17.046      858.263
10/19/2014  21:07:00       -0.443       39.071        1.771       13.566       14.556       10.128      184.034      211.865      102.583        0.101        0.025       39.073        7.728        0.039      341.966       17.046      858.265
10/19/2014  21:08:00      -36.401      -16.988       -6.582       21.147       15.580        9.502      447.199      242.724       90.296        0.122        0.039       40.170       10.123        0.064      341.743       16.667      858.263
10/19/2014  21:09:00      -52.562        3.915       -8.576        8.834       13.675        9.076       78.033      186.994       82.366        0.160        0.017       52.708        6.445        0.015      341.492       16.243      858.269
10/19/2014  21:10:00      -56.680       -1.742       -6.190        9.239       11.541        5.910       85.368      133.187       34.924        0.175        0.013       56.707        3.092        0.003      341.630       16.474      858.297
10/19/2014  21:11:00      -54.839      -28.383      -10.629        7.229        8.681        6.380       52.252       75.352       40.703        0.205        0.008       61.749        3.535        0.003      341.886       16.911      858.313
10/19/2014  21:12:00      -36.540      -44.467       -3.786       14.785       11.618       10.795      218.590      134.988      116.542        0.190        0.024       57.554        8.517        0.022      341.542       16.326      858.328
10/19/2014  21:13:00      -52.101      -53.395       -2.629       24.066       16.421       12.557      579.155      269.657      157.676        0.329        0.050       74.602       12.305        0.027      341.794       16.753      858.347
10/19/2014  21:14:00      -10.328       -9.652       -0.014       19.178       14.721        6.500      367.799      216.712       42.249        0.041        0.031       14.136        4.231        0.090      341.723       16.634      858.342
10/19/2014  21:15:00        5.291      -19.667       -1.918       14.089       10.034       13.308      198.509      100.679      177.104        0.045        0.024       20.366       12.125        0.354      341.803       16.771      858.349
10/19/2014  21:16:00      -49.725      -21.650       -6.415       22.342        8.131        6.641      499.168       66.105       44.101        0.180        0.030       54.234        9.997        0.034      341.700       16.594      858.351
10/19/2014  21:17:00      -82.359      -23.142      -11.036       22.404       11.653       10.027      501.939      135.788      100.533        0.409        0.037       85.548       10.384        0.015      341.356       16.012      858.350
10/19/2014  21:18:00     -118.453       -8.033      -14.100       25.060       15.299       12.772      628.014      234.046      163.130        0.766        0.051      118.725       12.599        0.011      341.298       15.912      858.350
10/19/2014  21:19:00     -119.137       -8.304      -15.981       15.418       15.104       13.248      237.728      228.144      175.505        0.758        0.032      119.426        9.186        0.006      341.301       15.919      858.345
10/19/2014  21:20:00      -80.955      -10.042       -6.337       24.582       26.129       14.789      604.299      682.722      218.706        0.410        0.075       81.576       13.068        0.026      341.128       15.626      858.342
10/19/2014  21:21:00      -68.675       -4.379       -8.221       14.396       24.570        9.985      207.241      603.669       99.694        0.286        0.046       68.815        7.868        0.013      341.147       15.659      858.332
10/19/2014  21:22:00      -67.141      -13.285       -5.679       19.807       19.259       12.460      392.331      370.905      155.249        0.282        0.046       68.443       10.375        0.023      341.099       15.580      858.324
10/19/2014  21:23:00      -73.650      -36.415      -11.506       32.369       23.966       13.996     1047.729      574.349      195.887        0.435        0.091       82.160       11.707        0.020      340.971       15.360      858.347
10/19/2014  21:24:00      -51.304      -16.363       -6.555       16.600       16.397       12.247      275.555      268.863      149.983        0.182        0.035       53.850        4.391        0.007      340.947       15.319      858.339
10/19/2014  21:25:00      -76.780      -41.460      -12.491       18.351       22.450       13.742      336.771      504.013      188.839        0.440        0.051       87.258        8.616        0.010      340.985       15.385      858.338
10/19/2014  21:26:00      -69.470      -35.316       -4.890       18.225       13.205        7.767      332.147      174.384       60.329        0.333        0.028       77.931        6.995        0.008      341.113       15.602      858.343
10/19/2014  21:27:00      -74.679      -25.551       -6.182       10.658       11.221        8.347      113.601      125.907       69.671        0.329        0.015       78.929        7.294        0.009      341.283       15.889      858.338
10/19/2014  21:28:00      -82.288      -39.278       -7.391        9.557       13.939        8.504       91.333      194.304       72.326        0.436        0.018       91.181        3.645        0.002      341.155       15.671      858.337
10/19/2014  21:29:00      -92.621      -23.118      -10.786       21.127       28.883       15.230      446.362      834.252      231.955        0.537        0.076       95.462       13.895        0.021      340.798       15.067      858.345
10/19/2014  21:30:00      -87.844      -10.456      -13.853       28.966       26.406       15.686      839.052      697.287      246.054        0.490        0.089       88.464       13.253        0.022      340.770       15.021      858.348
10/19/2014  21:31:00     -125.423      -34.580      -11.474       27.797       32.525       21.483      772.700     1057.845      461.522        0.967        0.115      130.103       21.212        0.027      340.668       14.850      858.366
10/19/2014  21:32:00     -143.383      -36.777      -14.351       32.497       43.555       19.193     1056.059     1897.050      368.354        1.272        0.166      148.025        8.152        0.003      340.552       14.652      858.365
10/19/2014  21:33:00      -64.589        3.952       -2.319       29.240       27.060       19.267      855.003      732.239      371.211        0.308        0.098       64.709       14.472        0.050      340.582       14.703      858.365
10/19/2014  21:34:00      -87.606      -19.815       -6.717       27.239       28.435       19.127      741.966      808.529      365.855        0.501        0.096       89.819       11.670        0.017      340.604       14.739      858.350
10/19/2014  21:35:00      -70.820      -11.379       -7.250       21.231       28.862       13.786      450.755      833.038      190.059        0.334        0.074       71.729       11.444        0.025      340.573       14.686      858.333
10/19/2014  21:36:00      -58.710      -37.822        1.944       33.586       22.982       14.386     1128.044      528.195      206.958        0.337        0.093       69.838       12.208        0.031      340.651       14.819      858.335
10/19/2014  21:37:00     -147.959      -23.770      -12.434       54.733       61.916       29.913     2995.741     3833.632      894.815        1.517        0.386      149.856       23.406        0.024      340.472       14.514      858.353
10/19/2014  21:38:00     -106.327       12.507      -17.422       36.154       30.801       20.814     1307.079      948.678      433.208        0.723        0.134      107.060       15.784        0.022      340.483       14.535      858.371
10/19/2014  21:39:00      -91.616       -1.821        7.445       60.394       37.640       27.422     3647.440     1416.793      751.947        0.713        0.291       91.634       31.059        0.115      340.501       14.566      858.359
10/19/2014  21:40:00      -94.804      -23.552       -1.609       36.888       31.235       22.765     1360.723      975.655      518.265        0.620        0.143       97.685       22.295        0.052      340.507       14.575      858.360
10/19/2014  21:41:00     -127.390      -15.446       -8.935       47.047       27.206       19.402     2213.443      740.149      376.453        0.994        0.167      128.323       21.743        0.029      340.498       14.562      858.355
10/19/2014  21:42:00      -91.238        1.248       -3.206       39.518       31.946       23.612     1561.697     1020.530      557.512        0.574        0.157       91.247       21.544        0.056      340.461       14.497      858.355
10/19/2014  21:43:00      -97.878      -10.312       -7.327       37.286       24.187       20.141     1390.267      585.031      405.656        0.606        0.119       98.419       20.473        0.043      340.549       14.646      858.348
10/19/2014  21:44:00     -111.422      -36.024      -13.467       17.394       27.562       18.045      302.537      759.640      325.618        0.764        0.069      117.101        9.916        0.007      340.477       14.524      858.357
10/19/2014  21:45:00      -79.390      -27.544       -7.891       27.854       26.904       16.940      775.823      723.808      286.978        0.445        0.089       84.033       15.838        0.036      340.434       14.453      858.364
10/19/2014  21:46:00      -64.078      -12.247       -7.543       33.588       23.125       15.510     1128.151      534.746      240.545        0.311        0.095       65.237        7.747        0.014      340.543       14.636      858.362
10/19/2014  21:47:00      -67.463      -35.452       -4.387       23.645       20.739       12.551      559.065      430.114      157.537        0.349        0.057       76.211        6.080        0.006      340.497       14.558      858.352
10/19/2014  21:48:00      -86.399      -34.042      -15.069       17.638       20.026       17.020      311.100      401.059      289.668        0.493        0.050       92.864        8.465        0.008      340.538       14.628      858.366
10/19/2014  21:49:00     -115.367      -10.863      -14.662       24.007       24.592       11.070      576.346      604.753      122.540        0.747        0.065      115.878       11.671        0.010      340.670       14.850      858.354
10/19/2014  21:50:00     -105.310      -24.044      -12.140       27.991       20.635       14.033      783.492      425.809      196.927        0.661        0.070      108.020        9.173        0.007      340.359       14.325      858.370
10/19/2014  21:51:00      -98.801      -11.643      -14.087       40.901       36.662       19.509     1672.852     1344.084      380.607        0.675        0.170       99.485       14.988        0.023      340.269       14.172      858.373
10/19/2014  21:52:00      -91.477       18.025      -11.485       36.982       40.712       17.682     1367.667     1657.474      312.637        0.608        0.167       93.236       14.574        0.024      340.953       15.330      858.373
10/19/2014  21:53:00      -88.074      -34.473       -3.675       23.525       18.339        9.383      553.425      336.327       88.042        0.497        0.049       94.580       11.764        0.015      340.765       15.012      858.369
10/19/2014  21:54:00     -127.021      -21.600       -6.621       27.515       28.672       14.198      757.088      822.069      201.592        0.921        0.089      128.844       12.566        0.010      340.534       14.620      858.375
10/19/2014  21:55:00      -83.881      -58.700       -4.681       39.563       29.205       19.716     1565.226      852.931      388.715        0.665        0.140      102.380       16.270        0.025      340.443       14.467      858.375
10/19/2014  21:56:00      -58.835      -48.003       -1.515       30.165       18.707       12.947      909.941      349.958      167.635        0.360        0.071       75.933       10.929        0.021      340.547       14.644      858.357
10/19/2014  21:57:00     -105.690      -21.698       -4.189       30.565       21.220       15.605      934.195      450.305      243.509        0.664        0.081      107.894       18.122        0.028      340.512       14.584      858.332
10/19/2014  21:58:00      -68.600      -19.189        4.734       44.408       29.305       18.115     1972.108      858.800      328.140        0.413        0.158       71.233       21.989        0.095      340.351       14.311      858.320
10/19/2014  21:59:00     -102.100      -11.904       -4.992       34.259       29.981       17.773     1173.682      898.882      315.869        0.649        0.119      102.792       15.933        0.024      340.290       14.207      858.300
10/19/2014  22:00:00      -66.430      -31.948       -3.401       41.838       43.043       15.091     1750.451     1852.659      227.733        0.464        0.192       73.713       13.982        0.036      340.159       13.988      858.300
10/19/2014  22:01:00      -74.504      -19.251       -1.658       29.518       30.043       17.012      871.330      902.595      289.410        0.399        0.103       76.951       13.782        0.032      340.366       14.335      858.275
10/19/2014  22:02:00      -52.758      -34.196        2.160       29.799       25.116       17.955      887.963      630.812      322.397        0.290        0.092       62.871       18.342        0.085      340.294       14.215      858.280
10/19/2014  22:03:00      -45.014       -5.119        2.420       29.577       25.561       17.319      874.795      653.345      299.931        0.194        0.091       45.304       20.588        0.207      340.252       14.143      858.283
10/19/2014  22:04:00       -8.014        0.095       -4.468       46.950       47.499       26.816     2204.321     2256.137      719.110        0.263        0.259        8.015       23.048        8.269      340.771       15.023      858.297
10/19/2014  22:05:00      -11.215      -40.015       18.026       46.217       33.064       26.221     2135.967     1093.244      687.558        0.298        0.196       41.557       28.077        0.456      340.452       14.483      858.323
10/19/2014  22:06:00        9.861      -58.731       -5.130       22.318       29.832       16.530      498.083      889.928      273.240        0.262        0.083       59.553       11.915        0.040      341.462       16.190      858.300
10/19/2014  22:07:00      -41.680        8.307        3.871       48.105       30.030       19.251     2314.092      901.785      370.620        0.270        0.179       42.500       21.442        0.255      340.924       15.280      858.294
10/19/2014  22:08:00      -74.137      -14.517       -0.346       47.254       35.881       18.668     2232.898     1287.466      348.484        0.479        0.193       75.545       22.572        0.089      340.920       15.274      858.292
10/19/2014  22:09:00      -82.942      -41.273       -1.678       48.090       25.228       12.734     2312.663      636.472      162.165        0.585        0.156       92.643       15.632        0.028      340.290       14.208      858.298
10/19/2014  22:10:00      -34.964      -49.877       -2.826       27.450       77.930       25.297      753.499     6073.067      639.939        0.559        0.373       60.911       25.643        0.177      341.039       15.476      858.271
10/19/2014  22:11:00      -56.952      -17.832        1.930       22.639       31.241       19.011      512.516      976.031      361.412        0.271        0.092       59.678       10.759        0.033      341.195       15.737      858.240
10/19/2014  22:12:00      -92.823      -31.337       -1.056       46.003       59.176       18.568     2116.258     3501.793      344.774        0.778        0.298       97.969       19.411        0.039      341.513       16.279      858.249
10/19/2014  22:13:00     -109.862      -83.148       -3.623       65.529       40.954       27.926     4294.020     1677.242      779.870        1.287        0.338      137.780       27.829        0.041      342.035       17.163      858.234
10/19/2014  22:14:00      -79.208      -10.058       -7.183       35.069       24.443       17.744     1229.845      597.446      314.835        0.428        0.107       79.844        9.342        0.014      341.194       15.738      858.245
10/19/2014  22:15:00      -34.403       -6.214       -1.302       20.372       19.939       13.476      415.013      397.578      181.615        0.111        0.050       34.960       12.893        0.136      340.572       14.685      858.260
10/19/2014  22:16:00      -42.013       -2.374       -5.918       18.225       13.511       11.449      332.157      182.538      131.079        0.123        0.032       42.080        8.261        0.039      340.341       14.296      858.273
10/19/2014  22:17:00      -28.906      -17.045       -7.633       19.437       10.740       12.079      377.778      115.339      145.891        0.091        0.032       33.557        9.516        0.080      340.352       14.313      858.282
10/19/2014  22:18:00      -42.967      -28.096       -2.012       17.273       10.984        9.144      298.357      120.642       83.606        0.157        0.025       51.338       10.581        0.042      340.901       15.242      858.285
10/19/2014  22:19:00       -5.083       -8.862        0.396       16.948       15.511        8.281      287.236      240.595       68.568        0.035        0.030       10.216        6.535        0.409      340.775       15.028      858.286
10/19/2014  22:20:00      -33.272      -13.572       -0.053       24.054       13.923        9.454      578.576      193.843       89.385        0.108        0.043       35.934        8.164        0.052      340.994       15.400      858.265
10/19/2014  22:21:00      -58.361      -21.460       -5.484       19.396        9.702        7.517      376.191       94.135       56.503        0.221        0.026       62.182        9.207        0.022      340.550       14.649      858.275
10/19/2014  22:22:00      -12.824      -37.687        3.323       12.773       22.309        8.222      163.137      497.690       67.601        0.116        0.036       39.809        5.231        0.017      340.664       14.841      858.277
10/19/2014  22:23:00       -7.445      -42.819        4.796       37.127       33.112       19.126     1378.418     1096.413      365.806        0.238        0.142       43.462       18.214        0.176      340.637       14.794      858.303
10/19/2014  22:24:00      -11.559      -92.001        2.089       31.188       50.573       18.379      972.678     2557.640      337.800        0.623        0.193       92.724       12.288        0.018      341.469       16.203      858.317
10/19/2014  22:25:00      -69.295      -20.425       -7.033       34.975       16.821       11.721     1223.218      282.933      137.387        0.346        0.082       72.243       15.601        0.047      340.253       14.145      858.338
10/19/2014  22:26:00      -75.980      -20.995      -11.712       16.772       16.654        8.252      281.312      277.359       68.091        0.349        0.031       78.827        3.710        0.002      340.283       14.196      858.351
10/19/2014  22:27:00     -100.363      -39.738       -8.271       17.096       12.190        6.496      292.269      148.605       42.198        0.610        0.024      107.944        6.830        0.004      340.480       14.528      858.362
10/19/2014  22:28:00      -79.501      -58.936       -2.182       31.626       21.038        8.621     1000.218      442.590       74.322        0.566        0.076       98.964        8.754        0.008      340.847       15.151      858.378
10/19/2014  22:29:00      -54.057      -57.754        0.032       29.382       40.720       21.328      863.292     1658.078      454.882        0.462        0.149       79.106       18.763        0.056      341.217       15.777      858.386
10/19/2014  22:30:00      -79.471      -90.430       -0.861       42.776       50.497       21.353     1829.759     2549.976      455.960        0.966        0.242      120.388       24.569        0.042      341.156       15.673      858.392
10/19/2014  22:31:00      -70.201      -58.426        0.719       36.568       32.628       18.280     1337.184     1064.561      334.157        0.554        0.137       91.333       14.190        0.024      340.998       15.406      858.394
10/19/2014  22:32:00      -68.308      -55.267       -2.725       26.658       17.712       11.529      710.643      313.721      132.929        0.444        0.058       87.866       10.167        0.013      340.891       15.225      858.388
10/19/2014  22:33:00      -68.878      -47.156        4.504       24.796       22.562       14.286      614.822      509.059      204.092        0.416        0.066       83.474        9.827        0.014      340.813       15.092      858.387
10/19/2014  22:34:00      -84.570      -69.936       -2.992       32.885       36.430       13.154     1081.426     1327.130      173.015        0.732        0.129      109.742       12.569        0.013      340.943       15.312      858.373
10/19/2014  22:35:00     -112.740      -38.035       -2.482       44.824       31.727       19.953     2009.224     1006.606      398.137        0.879        0.171      118.983       19.449        0.027      340.587       14.710      858.384
10/19/2014  22:36:00      -92.483     -139.691       -7.749       64.333       60.332       30.341     4138.678     3639.890      920.570        1.841        0.435      167.531       34.368        0.042      340.881       15.204      858.401
10/19/2014  22:37:00     -155.688     -179.135        0.942       83.789       74.349       49.972     7020.622     5527.817     2497.174        3.568        0.752      237.336       40.720        0.029      341.720       16.624      858.382
10/19/2014  22:38:00     -131.750     -162.856       -4.752       86.158      112.751       36.635     7423.187    12712.736     1342.148        3.269        1.074      209.476       24.758        0.014      341.509       16.269      858.400
10/19/2014  22:39:00      -75.883      -37.253       19.624       70.634       64.199       45.158     4989.142     4121.524     2039.282        0.934        0.557       84.534       33.855        0.160      341.164       15.686      858.400
10/19/2014  22:40:00     -130.282      -53.133       -3.588       40.707       36.583       26.990     1657.088     1338.326      728.485        1.177        0.186      140.700       17.093        0.015      340.976       15.369      858.431
10/19/2014  22:41:00      -93.418     -106.759       -1.058       57.055       52.323       29.630     3255.304     2737.678      877.946        1.350        0.344      141.861       25.585        0.033      341.124       15.618      858.430
10/19/2014  22:42:00      -40.619      -42.079       -3.099       32.258       28.419       15.988     1040.579      807.639      255.616        0.277        0.105       58.485       13.116        0.050      341.216       15.775      858.421
10/19/2014  22:43:00      -72.438      -46.516       -2.036       39.037       20.624       13.663     1523.860      425.360      186.672        0.478        0.107       86.087       12.747        0.022      341.075       15.537      858.430
10/19/2014  22:44:00      -20.676      -62.364       -0.328       25.191       22.635       12.253      634.595      512.356      150.146        0.281        0.065       65.702       10.152        0.024      341.272       15.868      858.431
10/19/2014  22:45:00       -9.197        1.782        7.633       22.233       15.912       14.736      494.305      253.182      217.145        0.056        0.048        9.368       15.278        2.659      341.208       15.761      858.431
10/19/2014  22:46:00        7.972      -24.039        1.789       27.848       37.298       17.216      775.530     1391.162      296.380        0.155        0.123       25.326       12.608        0.248      341.342       15.989      858.444
10/19/2014  22:47:00       57.159       29.908       17.417       38.100       34.557       29.963     1451.643     1194.167      897.778        0.400        0.177       64.511       22.597        0.123      340.692       14.888      858.478
10/19/2014  22:48:00       56.769       53.385       -7.643       24.628       25.922       18.997      606.529      671.943      360.874        0.388        0.082       77.927       17.423        0.050      340.262       14.159      858.494
10/19/2014  22:49:00       85.829       68.671      -10.673       23.108       22.542       19.772      533.959      508.138      390.942        0.681        0.072      109.920       12.980        0.014      340.025       13.762      858.485
10/19/2014  22:50:00       94.701       61.461        4.306       35.637       19.902       25.531     1270.028      396.087      651.822        0.754        0.116      112.897       12.636        0.013      339.855       13.473      858.482
10/19/2014  22:51:00      100.843       68.660       18.576       43.445       26.897       28.195     1887.464      723.467      794.936        0.932        0.170      121.998       20.212        0.027      339.761       13.315      858.479
10/19/2014  22:52:00       69.918       58.006       -3.120       46.145       22.327       29.557     2129.405      498.482      873.601        0.588        0.175       90.847       22.181        0.060      339.694       13.204      858.490
10/19/2014  22:53:00       37.087       36.594        7.586       43.275       26.746       25.925     1872.762      715.359      672.130        0.302        0.163       52.101       23.117        0.197      339.665       13.154      858.496
10/19/2014  22:54:00       18.434       39.209       -2.723       30.829       32.196       20.173      950.402     1036.582      406.937        0.214        0.120       43.326       17.806        0.169      339.889       13.531      858.483
10/19/2014  22:55:00       30.316       71.871       -5.121       37.081       34.397       20.061     1375.017     1183.176      402.438        0.454        0.148       78.003       19.973        0.066      339.961       13.653      858.484
10/19/2014  22:56:00      117.642       83.501       15.233       31.934       25.701       25.767     1019.784      660.557      663.953        1.169        0.117      144.264       18.756        0.017      340.142       13.959      858.457
10/19/2014  22:57:00       90.587       69.490        4.943       42.584       34.798       36.208     1813.359     1210.906     1311.006        0.870        0.217      114.171       21.731        0.036      340.218       14.088      858.456
10/19/2014  22:58:00      -17.603       53.012      -15.554       22.676       24.030       11.232      514.205      577.426      126.158        0.229        0.061       55.858       11.142        0.040      340.039       13.786      858.481
10/19/2014  22:59:00      -33.716      -10.479       -6.397       14.709       13.881       14.723      216.345      192.688      216.775        0.096        0.031       35.307       10.524        0.089      340.039       13.784      858.500
10/19/2014  23:00:00      -43.471       13.684      -10.905       12.033       20.155        9.030      144.787      406.213       81.549        0.141        0.032       45.574        4.323        0.009      339.985       13.693      858.487
10/19/2014  23:01:00      -21.644       58.702       -3.781       26.483       22.227       15.217      701.360      494.061      231.543        0.268        0.071       62.565       11.229        0.032      340.228       14.104      858.458
10/19/2014  23:02:00       39.184       71.021       -5.079       22.743       24.172       15.681      517.266      584.286      245.886        0.398        0.067       81.113       13.337        0.027      340.679       14.865      858.440
10/19/2014  23:03:00       -0.457       61.267       -7.086       17.257       21.326       18.218      297.821      454.818      331.889        0.244        0.054       61.269       16.680        0.074      340.517       14.594      858.429
10/19/2014  23:04:00      -18.818       61.114      -10.027       19.005       17.440        9.754      361.174      304.158       95.132        0.247        0.038       63.946       11.066        0.030      340.687       14.879      858.428
10/19/2014  23:05:00      -60.789       52.805      -19.921       10.739       12.526        8.383      115.319      156.900       70.274        0.361        0.017       80.521        5.935        0.005      340.524       14.604      858.428
10/19/2014  23:06:00      -55.568       21.383       -7.472       13.093       19.244        8.698      171.438      370.344       75.650        0.211        0.031       59.541        8.620        0.021      340.277       14.186      858.443
10/19/2014  23:07:00      -48.038        9.491       -9.707       11.000       18.543        7.747      121.000      343.831       60.011        0.151        0.026       48.966       10.698        0.048      340.386       14.371      858.438
10/19/2014  23:08:00      -36.622      -23.047       -8.677       16.164       17.913        7.040      261.287      320.884       49.559        0.129        0.032       43.271        5.236        0.015      340.380       14.361      858.440
10/19/2014  23:09:00      -26.984       10.882        3.781       17.120       11.067        8.823      293.079      122.478       77.837        0.068        0.025       29.096        9.965        0.117      340.921       15.276      858.435
10/19/2014  23:10:00      -24.515      -26.078       -1.010       25.783       12.610       10.541      664.742      159.019      111.105        0.111        0.047       35.791       10.382        0.084      340.627       14.778      858.435
10/19/2014  23:11:00       -4.726      -19.492        6.167       17.918       14.162       10.218      321.042      200.556      104.412        0.053        0.031       20.057        9.629        0.230      340.158       13.985      858.454
10/19/2014  23:12:00        2.212      -33.497       -0.083        9.078       11.405        6.757       82.413      130.072       45.662        0.069        0.013       33.570        3.241        0.009      340.307       14.236      858.450
10/19/2014  23:13:00       17.844      -11.798        7.135       19.222       22.741        6.494      369.495      517.143       42.177        0.072        0.046       21.391        8.220        0.148      340.548       14.645      858.439
10/19/2014  23:14:00       20.587        2.450       -0.954       11.186        7.102        5.483      125.130       50.434       30.068        0.032        0.010       20.732        4.199        0.041      340.392       14.380      858.427
10/19/2014  23:15:00       -5.552       11.675        8.560        6.783        7.621       10.779       46.015       58.078      116.176        0.023        0.011       12.928        6.259        0.234      340.193       14.044      858.420
10/19/2014  23:16:00      -35.230        6.349       -2.007       17.618       12.141       11.632      310.388      147.397      135.311        0.094        0.030       35.798        5.213        0.021      340.562       14.669      858.402
10/19/2014  23:17:00       -9.439       22.063       -2.943       13.396       29.435       11.357      179.449      866.446      128.978        0.088        0.059       23.997        9.134        0.145      340.784       15.045      858.406
10/19/2014  23:18:00      -19.484      -18.326       -6.596       14.313       17.773       12.283      204.859      315.880      150.882        0.072        0.034       26.748        7.904        0.087      340.709       14.916      858.399
10/19/2014  23:19:00      -37.654      -14.255        2.696       31.608       13.664       10.879      999.096      186.709      118.353        0.147        0.065       40.262       11.790        0.086      340.548       14.645      858.398
10/19/2014  23:20:00      -32.906      -21.781       -6.760        8.293        9.546        7.316       68.770       91.130       53.531        0.091        0.011       39.461        4.845        0.015      339.967       13.662      858.378
10/19/2014  23:21:00      -50.242       -0.949       -5.807        6.263        7.063        3.694       39.231       49.887       13.647        0.133        0.005       50.251        1.838        0.001      340.344       14.298      858.365
10/19/2014  23:22:00      -57.633       -0.740       -9.872       13.718       10.028        6.050      188.171      100.563       36.607        0.187        0.016       57.638        4.031        0.005      340.741       14.970      858.360
10/19/2014  23:23:00      -31.746      -42.276      -10.072       18.866       17.518        9.632      355.940      306.892       92.776        0.183        0.038       52.869        8.892        0.028      340.006       13.730      858.370
10/19/2014  23:24:00        8.074      -15.881        9.985       15.113       20.629       12.596      228.391      425.567      158.667        0.061        0.041       17.816       12.694        0.508      339.998       13.716      858.379
10/19/2014  23:25:00       23.138       22.326       16.661       13.482       12.047       16.087      181.767      145.138      258.802        0.095        0.029       32.153       10.302        0.103      339.878       13.514      858.375
10/19/2014  23:26:00       15.747       -3.283       -6.263        6.833       11.113        6.912       46.695      123.499       47.780        0.026        0.011       16.085        6.643        0.171      340.263       14.161      858.385
10/19/2014  23:27:00       28.169       24.398       10.582        6.941        7.527        5.873       48.176       56.663       34.496        0.082        0.007       37.266        4.429        0.014      340.648       14.814      858.393
10/19/2014  23:28:00       27.709       26.607       12.834        6.194        5.127       10.826       38.372       26.290      117.197        0.091        0.009       38.415        4.766        0.015      340.342       14.297      858.375
10/19/2014  23:29:00       20.224       16.677        5.209        3.715        5.494        4.199       13.801       30.182       17.632        0.039        0.003       26.213        2.658        0.010      340.415       14.419      858.378
10/19/2014  23:30:00       20.617        9.135        8.599        6.079        5.852        5.843       36.948       34.243       34.135        0.034        0.005       22.551        2.297        0.010      340.274       14.182      858.386
10/19/2014  23:31:00        0.225        4.316        2.670        8.296        4.282        3.027       68.824       18.340        9.165        0.006        0.005        4.322        3.589        0.690      340.140       13.959      858.402
10/19/2014  23:32:00       20.073       13.475        6.051        8.548        5.986        5.315       73.070       35.833       28.246        0.038        0.007       24.177        3.587        0.022      340.224       14.097      858.406
10/19/2014  23:33:00       40.996       27.818        7.737       11.712        5.240        6.826      137.178       27.459       46.590        0.136        0.011       49.543        7.236        0.021      340.080       13.854      858.395
10/19/2014  23:34:00       47.350       18.536        3.204       14.747        8.790        9.898      217.480       77.268       97.972        0.149        0.020       50.849        5.813        0.013      339.994       13.708      858.378
10/19/2014  23:35:00       30.207       15.529        3.700        5.860        4.908        4.478       34.344       24.089       20.056        0.062        0.004       33.965        3.385        0.010      340.237       14.118      858.352
10/19/2014  23:36:00       -9.128        9.932        1.975       21.012        9.900        5.882      441.506       98.002       34.602        0.038        0.029       13.490        5.565        0.170      340.020       13.755      858.346
10/19/2014  23:37:00      -76.389      -27.904      -18.686       10.192        7.065        8.095      103.877       49.909       65.537        0.359        0.011       81.326        6.299        0.006      339.278       12.502      858.341
10/19/2014  23:38:00      -75.317      -18.714      -16.619        7.855        7.664        4.847       61.703       58.732       23.497        0.322        0.007       77.607        3.221        0.002      339.375       12.665      858.320
10/19/2014  23:39:00      -71.366      -12.403      -16.143       10.203        9.288        6.393      104.111       86.271       40.874        0.287        0.012       72.435        2.726        0.001      339.336       12.598      858.305
10/19/2014  23:40:00      -76.205       -7.614      -18.577       11.102       13.925        6.252      123.262      193.912       39.086        0.328        0.018       76.584        3.087        0.002      339.464       12.815      858.310
10/19/2014  23:41:00      -78.466        5.374      -17.831       12.280       11.127        9.526      150.801      123.814       90.751        0.343        0.018       78.650        4.165        0.003      339.401       12.710      858.288
10/19/2014  23:42:00      -84.468       -3.846      -11.401       15.242        9.777        8.226      232.308       95.585       67.659        0.384        0.020       84.556        3.696        0.002      339.354       12.630      858.266
10/19/2014  23:43:00      -34.281        6.978       -8.351       19.795       11.942       12.329      391.825      142.609      152.013        0.099        0.034       34.984        7.976        0.052      339.871       13.501      858.251
10/19/2014  23:44:00      -67.548      -12.038      -13.124       35.672       17.212       10.498     1272.516      296.249      110.211        0.328        0.084       68.612       16.273        0.056      339.916       13.579      858.241
10/19/2014  23:45:00     -108.596      -18.104      -17.219       20.488       17.528       12.882      419.763      307.220      165.937        0.666        0.045      110.095       10.717        0.009      339.207       12.381      858.254
10/19/2014  23:46:00      -73.187      -18.497      -14.053        9.708       11.337        9.233       94.248      128.523       85.249        0.310        0.015       75.489        6.952        0.008      339.337       12.600      858.277
10/19/2014  23:47:00      -46.481      -12.602       -8.037       12.468       10.134        6.999      155.444      102.700       48.990        0.135        0.015       48.159        6.826        0.020      339.278       12.501      858.289
10/19/2014  23:48:00      -26.708       -0.411       -4.452       16.562       12.133        8.382      274.286      147.216       70.250        0.061        0.025       26.711        9.617        0.130      339.883       13.523      858.279
10/19/2014  23:49:00      -25.028        0.923       -3.837       29.771       17.542        5.147      886.316      307.708       26.487        0.093        0.061       25.045        7.456        0.089      339.934       13.610      858.278
10/19/2014  23:50:00      -93.642      -19.972      -17.923       16.446       14.071        8.931      270.485      197.996       79.763        0.502        0.027       95.748        5.828        0.004      339.135       12.261      858.302
10/19/2014  23:51:00     -105.231      -10.752      -19.319       16.248       14.374       10.630      264.004      206.600      113.002        0.607        0.029      105.779        4.682        0.002      339.103       12.207      858.309
10/19/2014  23:52:00      -86.361        2.521      -19.500       10.101        8.061        7.027      102.027       64.977       49.375        0.403        0.011       86.398        3.878        0.002      339.374       12.665      858.288
10/19/2014  23:53:00     -114.280      -11.165      -17.691       21.842       19.998       13.924      477.068      399.916      193.889        0.728        0.054      114.825       11.315        0.010      339.115       12.227      858.265
10/19/2014  23:54:00     -109.873        1.323      -16.960       21.778       15.769       10.936      474.294      248.654      119.594        0.660        0.042      109.881        8.316        0.006      339.140       12.270      858.254
10/19/2014  23:55:00     -105.106       -7.793      -16.424       17.001       22.405       17.762      289.043      501.992      315.503        0.624        0.055      105.394       13.194        0.016      339.353       12.628      858.249
10/19/2014  23:56:00      -88.966      -12.548      -18.784       25.168       18.132       13.883      633.405      328.759      192.747        0.479        0.058       89.847       16.722        0.035      339.230       12.420      858.224
10/19/2014  23:57:00      -95.858       -4.529      -16.479       20.779       21.023       11.908      431.766      441.962      141.799        0.525        0.051       95.964        7.288        0.006      339.152       12.291      858.214
10/19/2014  23:58:00     -102.237      -38.762      -17.285       24.667       23.927       16.441      608.439      572.517      270.291        0.685        0.073      109.339        7.828        0.005      338.981       12.002      858.208
10/19/2014  23:59:00     -106.337       -9.207      -13.047       31.213       29.204       20.711      974.278      852.853      428.958        0.691        0.113      106.735       15.603        0.021      338.891       11.850      858.200
